GFSNGP_sfc_thetae_000.txt.gz
Theta_e
299 304 305 305 304 303 299 299 298 299 301 305 310 313 314 316 318 319 319 324 325 329 331 335 337 340 343 344 343 341 339 336 332 331 329 328 329 329 329 328 328 327 328 328
300 303 305 302 306 306 306 304 303 302 303 310 313 316 314 317 317 317 320 328 326 329 333 336 338 339 340 341 341 340 337 336 334 333 331 330 331 330 329 328 327 327 328 328
294 301 303 300 303 304 305 308 305 299 304 309 310 313 312 313 314 314 317 320 329 332 333 338 340 340 337 338 339 336 335 334 333 333 332 332 332 330 329 328 326 327 327 325
295 295 291 301 309 312 309 310 310 307 309 311 313 314 313 313 313 315 316 316 319 328 333 339 343 341 337 334 335 335 333 333 334 334 333 332 330 329 329 329 328 328 325 327
293 291 296 304 308 309 307 307 313 310 313 313 314 315 312 314 315 316 315 317 320 323 330 335 341 340 334 333 334 333 332 332 333 334 333 331 329 329 330 328 327 327 328 328
299 293 291 299 312 315 311 301 313 314 313 311 313 307 310 316 317 319 322 323 324 326 337 335 337 335 333 332 331 331 332 333 334 334 332 330 330 331 332 330 328 331 329 327
297 295 298 308 314 314 299 301 313 313 312 311 312 313 315 316 318 320 324 327 328 337 338 335 334 334 331 330 330 332 333 332 332 334 333 332 332 333 331 328 324 323 324 324
299 296 293 314 313 308 309 312 314 315 316 316 315 317 318 318 316 316 316 323 327 335 336 335 334 334 331 329 330 331 329 328 327 323 332 336 333 331 327 325 323 322 322 320
305 303 311 314 312 313 314 312 314 314 316 316 317 318 321 319 319 317 319 321 326 331 334 333 333 330 324 324 328 328 326 326 323 325 324 326 331 329 325 322 320 319 319 317
307 311 314 316 315 316 316 315 316 318 319 318 316 320 320 320 325 328 328 325 332 329 326 324 327 327 327 330 328 325 324 324 324 322 322 327 328 327 324 321 318 317 316 313
309 313 313 314 314 314 317 318 317 317 318 318 321 328 330 328 327 326 324 324 326 327 325 323 326 326 328 327 325 324 324 325 324 325 327 322 314 313 316 306 310 312 310 310
305 311 310 311 314 315 311 312 313 312 312 315 319 327 332 328 326 323 322 323 324 326 326 323 323 322 323 325 323 320 318 323 323 326 321 313 310 306 301 299 298 297 301 302
311 314 313 314 313 311 310 310 311 309 309 308 310 313 318 327 325 322 322 323 324 325 324 324 324 323 325 325 324 322 325 324 322 320 319 312 308 308 306 305 300 297 296 298
314 308 303 305 303 309 312 313 312 311 310 310 309 309 310 312 323 324 325 325 325 323 322 321 321 324 324 321 323 324 322 315 317 318 318 313 310 308 306 304 303 302 299 299
306 307 305 306 307 307 309 309 307 307 307 308 310 309 310 309 312 321 323 323 325 324 322 323 324 323 325 324 323 321 321 318 318 318 318 316 315 313 311 308 307 304 302 300
305 305 306 304 304 305 306 306 304 304 304 305 306 308 311 312 315 320 322 323 322 322 324 322 320 321 323 324 321 320 318 316 317 314 314 312 310 310 309 308 306 303 302 300
303 302 303 303 304 305 305 306 305 305 305 306 306 307 309 315 318 318 317 318 320 321 317 316 315 317 319 321 319 318 318 314 317 314 314 312 310 310 309 306 304 302 301 301
306 304 304 303 304 304 305 306 306 305 305 308 308 307 312 318 315 315 315 318 316 313 312 313 316 317 320 320 318 315 314 314 316 314 312 311 310 308 307 308 304 302 299 300
309 308 308 309 308 307 306 306 309 309 308 310 309 307 317 316 318 317 314 314 314 313 314 317 323 317 315 317 313 313 313 313 312 311 309 309 309 310 312 309 306 305 302 301
311 311 311 311 312 310 309 311 311 312 312 315 313 314 313 314 314 314 313 312 313 314 317 317 317 316 313 314 313 309 309 308 307 306 306 305 305 306 305 306 308 306 303 301
310 311 312 312 312 312 313 312 313 311 308 311 309 309 311 313 316 313 313 312 314 315 316 316 314 310 308 308 307 306 306 306 305 305 304 304 304 304 302 301 302 303 304 301
310 310 311 311 310 309 310 309 310 310 307 310 309 309 309 310 316 315 314 312 311 312 312 311 310 312 310 313 304 303 302 303 304 304 304 303 302 301 301 300 300 298 298 298
307 309 309 309 308 307 309 310 310 310 311 311 311 311 311 312 312 310 309 311 310 311 310 308 309 312 311 304 304 299 299 299 300 302 302 302 302 301 297 297 298 297 295 295
307 308 307 309 309 308 305 308 310 310 310 311 311 309 309 310 309 311 311 310 308 307 307 306 308 309 306 300 298 297 296 296 294 295 294 295 296 295 295 296 296 296 294 293
306 306 307 305 304 305 305 308 308 311 312 309 312 311 308 308 307 306 309 310 308 307 305 306 307 306 298 298 297 296 296 294 294 293 293 293 294 294 294 295 295 294 293 293
305 304 305 305 304 304 305 307 306 307 310 310 309 309 308 305 306 306 306 306 308 305 303 301 300 299 297 297 297 297 297 295 293 292 293 293 293 294 294 294 295 295 294 292
304 302 301 303 304 307 307 306 305 304 305 305 305 309 308 311 310 309 306 305 304 303 301 299 298 300 297 297 297 297 297 296 295 295 293 292 292 292 292 293 293 293 292 293

GFSNGP_sfc_thetae_003.txt.gz
Theta_e
300 300 300 300 300 300 298 298 297 298 299 305 309 311 313 315 315 316 318 319 322 325 328 330 332 337 340 344 345 343 341 338 335 334 333 332 331 329 327 327 327 324 323 322
295 299 300 299 302 303 303 299 299 299 299 306 312 312 312 314 315 315 317 320 321 324 327 327 330 335 339 342 344 344 342 339 336 332 330 329 329 328 326 328 326 324 323 324
295 297 300 295 300 302 304 305 303 298 302 306 308 312 313 314 316 317 318 323 319 322 324 327 330 335 337 341 344 343 342 339 335 334 331 328 329 327 327 327 326 323 323 324
295 295 291 298 306 308 308 310 309 308 305 308 310 315 316 313 315 315 318 321 326 325 325 330 333 335 337 340 341 341 339 337 336 334 332 329 326 327 328 327 326 324 324 324
292 291 298 303 308 307 306 305 311 308 310 312 312 312 310 313 314 316 316 316 320 329 331 329 334 337 337 337 338 338 336 335 335 335 332 329 329 330 330 326 325 325 324 324
293 291 292 302 309 314 310 301 312 312 311 310 310 307 307 315 314 314 314 318 320 323 328 329 331 337 334 332 334 334 335 335 336 335 333 329 330 330 330 328 327 326 326 323
296 295 298 308 311 314 300 300 312 311 310 311 308 309 311 315 317 318 320 324 324 328 333 332 333 332 331 331 332 335 334 333 332 330 330 331 329 327 327 329 326 326 328 327
300 296 294 312 311 305 307 308 310 312 312 312 314 315 316 317 316 316 316 319 323 327 333 333 332 331 326 328 330 332 332 331 325 326 330 328 323 322 325 327 326 323 322 321
302 299 307 311 310 313 311 311 310 313 313 314 316 315 316 316 319 323 323 325 326 325 334 329 329 329 327 327 330 330 329 326 325 327 328 326 323 321 321 324 324 322 320 319
305 305 309 310 311 312 312 311 313 314 313 313 314 323 323 324 325 324 325 324 327 328 326 324 326 329 328 330 329 329 326 324 325 325 324 327 325 323 327 324 321 320 320 318
305 310 310 308 310 311 311 311 312 313 314 314 317 320 325 324 325 325 324 324 327 325 324 324 328 328 327 327 328 326 325 325 323 326 323 324 315 312 318 312 312 317 315 313
301 310 307 307 309 311 308 309 310 310 309 309 311 312 322 324 325 322 320 322 324 322 322 323 325 324 326 326 325 323 322 323 322 322 326 323 312 306 301 301 298 297 301 305
309 312 310 310 311 312 309 310 309 308 309 308 309 309 309 309 315 320 321 321 322 322 322 322 321 322 322 321 321 320 321 320 321 319 320 313 311 308 305 302 298 295 295 297
311 309 305 308 306 307 308 308 308 307 305 307 308 309 308 308 308 314 321 322 322 321 320 321 320 320 322 323 318 318 317 315 319 318 318 313 311 309 307 303 302 301 297 297
305 307 306 306 305 305 306 305 304 304 304 304 305 305 307 306 308 313 314 323 321 319 320 319 319 319 321 320 321 319 318 316 316 317 315 311 310 308 307 304 303 302 301 299
304 305 305 304 304 305 305 305 303 303 303 303 305 306 306 306 310 315 317 320 318 316 318 319 320 322 322 321 318 316 316 316 316 315 313 312 311 312 308 305 304 302 301 301
301 301 302 301 302 303 303 304 304 304 305 305 306 306 306 307 311 314 316 319 318 318 320 321 322 321 321 319 317 315 313 312 316 313 312 310 309 309 309 311 306 303 302 301
305 304 304 304 304 304 303 304 306 307 307 306 308 308 307 308 310 314 314 315 316 315 315 316 317 316 318 318 316 312 311 312 312 311 311 312 312 311 307 305 304 304 301 299
308 307 308 309 308 306 306 306 307 308 309 311 311 310 309 310 314 313 314 313 314 312 311 314 317 316 314 317 314 311 311 311 310 308 309 308 307 306 305 305 305 305 301 300
309 309 310 310 310 309 309 310 310 309 309 312 311 312 311 311 313 312 312 311 310 312 315 314 314 312 312 314 314 310 309 309 308 307 306 305 305 306 310 306 307 304 302 301
308 309 309 308 308 309 309 308 307 307 306 307 306 308 310 311 313 312 309 308 311 312 314 316 312 308 308 309 307 306 305 305 304 303 303 302 302 302 301 302 304 304 301 301
305 306 307 307 306 305 307 307 307 307 307 307 309 308 308 307 310 309 310 311 311 311 312 312 310 310 309 309 303 303 302 303 303 303 302 301 300 300 300 299 299 299 300 298
303 304 305 304 305 306 306 306 308 308 308 308 308 308 308 308 308 307 307 310 312 311 311 310 310 312 312 303 301 298 297 297 298 300 301 302 301 300 299 298 298 298 296 297
304 304 304 305 303 303 303 304 307 307 307 308 308 305 305 305 306 309 309 308 308 308 309 308 308 310 306 301 298 296 295 295 294 293 294 296 297 297 297 295 295 295 295 294
303 304 303 302 302 301 301 304 306 311 313 312 312 311 307 305 306 306 309 311 307 307 306 306 308 307 300 298 296 295 295 293 293 292 292 293 294 294 294 294 294 294 294 294
302 303 302 302 301 301 302 302 303 304 305 305 306 307 307 303 303 304 305 306 306 306 305 303 303 302 298 297 296 296 296 296 293 292 291 292 292 293 293 293 293 294 292 293
302 300 300 300 301 302 303 303 303 304 304 303 304 305 307 307 306 304 304 305 303 303 303 303 302 300 297 296 296 296 296 296 293 292 292 291 291 291 291 293 293 294 293 291

GFSNGP_sfc_thetae_006.txt.gz
Theta_e
299 297 298 298 298 298 296 296 295 298 297 303 308 310 312 317 318 318 317 320 324 328 329 331 332 335 339 342 344 345 339 337 335 334 334 333 332 332 331 329 329 329 328 327
296 298 298 297 299 300 300 299 299 299 299 304 310 312 313 315 317 317 318 319 321 326 328 329 331 331 337 340 342 345 341 338 338 336 335 334 334 333 330 329 328 328 327 328
292 294 294 291 298 298 300 300 301 297 303 305 308 311 312 313 316 318 318 320 319 321 324 326 328 331 335 339 343 344 342 341 339 336 333 331 332 333 330 328 328 328 328 328
293 291 286 297 302 303 303 306 306 306 305 307 310 313 314 314 315 316 318 320 320 320 323 325 327 330 335 338 341 343 342 342 338 335 333 331 330 329 331 328 327 328 328 328
289 288 293 303 306 306 306 304 310 309 312 312 312 313 312 314 318 317 320 322 325 325 325 326 329 332 334 337 340 342 341 340 337 336 334 333 332 329 330 329 329 330 330 329
291 289 290 299 308 313 310 300 310 311 310 309 310 304 307 313 316 315 318 321 324 328 329 331 331 335 334 335 338 339 340 339 338 338 334 330 332 331 330 331 330 332 329 328
295 293 297 307 309 313 300 299 310 311 312 311 308 311 314 318 318 320 322 325 328 330 332 332 334 335 333 333 335 338 338 339 339 338 336 333 330 329 328 330 330 328 325 323
298 296 293 309 310 303 308 309 311 313 312 312 313 315 317 319 319 321 322 324 326 327 331 335 334 335 332 332 334 335 335 333 332 332 333 329 326 326 327 326 324 326 326 322
300 299 307 310 307 310 312 312 312 311 313 316 316 317 320 320 321 323 325 326 330 331 331 332 332 334 330 329 332 332 328 327 328 328 328 328 326 325 325 325 324 325 325 325
304 306 307 307 309 310 311 310 311 313 314 317 317 321 321 324 324 323 325 326 328 328 326 326 328 329 329 331 330 328 326 327 328 327 325 325 326 327 325 323 323 324 325 324
303 307 309 308 310 311 310 310 310 310 312 312 312 312 313 316 323 323 323 325 326 325 325 327 328 327 330 329 328 327 326 325 325 324 326 325 324 320 322 317 318 324 322 322
299 307 306 305 310 314 309 309 310 309 308 309 310 310 312 310 319 322 323 325 323 323 325 325 326 326 328 330 330 329 326 324 323 324 325 324 313 309 301 299 299 299 299 310
304 306 307 308 309 310 306 306 307 307 308 307 309 308 310 310 313 319 323 325 324 323 323 324 325 326 327 327 328 327 326 321 320 320 322 318 315 312 310 304 297 296 296 297
310 310 304 306 304 307 307 307 307 306 307 308 308 309 308 308 311 312 314 320 324 323 322 322 323 324 323 323 323 323 323 314 322 321 321 317 315 314 312 311 309 305 298 299
307 308 306 307 307 307 307 307 306 305 305 305 306 307 307 307 308 311 315 319 323 323 323 322 321 321 323 322 321 322 321 320 320 320 318 315 315 314 312 309 308 306 305 299
306 307 307 306 305 306 305 304 303 305 306 305 306 308 307 308 308 311 315 319 319 321 322 321 321 322 324 324 324 323 322 317 317 318 315 314 313 312 310 309 308 307 306 307
302 302 303 303 304 304 304 304 306 307 308 307 307 309 309 309 309 310 313 317 320 319 321 321 322 324 326 324 321 319 319 319 317 318 316 315 314 313 312 310 309 308 308 306
305 305 305 305 305 305 306 307 307 308 308 309 311 311 311 310 309 310 315 317 319 319 321 320 322 321 322 321 321 319 316 317 318 318 316 315 315 315 314 313 309 309 308 305
308 308 309 309 308 308 308 308 309 310 310 310 311 310 311 313 314 316 315 315 315 316 316 317 319 318 320 320 317 317 316 315 315 315 315 311 313 313 312 311 310 309 307 304
309 310 309 308 309 309 308 308 308 309 309 307 308 308 309 311 313 314 314 313 314 316 316 318 317 317 317 319 316 314 314 314 313 312 312 312 312 311 312 306 310 308 306 303
307 307 307 307 307 307 307 308 307 307 308 308 307 307 307 312 314 316 313 313 315 316 318 316 315 314 314 314 312 310 310 310 310 310 310 309 310 310 311 312 310 307 307 306
304 305 306 306 305 305 307 307 309 308 309 309 310 311 311 310 311 312 313 313 313 311 315 315 313 311 312 311 308 307 307 308 308 308 308 308 307 307 306 306 306 308 307 306
303 304 304 304 304 304 305 306 308 309 309 310 309 309 309 310 310 311 311 313 315 312 315 314 311 312 309 306 305 303 302 302 302 303 305 307 306 306 306 306 305 305 304 305
303 304 304 305 304 303 303 305 309 311 310 311 310 310 307 308 309 312 313 310 308 310 313 312 311 310 307 306 303 301 301 301 301 300 301 299 306 306 306 305 304 303 303 301
303 303 303 303 302 302 302 303 305 309 310 311 311 311 311 308 308 309 310 313 308 310 312 307 308 308 308 304 302 301 301 300 300 299 299 299 300 301 302 302 302 302 301 301
302 301 302 303 302 301 303 303 303 305 306 307 308 309 310 310 308 308 309 308 312 308 311 310 309 309 307 304 302 301 301 301 300 299 297 298 298 299 300 300 301 300 300 301
302 300 301 301 301 301 302 303 304 304 305 306 306 308 309 309 310 307 305 308 308 308 308 309 308 306 306 304 303 302 301 301 299 300 298 298 298 298 298 299 299 299 300 300

GFSNGP_sfc_thetae_009.txt.gz
Theta_e
306 308 306 304 302 303 303 305 303 305 306 312 320 322 325 327 329 327 328 332 336 338 344 348 349 350 351 350 354 354 355 353 351 349 348 349 343 336 333 334 335 336 337 338
301 306 305 302 304 304 305 305 306 307 308 316 321 323 324 325 328 327 328 330 334 338 340 342 345 346 347 350 352 355 354 352 352 351 347 346 341 338 333 332 332 334 333 334
301 303 302 299 304 305 306 308 307 304 311 319 316 319 322 326 328 330 330 331 333 337 340 341 342 344 344 347 350 352 353 352 351 350 346 344 341 340 337 334 332 333 332 332
302 301 292 303 309 309 307 308 311 311 314 319 321 325 324 326 329 331 333 334 334 333 337 341 341 342 345 347 350 352 352 352 351 349 346 343 342 341 338 334 338 332 334 337
298 298 303 305 309 306 305 306 312 312 316 317 318 321 321 323 325 328 330 332 334 335 336 339 339 342 344 346 348 349 350 351 351 348 345 343 342 338 341 337 335 337 336 337
303 297 295 307 313 316 315 304 317 318 319 319 318 312 320 323 324 328 331 334 336 337 338 339 341 342 343 344 346 347 349 351 352 349 346 343 341 337 339 338 335 336 336 339
304 301 303 311 313 316 304 309 318 319 320 319 318 321 323 327 330 333 334 336 340 342 342 343 344 346 346 346 346 350 352 352 349 347 346 345 339 339 338 337 332 332 336 338
304 302 299 312 313 310 315 319 320 320 321 320 322 324 326 328 329 332 332 333 337 339 341 345 346 347 346 345 346 350 350 348 344 345 340 337 335 336 339 337 331 327 332 328
306 305 312 313 312 317 322 320 321 323 323 324 324 326 328 329 331 333 335 336 339 340 340 342 345 347 344 344 345 346 346 342 341 342 339 336 335 333 331 331 331 328 327 327
307 309 309 312 313 315 316 316 319 323 321 322 322 327 330 332 332 333 335 336 338 339 338 338 341 342 342 340 344 343 341 340 341 340 337 337 335 335 335 332 329 325 329 328
308 308 310 311 313 314 315 315 315 317 318 317 318 319 326 329 331 333 334 335 337 338 338 337 340 340 341 342 341 339 339 338 336 335 336 334 327 326 330 331 322 329 327 333
305 311 312 311 313 312 310 311 314 314 314 316 318 318 319 321 327 327 330 335 336 337 337 336 338 338 339 341 340 338 335 333 332 330 330 330 324 317 299 300 299 299 299 318
308 312 310 310 310 312 311 311 312 311 313 312 314 315 317 318 321 320 325 328 333 335 336 337 338 338 339 340 340 337 335 333 331 328 331 329 326 325 323 306 296 295 296 299
312 311 307 308 307 310 310 311 311 311 312 313 314 315 315 315 317 318 321 325 330 333 335 335 337 337 338 338 337 335 335 317 329 328 328 326 326 325 326 323 322 316 298 302
309 310 309 311 309 308 309 311 310 310 312 313 315 315 314 314 315 317 320 323 329 331 333 334 334 334 336 335 334 333 329 328 329 330 329 325 327 326 325 324 322 317 312 303
308 309 309 308 308 309 310 311 310 311 311 314 315 316 316 318 319 319 320 322 324 324 330 332 333 333 332 331 330 330 331 320 323 328 325 325 325 324 323 322 320 317 316 316
306 305 307 308 309 310 310 311 312 313 313 315 316 318 319 320 321 322 322 325 327 328 330 332 332 332 332 332 331 332 332 328 321 328 327 326 325 324 323 321 320 319 318 316
311 310 311 312 310 310 311 313 315 316 315 316 317 317 317 318 320 323 325 326 328 329 328 329 332 333 333 332 331 327 325 325 327 327 326 325 324 323 323 322 321 319 319 313
313 311 311 312 312 312 312 313 314 315 316 316 315 315 318 321 321 324 326 327 326 327 323 327 322 328 329 328 326 325 325 324 324 325 326 318 323 324 323 322 320 320 319 316
311 311 312 311 312 312 312 314 315 315 317 317 317 318 318 319 321 322 325 323 322 323 326 325 326 327 328 323 321 324 324 323 322 322 323 322 322 322 322 312 319 318 317 315
309 311 310 310 310 312 313 314 315 315 317 318 318 318 319 320 321 322 322 320 323 324 325 321 326 324 324 322 322 322 321 321 321 321 321 321 320 320 320 319 318 318 317 312
310 310 310 310 311 311 313 315 316 317 318 318 318 318 318 319 320 321 322 320 323 312 322 323 321 317 318 318 319 317 316 316 316 317 317 317 317 316 316 316 317 317 316 316
311 311 311 312 311 312 313 315 316 317 317 318 318 317 316 316 317 319 317 321 324 316 324 322 312 312 310 317 314 312 311 311 311 312 312 313 313 314 314 314 313 313 313 314
310 311 312 312 312 312 312 314 313 314 316 319 319 320 318 315 315 317 321 314 309 313 321 319 314 309 308 315 313 312 311 311 311 311 310 300 312 313 313 313 313 313 313 310
311 311 312 313 312 311 313 313 313 315 315 316 318 319 319 320 316 316 318 320 309 314 319 309 309 309 317 318 316 313 312 311 311 311 310 308 308 308 311 312 312 311 311 311
311 310 310 311 310 310 311 313 312 312 312 313 316 317 318 319 318 317 318 312 320 314 320 320 318 317 318 317 316 315 313 312 309 309 308 309 309 307 307 307 308 308 308 307
308 301 307 308 308 308 308 309 309 309 309 311 311 313 314 315 315 313 310 316 317 317 317 318 318 314 317 317 315 315 314 313 307 311 311 310 309 308 307 307 307 308 307 307

GFSNGP_sfc_thetae_012.txt.gz
Theta_e
309 309 309 307 306 306 305 307 305 309 310 315 318 320 321 323 325 330 335 337 340 342 350 354 355 358 357 354 356 357 357 356 359 362 361 359 361 355 349 345 344 341 338 339
308 310 310 307 309 308 307 307 307 308 309 317 320 322 321 322 324 327 335 337 340 344 347 350 352 354 354 355 355 358 359 357 362 364 362 359 361 353 348 342 343 337 334 332
305 309 309 304 309 310 310 309 308 305 311 316 317 318 321 322 326 329 335 338 340 342 346 350 351 354 353 356 357 357 358 359 360 363 360 358 358 352 347 345 342 336 332 333
306 309 299 309 315 314 312 311 311 311 314 316 319 321 324 327 326 328 336 338 341 342 346 350 351 352 353 355 357 357 358 359 360 361 358 355 352 349 348 344 340 340 337 337
304 302 307 310 315 312 310 309 314 313 315 316 319 322 325 332 332 334 338 342 343 344 347 350 349 351 352 351 354 354 355 357 358 358 356 353 349 344 344 343 339 337 337 340
307 301 299 311 315 319 319 308 316 316 315 317 318 314 318 333 331 332 337 342 343 343 345 347 348 349 349 349 351 352 354 356 359 359 357 351 350 348 343 339 337 335 339 340
307 304 307 315 315 320 307 309 322 318 318 318 317 323 331 334 334 337 339 341 343 344 344 347 348 347 348 349 349 353 355 357 359 359 356 352 352 347 342 337 337 340 341 341
307 305 302 315 316 312 319 326 326 326 325 326 329 331 333 336 337 340 342 343 344 344 345 348 350 351 351 352 355 358 358 357 358 354 350 348 343 341 339 339 342 340 340 339
310 310 316 318 314 319 324 326 327 328 329 330 330 331 333 334 335 336 337 337 340 342 346 349 351 352 352 356 356 357 356 355 348 349 346 344 338 337 336 339 336 336 336 333
313 314 315 316 318 319 322 325 328 330 330 331 329 331 333 335 337 337 338 338 340 341 343 346 351 353 354 354 354 354 349 344 344 340 338 339 337 337 337 337 335 337 334 332
313 314 313 314 317 318 319 322 322 324 326 330 333 334 334 335 338 338 339 341 341 341 344 346 349 351 350 351 351 349 345 344 343 340 342 339 321 322 336 334 322 335 332 329
310 313 315 312 312 314 315 316 318 319 318 322 323 323 324 326 329 333 339 342 343 343 344 346 347 349 350 351 351 348 343 343 341 341 340 338 334 330 299 302 300 300 301 317
316 314 312 312 313 314 313 314 316 317 319 318 319 320 321 321 324 322 328 331 339 341 343 345 346 346 347 347 347 345 342 342 336 333 337 334 333 330 327 311 297 295 296 298
313 311 308 311 308 311 312 314 314 316 316 317 317 317 316 317 319 320 322 326 331 335 342 344 344 344 344 343 344 344 341 321 337 335 334 333 333 333 330 328 326 323 301 305
310 311 311 311 313 311 314 313 312 312 315 315 319 319 319 319 319 319 320 323 326 329 334 341 342 342 344 343 342 341 337 335 333 332 331 328 331 330 330 328 329 325 314 306
309 310 310 309 309 311 313 313 314 313 314 316 317 318 320 323 322 321 322 324 325 325 332 335 341 342 342 340 339 334 333 321 326 331 330 332 332 331 329 329 329 326 322 320
305 304 306 308 309 310 311 313 315 315 315 315 316 320 320 320 322 324 325 327 330 332 334 337 338 341 338 337 334 331 331 331 325 331 330 329 328 328 328 327 325 325 324 322
311 312 313 312 311 312 312 315 316 317 317 317 317 318 319 321 322 324 327 330 331 332 334 336 338 338 337 336 334 332 331 330 328 327 327 327 328 329 327 326 325 324 323 316
314 312 312 313 312 313 314 314 317 318 319 319 319 320 322 324 326 328 330 329 328 328 329 334 326 333 336 333 333 331 329 328 328 329 329 321 326 327 326 325 324 323 321 320
311 312 312 312 314 315 314 316 316 317 319 320 321 321 322 323 325 326 329 327 328 329 332 331 333 332 333 328 325 327 328 328 328 327 326 324 325 325 324 315 322 321 320 320
310 311 311 312 312 314 317 318 317 318 321 322 322 322 322 324 325 325 324 322 327 327 329 325 331 330 329 327 327 328 327 326 326 326 324 323 324 323 322 320 320 320 319 319
312 312 312 312 312 313 316 319 320 320 321 321 321 321 321 322 324 325 325 323 325 312 325 327 326 320 324 319 327 325 324 324 323 323 321 321 320 320 319 320 319 318 318 318
314 314 314 314 314 315 316 317 319 321 321 322 321 320 318 318 319 319 318 324 325 318 325 323 313 312 313 322 321 319 318 318 318 318 318 317 317 317 317 317 317 317 317 316
315 315 316 317 316 314 314 316 316 318 319 320 320 322 318 314 317 319 323 315 312 315 321 319 315 309 306 320 319 318 318 318 316 316 316 300 312 314 314 315 316 316 316 312
317 316 316 316 313 312 315 316 315 314 315 319 320 320 320 319 317 318 319 320 311 315 323 310 310 309 318 320 319 318 317 316 315 315 314 313 312 311 312 313 315 316 316 315
312 312 313 315 313 313 312 312 311 312 312 312 314 315 316 317 319 317 320 314 319 316 317 320 321 320 319 318 318 318 317 316 314 314 311 313 313 312 311 311 311 312 312 312
309 303 309 310 310 311 311 312 311 311 312 312 312 314 315 315 315 313 310 316 316 316 317 317 318 315 317 316 317 316 316 316 310 314 314 313 313 313 312 311 311 311 311 311

GFSNGP_sfc_thetae_015.txt.gz
Theta_e
310 311 311 308 306 307 306 309 307 310 311 317 320 322 323 324 326 326 327 334 339 341 350 354 353 355 356 354 355 353 356 355 359 365 367 368 368 370 369 365 359 355 353 350
308 310 310 308 310 309 308 308 308 310 310 319 321 325 324 324 325 325 326 328 339 342 346 355 355 358 359 359 359 359 362 360 363 368 368 367 369 369 368 364 359 355 351 347
304 310 310 304 309 310 311 312 310 306 311 317 318 321 323 325 325 325 326 329 334 341 345 351 353 361 359 363 362 363 365 369 368 371 370 370 370 369 365 363 356 351 349 345
305 308 299 311 317 314 311 313 315 314 315 316 321 323 325 325 325 327 330 332 334 340 346 353 353 353 359 359 366 366 368 367 371 371 372 371 368 366 362 356 349 350 348 344
303 303 308 311 314 315 314 314 317 315 318 318 318 318 321 325 328 329 329 332 334 343 346 357 356 361 361 359 363 364 365 367 369 370 369 368 364 361 355 351 347 343 343 341
307 302 300 311 318 321 320 309 318 320 321 318 318 310 317 325 325 328 334 334 337 345 348 354 358 355 358 355 357 359 362 363 367 368 367 364 361 357 356 353 346 342 340 338
305 304 308 317 319 321 308 311 327 327 327 325 320 319 324 331 329 331 335 337 347 348 353 357 357 354 358 357 355 357 358 359 362 365 365 365 362 356 353 350 345 342 338 341
307 303 300 320 320 313 321 327 328 329 329 328 330 323 331 335 336 337 338 342 346 348 350 354 357 358 360 358 361 363 363 362 363 365 359 357 356 353 349 344 338 337 338 339
309 309 322 323 323 325 326 328 329 330 331 331 329 333 336 338 340 342 344 344 346 347 350 353 358 358 359 366 367 365 362 364 363 359 355 354 351 346 342 340 336 335 336 341
316 319 319 321 324 326 328 327 332 334 332 332 333 335 336 337 339 340 343 345 346 347 348 354 360 359 360 360 361 360 360 354 352 349 346 347 346 343 339 337 337 337 338 339
317 319 320 321 322 324 325 327 328 330 329 332 334 334 335 337 338 338 339 340 343 345 346 349 353 354 355 357 358 354 348 345 344 343 344 338 330 332 339 328 328 339 337 339
311 320 320 317 320 322 320 320 322 324 323 325 329 328 331 333 339 339 339 341 341 344 346 349 351 352 354 357 354 349 346 344 343 342 338 335 330 327 301 303 299 299 302 322
317 321 318 317 317 317 315 317 318 319 320 320 321 322 322 323 327 324 336 340 341 342 345 348 349 349 351 354 352 351 348 348 343 340 339 339 338 336 332 312 299 297 298 302
319 317 312 314 312 316 316 317 316 317 319 319 319 321 320 319 320 323 325 331 337 342 344 345 345 345 348 350 350 347 345 326 340 339 337 336 335 333 332 330 327 325 302 307
314 316 316 315 314 316 314 315 315 315 316 317 320 320 323 322 322 322 323 325 328 334 341 343 343 342 345 346 346 344 340 338 338 337 335 331 333 333 331 329 329 327 317 309
311 310 310 309 309 311 313 313 311 315 318 318 320 321 324 324 325 325 326 326 326 328 330 336 343 343 345 345 343 340 338 325 331 334 331 331 331 330 329 328 327 326 323 321
305 305 307 308 310 309 311 314 316 315 316 316 318 321 322 323 324 326 327 328 329 330 331 335 340 344 343 343 340 335 334 332 328 332 330 331 331 329 328 327 326 326 325 322
311 311 310 311 311 312 313 314 316 318 316 317 318 320 321 322 324 325 327 328 332 331 334 336 341 343 340 339 337 333 332 332 330 330 329 329 327 327 327 326 326 324 322 318
312 309 311 313 315 314 315 315 316 319 320 321 322 321 323 323 325 327 329 328 330 329 330 336 328 334 338 336 333 333 331 329 328 327 328 323 327 327 326 324 323 324 322 320
312 314 314 314 314 314 315 318 319 319 320 320 321 321 322 323 324 327 329 327 330 330 333 334 334 336 336 333 328 330 329 328 326 329 327 328 324 324 326 314 323 322 322 322
312 312 312 312 313 316 318 318 318 319 320 322 322 322 321 323 325 326 327 322 329 331 332 326 333 331 331 329 328 329 329 327 325 326 325 324 324 323 323 322 321 320 320 320
312 312 313 313 314 315 317 319 320 321 321 321 322 323 322 324 324 325 327 324 326 315 325 327 326 320 325 320 327 325 324 323 325 326 324 323 322 321 321 321 320 320 320 320
314 313 313 314 314 315 316 316 317 320 321 321 320 320 319 319 321 319 321 325 324 318 321 322 315 315 315 322 325 324 324 322 321 320 320 320 318 319 318 318 318 318 319 319
315 315 316 316 316 315 314 315 316 317 318 320 320 320 318 316 317 320 322 316 314 317 320 318 314 311 307 320 320 320 320 319 318 317 319 305 314 315 315 316 316 318 318 314
316 318 318 316 313 312 315 315 316 315 316 320 319 319 321 320 317 316 320 317 313 315 318 310 311 311 317 319 319 319 318 318 317 317 316 315 314 313 313 314 314 316 317 317
314 312 313 315 312 312 312 313 312 312 313 312 313 315 315 316 316 316 320 315 318 316 317 322 321 320 320 318 318 317 318 318 317 316 314 314 314 315 314 313 313 313 314 315
311 304 311 310 311 310 310 310 311 310 311 312 311 314 314 315 316 315 311 316 316 316 316 317 317 315 317 317 317 316 317 317 311 316 316 315 315 315 314 314 313 313 313 313

GFSNGP_sfc_thetae_018.txt.gz
Theta_e
308 309 311 310 308 308 307 308 305 308 310 317 320 325 325 329 328 330 335 336 342 343 347 345 346 347 347 348 349 351 354 356 358 361 362 363 362 365 365 365 362 359 353 352
307 310 309 308 310 309 308 308 308 309 309 317 322 325 328 322 325 329 332 335 341 344 352 353 348 348 347 347 349 350 350 353 357 359 362 361 364 362 365 364 363 359 354 351
302 308 308 304 309 310 309 310 308 305 312 319 318 320 325 328 327 329 330 332 340 344 346 350 355 352 348 348 352 350 353 354 355 358 360 361 362 363 363 363 363 359 353 350
304 306 297 309 315 313 311 312 313 313 315 317 318 321 322 325 327 328 331 332 338 334 346 351 349 353 355 353 353 355 354 357 358 359 360 362 362 362 363 363 362 359 353 348
302 301 305 308 312 312 310 311 316 315 319 319 320 320 320 323 325 327 330 339 338 333 337 352 351 356 356 357 355 356 358 361 362 366 364 363 363 363 364 364 361 353 348 344
305 300 298 310 315 321 319 308 321 323 322 322 323 315 320 324 325 325 327 329 335 339 343 353 355 356 357 355 358 355 358 363 367 370 370 367 367 366 366 360 353 348 345 344
303 301 304 317 319 321 307 311 325 326 326 325 322 327 334 334 329 340 332 329 335 353 350 354 359 357 357 356 358 361 363 368 368 370 370 370 369 364 355 351 349 345 341 339
306 302 300 321 318 310 322 327 325 327 327 328 331 331 333 334 336 338 341 334 342 357 359 361 360 363 360 360 365 367 368 366 367 369 364 365 363 357 351 348 344 341 340 338
307 307 326 325 325 327 328 328 331 332 331 329 328 330 332 338 339 338 344 347 348 354 359 363 365 367 361 367 364 364 363 363 365 365 362 357 353 349 347 344 340 337 334 335
310 318 321 324 326 329 330 331 332 334 336 336 332 335 336 339 341 345 347 348 353 353 354 358 363 364 363 362 364 363 363 362 357 354 351 351 348 347 342 339 337 338 337 339
316 321 321 323 325 327 328 329 328 330 329 330 330 330 337 339 342 345 348 350 353 353 354 359 362 361 362 363 364 358 355 351 347 344 344 332 321 325 340 329 334 339 338 337
313 314 318 321 323 324 322 323 325 324 323 326 324 322 327 329 336 341 343 346 344 344 347 352 355 356 360 361 356 351 346 344 343 339 338 336 330 323 302 303 300 301 305 330
314 314 316 316 318 318 318 318 319 320 321 321 323 322 323 324 325 326 339 344 346 348 349 353 353 354 356 356 353 347 344 345 341 336 338 336 336 332 324 311 300 298 300 305
315 315 311 314 313 317 317 319 319 319 319 321 320 321 320 324 326 327 330 334 344 346 348 349 348 350 354 354 352 350 351 333 343 342 340 340 338 337 334 328 325 321 302 306
314 315 314 315 317 316 314 316 317 317 318 320 322 323 323 324 324 326 328 330 338 343 344 344 343 346 352 350 348 346 342 336 341 339 337 336 337 335 333 331 330 323 315 307
311 312 311 311 311 312 316 316 312 314 315 316 319 320 324 327 329 328 330 332 333 332 339 343 341 345 348 347 346 342 335 329 334 336 333 335 334 333 331 332 328 323 322 319
308 307 308 309 308 308 308 313 315 316 313 317 319 323 323 323 325 326 329 330 334 335 337 342 343 346 346 346 343 340 336 336 325 334 332 331 331 330 330 329 328 325 325 320
311 311 312 311 311 308 308 311 312 316 317 318 321 322 323 325 325 326 327 334 332 333 334 338 344 345 340 342 344 340 333 333 330 330 331 334 333 332 330 329 326 324 325 316
310 311 314 314 314 314 315 315 316 318 319 320 321 321 323 324 327 329 331 329 329 329 332 338 330 337 339 333 331 333 329 327 324 330 323 324 323 328 329 324 320 325 323 318
312 313 313 314 316 315 315 316 319 319 321 322 321 322 323 324 328 329 330 327 330 330 335 333 336 337 338 338 330 331 330 325 325 329 329 327 329 328 321 317 323 323 322 322
313 313 312 313 315 317 317 319 319 319 321 322 322 322 324 327 326 328 328 324 330 330 330 328 335 331 334 330 328 326 327 325 327 327 325 324 326 320 323 323 323 323 323 324
312 312 312 313 314 316 317 318 321 321 321 322 323 322 324 324 325 324 325 321 324 314 323 325 323 317 319 319 327 326 324 323 324 324 321 320 321 323 322 321 318 321 322 323
313 314 316 316 315 316 317 317 317 321 321 322 322 323 321 320 320 317 319 323 321 317 319 315 316 314 312 322 323 325 324 323 321 322 321 320 319 319 320 319 322 322 320 319
315 318 314 319 319 317 317 320 320 320 320 321 319 320 321 315 319 321 321 315 316 317 318 316 314 313 308 319 320 318 318 318 317 317 316 308 315 315 315 316 316 318 320 317
318 317 317 317 311 310 313 315 316 314 321 321 321 322 320 320 319 318 319 318 312 315 321 311 313 312 315 317 318 319 318 318 317 317 317 317 315 314 315 314 314 316 317 318
313 311 312 316 312 311 310 311 311 312 312 312 313 314 315 318 317 316 319 315 319 316 317 320 319 319 319 317 317 318 320 318 317 317 315 315 315 314 314 314 314 314 315 314
311 305 309 308 308 308 308 308 309 308 310 311 310 311 312 314 314 313 311 315 314 316 314 317 316 314 315 315 317 315 318 318 311 315 316 316 316 315 314 315 315 315 314 314

GFSNGP_sfc_thetae_024.txt.gz
Theta_e
296 300 302 301 300 302 298 300 296 299 294 297 300 301 306 310 315 319 319 324 328 330 332 335 337 339 342 347 352 353 353 354 352 353 355 357 355 353 352 354 350 346 345 344
294 301 302 300 302 303 302 302 300 297 295 301 304 304 308 312 318 316 320 322 327 331 333 334 337 338 340 345 351 353 354 353 355 355 354 354 355 355 353 351 354 347 344 344
287 297 300 296 301 301 302 303 302 297 300 303 303 307 310 312 316 315 314 323 326 330 332 335 338 340 339 343 350 352 353 354 354 354 354 354 355 355 355 352 351 349 343 343
288 292 289 299 306 306 302 304 304 303 304 305 307 308 310 315 315 313 317 320 326 330 332 336 338 340 342 343 345 350 351 352 354 354 353 354 354 354 354 356 352 352 347 344
287 289 295 301 303 303 300 301 307 304 305 307 310 308 315 318 313 311 315 318 324 331 333 334 334 338 340 341 343 345 347 350 352 353 351 352 351 352 353 354 354 353 353 346
292 289 288 297 305 310 308 298 316 315 314 313 311 302 307 319 320 318 319 318 316 329 333 335 334 336 337 338 341 342 344 346 351 353 351 350 352 351 353 354 354 354 353 348
292 293 294 301 306 313 300 300 316 317 316 314 313 312 317 320 320 320 320 324 318 315 324 335 340 337 335 337 338 343 345 345 347 351 350 351 351 352 352 353 353 353 350 345
295 293 290 310 312 302 307 317 318 320 316 316 320 329 333 332 327 323 321 324 326 316 314 321 336 339 336 335 339 342 342 342 343 347 349 350 350 352 352 352 350 344 340 338
299 300 307 315 316 323 325 323 323 325 326 328 326 328 331 332 336 339 339 341 342 323 316 319 333 341 339 338 340 339 341 340 344 345 347 351 351 352 351 348 345 340 339 335
303 308 309 310 313 321 322 320 322 323 323 325 324 326 328 332 333 336 339 341 344 344 341 343 341 338 341 343 342 344 344 346 352 353 353 354 353 352 348 344 340 338 337 334
304 308 311 310 311 316 319 319 318 318 318 319 321 320 322 322 324 331 335 338 340 341 345 345 347 349 352 353 348 351 352 353 354 350 347 333 320 331 341 332 336 336 335 334
302 309 305 308 312 319 315 315 315 315 315 317 317 315 317 317 319 323 329 335 334 334 335 339 342 345 352 354 353 349 346 341 337 331 328 325 324 317 307 308 308 308 313 324
309 312 310 313 313 313 313 314 316 315 314 313 314 315 316 314 316 320 328 333 334 335 337 339 323 320 342 346 347 345 339 335 332 330 331 330 328 325 318 311 301 300 305 307
315 314 310 312 310 313 313 314 316 317 318 317 317 315 315 315 319 323 322 326 333 328 333 339 338 339 339 339 339 337 335 322 334 332 331 330 330 324 323 324 320 311 300 303
313 314 313 314 313 313 314 313 312 313 315 314 313 313 316 318 319 321 326 327 332 333 333 335 336 337 340 337 336 335 333 331 332 331 330 327 325 323 321 321 319 311 306 304
309 309 310 309 309 311 312 312 310 310 310 314 315 313 310 316 320 322 325 327 327 327 330 331 332 332 333 333 333 333 331 326 328 331 330 329 326 323 322 319 315 313 312 309
305 304 306 306 306 307 309 312 314 314 312 309 310 316 318 313 313 319 320 322 325 326 326 329 329 329 329 333 327 325 329 331 327 331 330 330 328 325 324 322 315 312 313 309
310 310 308 307 308 309 311 313 315 315 315 314 310 315 316 318 315 318 320 321 323 325 326 327 328 326 325 325 324 324 323 326 327 328 328 329 328 327 324 323 319 315 314 307
311 311 313 314 312 313 314 314 315 317 318 318 317 314 313 319 318 319 320 320 320 321 324 327 327 327 325 326 324 322 323 322 322 322 321 319 320 322 326 323 320 318 314 308
311 313 314 315 315 314 313 314 315 316 317 318 318 317 317 317 319 318 317 315 315 319 321 320 323 324 324 324 325 323 322 321 321 320 319 319 319 320 320 315 320 316 314 312
312 313 313 312 313 314 314 315 315 314 316 316 316 315 315 314 319 319 315 314 315 318 316 314 312 313 316 321 323 322 322 321 320 320 320 318 318 319 319 319 319 317 315 315
309 310 310 311 311 313 315 315 317 315 313 313 316 314 316 315 315 314 314 311 312 312 310 308 311 315 316 319 317 319 321 321 321 320 319 319 320 319 319 318 318 316 314 312
307 306 307 307 305 306 309 310 313 312 311 312 311 311 313 311 312 310 310 312 310 310 310 308 311 312 313 313 313 320 320 320 319 318 318 318 317 317 315 315 317 316 315 316
303 302 301 302 302 301 301 305 307 310 307 307 307 309 307 308 309 312 311 310 309 309 309 311 311 310 310 313 312 312 312 311 310 311 311 304 305 305 304 307 311 314 315 313
300 300 300 299 299 299 300 302 304 303 304 303 306 307 308 309 307 306 308 310 309 310 310 310 310 310 310 312 313 311 310 309 308 309 307 305 304 303 304 304 305 307 311 314
298 297 296 295 295 297 299 298 297 299 301 301 305 306 305 304 304 305 305 305 307 309 307 308 309 309 308 308 311 311 310 310 309 309 310 310 309 306 306 304 301 302 302 302
296 296 296 296 297 297 297 298 298 297 299 301 299 300 301 301 301 301 301 303 302 302 303 304 306 306 305 305 306 305 308 307 302 308 308 308 308 308 307 307 306 304 302 302

GFSNGP_sfc_thetae_027.txt.gz
Theta_e
291 295 296 297 296 299 295 298 295 297 293 297 299 301 302 305 306 311 314 319 322 326 327 328 331 335 339 343 346 347 347 348 348 350 351 350 349 348 349 349 347 345 342 342
289 296 297 296 298 299 300 300 298 298 294 299 304 302 301 303 305 309 315 319 321 326 328 328 331 334 337 342 347 348 347 347 349 350 351 351 351 349 348 348 348 345 343 342
284 292 293 291 297 299 300 301 300 296 299 300 300 301 302 303 304 309 311 317 321 326 328 330 332 335 336 341 345 348 348 349 349 349 349 351 352 351 349 347 349 345 344 344
284 288 285 296 302 304 301 302 301 299 301 302 303 305 306 306 308 311 313 314 320 322 324 331 334 336 337 341 344 347 348 349 350 350 349 350 351 351 351 349 348 349 345 344
284 284 291 298 301 300 298 297 303 303 303 303 304 306 305 311 311 313 315 316 322 326 327 328 332 336 337 339 343 347 347 348 350 352 350 350 349 350 351 351 349 348 347 343
287 284 285 293 306 311 306 297 305 305 304 304 304 298 304 314 314 313 313 312 317 325 326 328 333 336 336 337 340 345 347 349 351 352 351 351 351 351 352 353 352 351 349 346
288 288 292 303 311 315 295 298 313 310 307 307 304 305 309 318 318 317 316 318 316 323 329 328 329 335 336 337 338 342 348 350 350 352 352 352 352 352 352 352 352 352 351 351
290 289 286 310 310 305 309 316 315 314 313 313 317 324 325 324 326 328 327 332 329 312 318 325 329 332 334 335 339 341 343 345 347 350 352 351 350 351 351 351 350 351 351 349
295 295 305 309 312 313 314 316 319 319 323 328 328 328 330 331 333 336 337 338 340 338 333 328 320 331 329 334 337 339 341 342 343 347 350 350 349 349 348 350 350 349 347 343
301 305 309 313 314 315 317 315 316 320 323 327 327 328 328 329 332 335 337 338 341 342 342 341 345 339 331 334 333 334 336 339 341 342 346 349 349 349 349 350 349 346 341 337
301 307 310 313 312 315 316 316 317 317 317 317 320 318 320 321 323 328 331 331 332 333 333 331 331 330 330 333 339 331 334 336 339 340 341 339 321 339 350 345 345 344 341 338
298 307 306 308 312 315 314 314 315 315 314 315 316 315 317 318 320 324 328 330 331 331 331 327 319 318 320 320 321 327 340 339 342 337 328 325 328 320 306 316 315 316 315 325
306 310 311 312 313 314 314 316 317 316 317 316 316 317 317 317 319 320 325 328 323 323 330 333 326 320 320 321 327 321 330 333 329 328 330 331 333 330 324 314 310 308 308 310
312 312 309 311 310 313 314 316 317 317 315 313 316 319 319 320 323 323 324 327 330 331 333 332 335 333 332 330 328 333 329 322 334 334 334 333 331 330 330 329 328 321 302 303
313 314 312 313 313 311 313 314 312 313 315 316 315 314 319 319 319 322 324 327 329 329 330 330 332 332 335 336 335 330 333 331 335 333 332 328 329 327 327 330 329 314 309 304
310 310 310 309 308 310 311 310 309 309 312 315 316 316 312 317 319 321 323 325 324 324 325 325 324 327 332 333 333 331 330 325 328 329 326 325 325 325 323 320 318 319 318 312
305 304 306 305 305 309 310 313 312 311 311 312 314 317 318 318 319 319 320 322 324 324 325 325 324 324 325 326 328 329 329 330 325 329 326 325 325 325 322 320 318 318 317 312
309 309 308 307 307 308 309 311 313 314 314 314 313 315 315 316 314 315 316 318 322 322 322 323 323 322 323 323 324 326 328 328 329 328 327 325 324 323 321 319 318 316 312 304
312 312 313 314 313 313 312 312 314 315 316 316 314 311 313 315 314 314 314 314 313 312 313 317 323 321 321 325 322 322 323 324 324 323 324 320 323 322 322 321 318 317 311 307
312 313 314 315 316 315 314 315 316 316 317 318 317 317 317 316 316 315 315 311 311 310 310 312 314 315 318 322 323 320 320 320 320 320 322 323 322 322 320 313 317 314 312 310
311 311 312 313 314 314 314 314 314 313 315 317 315 314 314 315 315 314 308 305 307 309 308 311 311 311 313 319 321 322 321 319 318 319 319 315 316 317 318 320 319 317 315 311
302 301 303 304 307 309 310 309 312 312 312 313 313 314 313 311 311 309 308 306 307 308 309 310 311 314 313 314 316 317 319 319 319 319 316 316 316 317 317 318 317 317 318 315
299 300 300 301 302 304 305 306 305 305 305 306 305 306 307 306 307 307 306 308 307 307 309 310 311 312 313 312 316 317 318 318 317 318 319 319 320 320 318 318 320 318 315 313
298 299 299 300 300 300 299 301 302 304 305 304 303 303 302 303 303 304 307 308 307 307 308 308 309 309 311 310 311 309 309 307 307 312 314 305 310 312 311 313 315 315 315 313
296 297 297 297 296 296 297 300 301 302 303 301 301 301 300 300 300 301 304 306 305 307 306 307 308 308 308 310 310 310 309 309 307 309 306 304 302 302 302 304 306 309 313 316
293 294 295 294 294 295 297 298 297 298 299 297 298 299 300 300 301 302 301 301 300 300 299 299 301 303 304 304 306 306 307 309 308 307 307 308 307 305 304 302 301 300 300 300
295 296 296 296 297 296 297 296 295 294 295 296 295 297 298 298 298 298 299 299 298 297 297 297 297 298 298 300 302 303 303 305 302 307 306 306 305 304 303 302 301 300 300 299

GFSNGP_sfc_thetae_030.txt.gz
Theta_e
289 293 294 294 294 296 293 297 294 297 297 299 300 300 304 305 309 310 314 317 320 322 324 326 330 333 335 338 341 343 343 343 344 346 348 348 349 350 350 350 348 345 345 345
288 294 294 292 295 297 297 296 295 298 296 299 303 302 303 304 305 306 308 312 317 324 326 325 329 332 335 338 341 343 343 343 346 347 347 347 348 348 349 350 350 347 345 344
283 290 291 289 294 296 296 297 297 294 298 301 300 301 303 304 305 305 307 311 316 320 325 327 328 332 334 338 343 343 343 344 346 347 347 348 349 348 347 347 349 347 346 345
283 286 281 291 298 300 298 300 299 299 301 303 304 307 306 307 308 306 307 309 315 319 323 329 330 331 335 338 342 344 344 344 347 347 347 349 349 349 348 348 347 348 347 346
282 283 289 293 301 303 301 299 302 301 302 303 304 304 305 306 306 308 310 312 314 320 324 327 329 332 334 337 341 344 344 345 347 349 348 349 349 349 350 349 348 348 348 346
283 282 282 292 307 312 311 297 307 307 304 304 302 298 304 308 314 310 313 314 316 320 325 325 329 332 334 335 339 342 346 347 349 349 348 348 349 350 352 351 350 350 349 349
284 284 289 298 308 314 295 297 312 313 314 304 302 307 309 313 318 316 316 320 321 323 326 327 331 334 334 335 337 342 347 349 349 350 350 349 350 350 350 351 351 350 349 349
284 284 282 306 307 304 306 312 315 315 317 317 305 309 316 320 324 326 332 338 333 327 326 319 330 334 334 334 340 344 347 348 349 351 351 351 351 351 351 351 351 350 349 348
288 287 298 308 309 312 313 314 315 315 317 320 315 324 329 331 334 336 338 339 340 341 342 343 333 333 332 332 340 341 342 345 348 350 352 353 351 350 349 351 350 349 348 347
294 298 303 308 312 313 316 315 316 317 318 325 326 328 329 332 332 332 333 337 340 339 336 335 336 335 336 340 344 338 338 340 344 347 348 352 352 351 350 349 348 348 348 346
293 299 306 310 310 311 315 317 316 317 316 316 322 320 324 325 327 329 330 329 330 328 324 322 323 322 323 325 336 338 335 336 339 342 343 348 339 342 350 352 346 349 349 348
289 299 304 306 310 313 315 315 317 316 317 317 319 319 322 321 324 326 324 324 328 331 332 328 324 322 321 326 326 332 339 340 337 339 335 329 330 324 307 313 310 312 315 327
298 306 308 311 313 315 315 315 316 317 318 319 320 322 324 324 325 324 329 329 329 329 330 332 332 330 331 328 331 331 332 333 332 330 332 332 333 330 324 313 307 307 307 312
307 309 309 311 310 313 314 317 319 319 318 320 322 323 323 324 325 326 325 329 330 329 329 332 332 329 336 334 333 331 331 316 333 332 335 335 335 332 329 327 328 324 310 313
307 312 312 313 312 312 314 314 314 315 317 317 319 321 322 323 323 324 325 326 326 325 324 326 328 329 335 333 328 331 326 330 335 337 335 330 331 329 327 327 326 324 317 308
311 311 311 310 311 311 312 311 310 311 313 316 317 319 320 322 322 323 324 325 323 322 323 323 323 325 330 334 331 330 327 322 327 330 328 327 326 326 325 324 319 318 320 316
306 306 308 308 309 310 311 313 312 312 314 316 316 318 319 319 320 320 321 323 323 322 323 322 321 324 326 330 333 332 332 330 324 329 327 326 325 324 323 323 322 323 321 315
310 311 309 310 309 311 311 313 314 314 313 313 317 317 316 315 313 314 314 316 315 314 313 317 322 322 324 327 329 331 330 331 330 328 327 327 326 324 324 323 322 317 313 309
313 313 313 314 313 313 312 313 314 315 316 314 314 314 315 315 314 313 312 310 309 309 310 312 317 319 322 325 326 328 328 328 328 327 325 320 323 323 322 322 321 319 316 314
313 313 312 311 312 312 313 315 317 316 317 317 316 313 312 312 311 309 309 307 308 308 310 313 313 313 317 323 323 323 324 325 325 323 324 324 323 322 320 311 317 317 316 315
305 308 308 306 305 306 310 312 314 313 314 314 313 312 311 312 310 310 308 307 308 310 311 312 313 314 314 320 322 323 323 321 322 322 323 323 323 322 320 320 320 319 317 316
301 302 306 306 304 303 305 307 307 306 305 307 308 308 307 306 308 308 308 306 308 308 311 311 312 314 316 319 321 321 322 322 320 319 319 319 319 320 320 320 319 318 317 315
299 299 299 300 301 302 303 303 303 302 300 300 300 302 303 304 305 305 304 307 308 307 308 309 309 311 311 312 312 312 311 313 319 320 321 320 320 320 321 321 319 319 318 318
296 297 298 300 300 300 299 300 300 300 300 300 299 300 300 304 302 304 304 303 303 303 303 305 306 307 309 310 311 311 310 310 310 310 308 303 308 313 316 319 319 320 320 316
296 296 296 296 296 297 298 299 298 298 298 298 299 299 299 301 299 299 299 299 300 299 299 302 303 305 305 306 308 309 308 307 308 309 308 307 306 304 303 303 303 305 307 311
293 294 296 296 295 296 296 297 295 295 296 296 296 298 298 298 298 299 298 298 298 298 297 299 300 300 301 302 304 305 306 307 308 306 305 305 304 303 301 301 301 301 301 301
291 292 292 293 294 296 296 295 293 292 293 294 293 294 295 295 295 295 296 296 296 295 295 296 297 299 299 299 300 301 304 306 302 306 306 304 303 303 301 301 300 300 300 300

GFSNGP_sfc_thetae_033.txt.gz
Theta_e
296 296 297 297 298 299 300 303 300 302 303 307 310 312 315 318 320 321 322 325 331 333 339 342 343 345 345 346 349 350 351 352 354 357 358 358 359 359 360 360 360 361 360 360
292 295 297 296 298 299 300 300 301 303 303 311 313 315 316 317 320 321 319 323 328 334 337 338 342 343 344 346 347 351 351 350 354 357 358 358 358 359 359 359 360 360 359 359
288 294 295 292 297 299 301 303 302 299 305 310 310 312 314 315 319 321 321 323 325 327 333 339 339 343 343 345 348 350 351 352 353 356 356 357 358 359 358 358 359 359 358 358
288 291 285 298 303 303 303 304 305 305 307 310 312 316 319 320 320 321 323 324 327 324 330 339 338 337 344 346 348 349 351 352 354 354 355 356 357 357 358 359 359 358 358 358
286 288 292 295 299 304 305 304 313 309 308 310 312 314 317 319 320 322 324 326 326 326 328 339 340 343 345 346 349 350 351 352 353 352 351 356 355 356 357 357 357 358 359 359
288 284 284 297 303 310 314 299 316 317 317 313 311 307 311 322 320 320 321 324 327 327 330 332 339 340 344 343 347 349 352 353 355 356 355 356 356 357 358 358 357 357 358 360
286 286 290 299 306 315 300 303 318 320 321 321 318 315 321 324 323 324 326 327 327 329 336 339 341 342 344 346 347 351 352 353 357 358 357 358 359 360 360 357 357 356 357 359
287 285 282 302 303 299 311 318 318 320 323 323 324 326 328 325 323 330 335 334 328 333 334 338 342 345 348 350 351 353 354 356 359 360 356 356 359 357 358 358 358 356 356 355
290 290 300 304 306 311 316 315 318 322 324 325 324 325 329 324 337 341 345 345 348 348 344 343 345 348 347 348 351 353 354 356 357 359 359 361 358 356 354 358 355 354 353 352
294 296 299 301 307 309 319 320 323 324 325 324 323 329 329 336 344 346 343 345 348 347 344 342 346 349 350 352 352 352 353 356 357 356 356 360 357 351 353 354 354 354 354 351
293 297 299 302 305 310 314 319 322 322 321 321 329 332 336 340 340 339 337 336 335 334 332 333 336 337 341 348 354 350 350 350 351 353 353 357 359 358 355 359 354 355 355 355
289 299 300 303 308 314 317 317 322 319 321 325 329 330 336 335 335 336 337 339 338 338 337 336 335 335 337 340 345 352 351 347 345 346 349 352 353 342 310 309 313 315 318 342
297 301 302 306 309 314 317 321 319 318 325 326 328 327 327 326 328 326 335 336 336 332 334 336 339 339 337 342 343 342 342 343 341 338 345 344 343 342 340 327 304 305 307 308
302 302 300 303 306 317 318 321 318 321 325 328 327 328 327 327 328 330 332 335 337 338 335 332 332 333 340 341 341 340 339 319 337 339 338 339 340 340 337 334 330 318 306 311
298 301 302 307 316 318 316 318 318 320 323 324 327 327 326 325 326 328 331 332 332 331 331 333 334 333 340 337 336 335 335 336 337 333 330 328 330 329 330 331 332 325 320 312
300 302 303 308 312 313 315 315 318 321 324 323 322 324 325 327 327 327 326 327 326 325 327 329 330 333 338 339 337 336 337 323 330 332 329 327 328 326 326 324 325 324 324 320
303 306 309 308 312 313 313 314 316 317 320 321 322 323 322 319 317 318 320 322 321 320 322 325 329 336 339 338 335 333 334 335 326 339 337 333 330 327 328 324 323 324 323 319
312 312 312 312 312 314 317 318 319 320 318 319 320 320 317 315 312 313 316 319 320 320 320 323 324 332 336 338 339 337 333 332 334 332 332 331 331 330 329 327 325 321 317 311
308 309 311 314 315 315 315 315 316 319 320 320 317 312 312 312 311 313 315 314 316 316 318 321 320 326 331 328 334 337 337 333 332 333 333 324 331 329 329 327 325 321 320 320
307 306 305 306 308 312 314 316 317 315 314 313 314 312 312 312 314 316 316 312 314 314 319 320 324 326 329 330 326 332 335 335 334 332 332 330 329 327 324 315 322 321 321 324
302 302 303 303 303 303 305 307 308 307 308 310 311 310 310 310 310 313 314 311 312 314 316 316 317 323 324 327 328 329 329 330 331 332 330 329 328 330 328 326 325 322 323 323
302 302 302 302 301 301 302 302 305 306 306 307 309 310 310 312 313 310 309 309 310 308 313 314 314 314 317 320 322 323 326 328 326 324 324 325 324 323 323 325 324 321 320 319
301 302 302 302 301 301 301 302 303 304 304 304 304 307 305 305 306 305 303 304 308 306 310 310 309 311 313 315 316 315 316 318 319 317 312 314 318 320 321 321 323 322 319 318
300 301 301 302 302 302 300 301 302 303 303 303 303 304 305 304 302 303 303 302 302 304 304 305 307 308 311 315 313 312 310 312 312 312 313 306 314 316 314 309 310 316 322 320
300 300 301 301 300 299 300 302 302 302 302 301 301 302 302 302 300 301 302 302 301 304 304 303 304 305 308 311 312 308 307 307 307 309 308 308 306 307 309 309 309 310 312 312
296 297 298 299 299 299 300 300 299 299 300 299 298 299 299 300 300 300 300 299 299 299 301 302 303 305 306 306 307 308 309 307 307 306 305 306 308 304 302 304 307 308 308 307
296 294 297 298 299 298 297 297 297 297 298 297 296 297 297 297 297 297 297 299 298 298 299 300 301 302 302 303 303 303 303 304 300 306 309 308 304 304 306 307 305 306 307 309

GFSNGP_sfc_thetae_036.txt.gz
Theta_e
306 303 303 306 305 307 306 307 304 307 308 312 314 316 318 319 320 321 323 326 329 334 338 343 345 350 354 351 353 353 358 355 360 364 367 367 367 369 370 370 370 371 370 370
299 302 301 300 304 305 307 308 308 308 309 316 317 318 318 319 320 321 322 323 325 330 339 343 346 348 349 354 353 355 359 359 362 366 367 367 368 369 370 370 370 370 369 369
297 302 300 297 302 304 306 308 308 305 311 315 315 316 317 319 320 321 323 325 327 329 334 339 343 348 348 354 354 357 359 362 364 367 366 368 369 369 369 368 369 369 369 369
295 299 290 304 310 309 306 308 310 310 312 314 316 318 319 321 321 321 322 324 327 328 330 335 338 337 344 349 358 359 360 361 363 365 366 368 368 367 368 369 368 368 368 369
292 293 299 301 303 304 304 306 311 311 313 314 316 316 317 320 322 324 325 327 328 329 330 336 336 338 340 345 351 354 359 360 363 364 361 363 366 367 366 364 366 366 365 369
294 290 290 301 307 309 309 302 314 316 316 319 321 310 314 321 323 325 326 328 328 329 330 332 337 339 342 343 348 354 358 359 363 365 364 363 366 367 368 365 363 362 363 368
290 290 296 304 309 314 300 309 319 320 321 322 321 325 330 333 332 333 332 330 332 334 333 336 340 342 343 345 347 353 355 356 361 365 366 367 369 368 367 365 363 365 366 367
291 289 287 304 303 300 309 313 318 319 319 320 323 325 328 331 334 336 335 330 334 337 335 340 348 348 348 355 355 357 359 357 362 366 359 359 368 368 367 365 364 364 362 358
293 293 303 306 305 310 310 310 312 317 318 322 323 325 328 330 336 338 335 336 342 338 341 345 352 351 351 359 359 359 359 361 362 362 362 365 365 364 360 363 357 358 356 355
295 298 300 303 306 308 309 309 314 316 317 319 321 324 327 334 339 337 342 347 348 349 346 350 354 355 356 359 359 358 358 360 361 361 360 362 360 360 358 356 356 354 354 350
297 300 302 303 305 307 308 309 310 312 317 318 320 324 329 337 341 343 349 351 352 351 349 350 354 356 358 358 358 357 358 358 359 358 359 360 362 359 358 362 353 356 357 356
293 301 301 303 306 308 306 306 313 315 319 321 322 327 333 338 343 346 345 344 343 343 343 342 343 345 348 354 359 356 353 352 351 352 355 356 357 358 317 315 308 304 305 324
299 303 304 306 307 309 309 312 314 316 322 323 328 330 335 336 340 336 345 345 341 340 343 347 345 346 347 350 350 349 348 352 352 341 347 349 352 353 352 334 306 304 301 303
301 301 300 304 304 308 310 312 315 317 322 327 328 329 330 332 335 339 339 342 343 340 337 339 339 340 346 347 347 346 343 321 344 343 343 344 342 342 343 343 343 349 313 303
298 300 300 304 306 309 311 314 317 319 320 321 328 328 330 332 332 333 337 338 339 339 340 341 339 337 345 342 345 344 343 342 339 341 341 336 337 331 328 328 326 323 320 310
303 300 300 301 304 306 307 316 317 316 320 322 326 328 330 331 330 329 329 330 329 328 332 336 339 342 340 344 344 342 340 326 331 339 339 337 338 335 331 328 325 325 324 320
300 299 302 304 304 308 313 316 315 318 321 322 323 327 328 326 324 324 325 326 326 326 327 327 331 341 344 343 341 339 338 338 327 340 338 335 337 337 336 332 328 328 326 322
308 309 311 311 311 312 315 316 317 316 316 317 318 318 318 321 321 323 324 325 325 323 325 328 330 336 338 341 341 340 338 339 337 336 337 336 335 335 335 338 335 333 331 318
305 304 305 306 312 314 315 313 313 314 314 313 314 313 314 317 317 319 320 319 320 319 319 325 325 331 333 332 335 339 338 338 338 337 335 325 334 335 332 330 328 329 327 330
304 305 305 304 304 306 307 311 313 312 314 315 314 313 315 316 316 314 316 313 316 316 320 320 326 327 331 332 330 337 338 337 336 333 333 334 333 331 328 316 322 323 326 328
302 302 302 303 303 303 304 306 307 308 310 311 312 311 312 312 311 314 312 310 314 317 317 318 318 322 325 327 330 333 332 331 331 332 332 332 332 331 331 330 328 325 324 326
304 304 305 303 302 302 304 306 308 305 306 307 308 311 313 313 312 309 310 309 311 310 314 316 317 315 318 322 325 326 327 327 326 324 323 325 325 328 328 329 329 330 330 331
305 305 305 304 304 304 305 305 305 306 306 306 308 308 307 306 307 306 304 309 309 307 311 312 309 312 313 316 316 317 318 319 318 321 320 318 315 313 313 312 317 321 322 323
304 305 305 306 307 306 304 306 305 305 306 306 306 305 307 305 306 308 306 305 304 306 306 308 309 309 312 316 312 308 308 313 312 310 312 308 316 316 314 314 313 312 317 313
303 304 305 304 304 304 305 306 305 305 304 304 304 305 305 305 304 304 305 306 302 306 307 305 306 307 311 312 313 312 308 307 307 308 311 312 312 313 314 314 314 315 314 314
299 300 302 303 302 303 304 303 301 302 302 301 301 302 302 303 303 304 304 303 304 304 305 305 305 306 308 307 308 309 308 307 308 307 306 306 309 310 311 313 314 314 314 313
299 296 300 301 302 302 301 300 300 299 300 300 300 301 301 301 301 301 299 301 301 301 302 302 302 302 305 305 305 306 306 307 301 307 307 308 307 306 305 305 306 310 313 312

GFSNGP_sfc_thetae_039.txt.gz
Theta_e
309 310 310 309 308 308 308 309 306 309 310 314 316 318 320 322 324 325 327 328 330 332 337 345 349 356 359 353 357 356 360 361 363 368 371 371 371 372 373 374 374 374 372 372
306 309 308 306 309 309 309 309 310 311 311 318 320 321 320 321 321 321 323 324 328 332 335 339 343 348 354 359 357 358 362 361 365 369 371 371 372 372 374 373 374 374 373 372
301 307 306 301 307 309 310 312 311 308 313 319 318 319 319 320 321 322 323 325 327 328 330 336 341 347 348 357 360 359 361 365 365 368 369 371 373 373 372 372 373 373 372 372
299 303 295 307 314 312 310 312 314 314 316 318 319 321 322 324 323 323 324 326 328 327 330 337 336 336 347 350 363 363 364 362 367 367 369 371 372 372 373 373 372 372 372 373
296 299 303 306 309 310 308 308 314 314 315 317 318 319 319 323 324 324 325 327 329 330 330 339 334 337 340 344 356 362 362 364 364 368 368 370 370 370 372 371 371 371 372 372
298 295 295 305 310 312 313 304 315 316 316 316 318 312 315 325 330 334 335 335 335 332 331 332 336 334 336 336 343 358 361 365 368 370 370 370 371 372 373 372 370 369 369 372
294 294 300 308 312 313 301 310 318 318 319 321 320 325 330 332 332 334 337 339 339 339 335 340 342 338 346 346 345 353 361 365 369 370 371 371 372 374 373 371 367 370 369 370
294 292 291 309 307 305 311 316 316 319 321 320 323 326 328 329 331 334 336 339 340 339 340 342 344 344 353 355 358 365 364 365 367 370 366 365 372 373 374 371 369 369 368 367
296 296 307 309 308 312 312 311 312 314 316 318 319 321 324 327 329 332 338 343 342 337 343 345 348 351 357 365 371 369 367 369 370 371 370 371 370 372 366 369 362 362 360 361
297 301 303 305 308 309 310 310 311 312 314 315 314 317 321 323 328 331 339 343 344 346 346 350 353 356 358 363 365 368 368 370 370 370 368 369 364 363 361 359 359 357 357 358
297 300 303 305 307 308 309 310 310 311 313 311 313 316 321 323 329 333 340 347 351 352 352 352 357 359 359 361 363 359 361 360 362 361 363 365 365 361 360 365 350 358 357 357
295 303 304 305 308 310 309 308 310 310 310 312 318 320 323 325 332 336 344 351 350 351 351 350 352 354 359 363 362 361 358 358 357 357 360 360 360 361 316 321 306 304 304 329
299 305 305 307 309 309 309 310 310 312 314 313 316 319 324 327 334 338 347 347 347 347 348 350 349 349 351 354 357 360 359 360 352 346 352 355 355 355 353 328 303 302 303 302
300 300 298 303 304 309 310 311 311 311 313 313 314 317 323 328 331 341 344 345 346 344 344 345 346 346 350 351 353 350 346 322 349 351 352 352 351 351 354 352 351 350 313 307
301 301 299 303 305 304 309 310 310 309 311 314 318 317 325 329 331 339 342 344 344 343 342 342 340 344 347 349 349 350 347 343 345 345 345 339 342 341 341 340 337 336 336 318
308 307 304 300 300 305 306 307 310 311 313 317 320 323 325 327 331 335 337 336 336 332 335 342 343 344 347 347 345 341 340 328 333 343 342 343 340 338 335 335 334 334 333 331
302 302 301 300 303 305 307 310 309 311 319 321 323 324 326 326 325 326 327 330 332 334 337 338 340 345 345 345 345 341 339 341 332 342 338 338 338 338 336 335 337 337 334 326
306 307 306 307 307 309 310 311 312 313 313 314 315 318 320 323 320 322 323 325 328 331 333 336 340 342 342 341 341 341 342 339 338 337 337 336 336 338 337 336 334 333 334 329
305 305 307 307 308 310 311 311 312 313 312 312 311 310 311 312 315 316 318 320 321 323 327 331 327 333 337 332 335 337 337 338 338 338 337 329 336 335 334 334 331 329 330 331
305 305 305 306 307 306 305 307 307 311 310 309 308 307 307 310 312 312 312 312 315 317 321 325 330 330 332 334 331 330 329 330 333 334 334 334 334 333 330 320 326 327 329 331
304 305 305 305 305 306 306 307 307 306 309 311 308 307 307 307 308 309 308 307 311 317 318 318 320 325 326 328 329 330 330 327 328 330 331 330 332 330 331 333 332 330 329 329
306 305 305 306 306 306 309 308 306 307 307 307 307 307 308 308 308 306 306 307 310 310 314 315 314 314 317 320 321 322 320 323 325 323 324 323 322 320 320 324 326 326 325 326
305 306 306 306 307 307 307 307 307 308 307 308 309 310 309 307 306 304 303 307 308 307 311 311 310 312 312 315 314 317 316 314 316 318 320 321 319 316 314 314 316 316 315 316
303 305 305 307 306 305 305 307 307 307 308 308 308 308 306 304 305 307 306 305 305 306 306 307 308 308 311 315 313 311 311 311 309 311 312 308 316 316 316 315 314 312 313 311
301 303 304 304 304 303 305 306 305 305 305 306 306 307 306 306 305 304 305 305 303 306 306 305 306 307 310 311 311 312 310 307 307 308 307 307 313 314 315 315 314 314 313 312
300 299 303 304 303 303 303 303 302 303 303 302 303 303 304 303 303 303 304 303 303 302 303 303 303 307 307 307 307 309 309 309 310 308 307 307 307 308 310 308 308 312 313 313
301 298 302 302 302 303 302 302 301 300 300 302 301 302 302 302 302 302 300 302 302 302 302 302 302 302 303 305 305 305 306 306 301 307 309 308 309 307 305 304 302 300 301 303

GFSNGP_sfc_thetae_042.txt.gz
Theta_e
308 310 311 308 307 308 307 309 305 308 309 313 318 319 322 325 329 330 334 335 339 339 345 347 350 353 354 355 356 356 356 360 361 364 367 367 366 367 369 367 367 366 366 367
305 309 309 308 309 308 309 308 309 310 310 318 321 323 323 325 326 327 330 332 335 337 347 350 356 354 354 355 357 358 358 358 361 363 364 366 366 366 367 368 367 368 366 364
299 307 307 304 309 309 310 311 310 308 315 319 319 320 322 323 324 324 323 328 333 337 343 349 349 359 357 356 357 359 359 361 362 363 364 365 366 366 365 366 367 367 367 367
298 303 295 308 315 313 311 312 313 315 317 321 322 324 325 325 324 327 327 329 337 329 336 343 337 337 350 359 360 358 363 360 364 365 364 366 366 365 366 366 366 366 366 367
296 298 304 307 311 311 309 310 315 316 317 318 320 321 323 324 325 325 329 333 332 334 335 351 346 351 349 351 359 360 358 363 361 366 364 365 365 365 366 366 366 367 367 367
297 295 295 307 312 315 315 305 317 316 316 316 318 311 321 332 332 333 335 339 342 342 342 343 350 345 352 349 354 356 357 359 365 362 365 364 365 366 368 367 366 367 366 367
294 294 301 309 311 314 303 306 318 321 320 318 317 324 329 331 331 334 337 340 343 345 345 347 349 350 353 354 346 355 360 361 362 366 363 366 367 368 368 367 367 366 366 367
294 293 293 308 308 305 313 314 314 316 317 319 322 323 324 325 329 331 334 336 343 344 347 349 350 351 357 356 368 370 363 364 365 368 364 364 368 369 369 368 365 365 365 364
296 297 310 310 308 311 311 311 312 312 313 315 316 316 317 321 327 328 333 336 342 347 347 350 351 361 360 362 373 373 374 372 366 369 368 366 367 367 366 368 365 364 362 362
297 301 303 305 308 309 310 309 310 311 311 312 312 314 314 319 324 327 332 336 339 346 353 358 370 360 368 369 370 373 370 375 370 368 366 367 366 366 364 363 364 363 362 360
297 301 303 305 306 307 308 309 309 311 311 311 312 312 314 319 326 328 334 337 342 348 358 361 364 366 367 370 370 368 370 369 369 365 365 366 364 362 363 366 355 362 361 359
293 301 302 304 307 309 308 308 310 310 311 312 313 315 318 319 324 330 335 338 344 354 355 357 356 360 363 366 370 370 365 362 361 360 363 362 363 360 308 312 307 304 307 328
296 301 303 304 306 308 308 310 310 311 313 312 314 315 316 318 320 325 333 338 344 352 353 354 354 353 356 361 364 368 366 365 359 354 359 361 361 360 355 316 301 303 301 302
298 298 297 301 302 306 308 309 310 311 312 313 313 315 314 316 318 322 331 335 343 350 348 347 347 349 353 355 357 354 357 324 359 359 356 356 359 359 360 352 348 345 308 308
307 309 302 304 306 306 307 307 307 308 310 312 314 314 315 317 320 325 332 337 345 347 345 343 343 346 352 351 352 354 356 351 352 347 345 341 347 345 343 342 341 340 339 319
309 308 308 305 303 306 305 306 306 307 309 311 313 314 316 319 326 327 330 333 339 337 342 342 341 345 350 351 350 345 344 332 337 344 343 341 341 338 337 338 337 336 335 333
304 301 301 301 301 303 304 306 307 309 311 312 315 317 321 321 326 328 330 333 334 339 340 339 342 344 350 351 347 342 340 341 334 341 340 340 339 336 336 336 337 338 333 324
306 307 306 307 305 304 305 309 311 312 313 315 317 320 320 319 323 318 321 329 330 330 331 337 343 339 343 343 347 343 341 341 340 336 339 338 339 339 338 336 334 333 332 323
305 305 306 306 307 307 307 309 309 309 310 311 310 309 309 309 310 311 311 313 313 313 315 327 328 332 336 335 337 337 336 336 338 337 336 330 333 333 331 329 329 329 329 330
304 306 305 306 305 305 305 307 307 308 308 306 305 304 304 305 307 309 310 307 309 311 314 315 323 328 328 330 330 333 334 333 334 332 329 332 332 330 329 322 328 330 330 330
305 305 304 303 304 305 306 306 307 307 307 308 305 303 303 304 304 305 304 303 306 310 313 314 314 317 322 324 325 325 325 326 326 326 326 326 327 327 326 324 324 322 322 323
303 304 305 305 303 303 304 306 305 305 307 305 305 304 303 303 304 303 304 303 305 307 308 311 312 313 315 318 315 315 318 322 322 323 321 320 319 319 320 319 318 318 318 316
301 304 306 304 304 304 304 304 305 305 303 303 304 304 303 303 304 303 301 305 307 305 306 308 310 311 311 311 311 310 310 310 310 311 317 318 316 315 314 314 314 314 314 313
301 304 304 307 307 306 304 305 304 305 306 305 304 305 303 301 303 305 304 304 304 304 304 306 307 308 311 311 309 308 308 307 307 308 308 306 310 310 314 314 312 311 309 306
302 305 304 304 303 303 304 304 303 304 303 303 303 304 303 304 302 302 304 303 303 304 303 303 306 306 307 308 309 309 308 307 306 305 305 306 305 305 306 307 308 310 311 308
302 301 302 306 302 302 302 302 300 299 300 301 301 301 301 302 301 301 303 303 303 302 302 301 301 304 304 305 306 306 306 308 309 308 307 305 304 303 301 300 300 299 301 302
301 299 301 301 302 301 300 300 299 298 298 299 298 300 300 300 299 300 299 300 301 300 300 300 300 301 301 302 302 302 303 304 299 305 307 308 307 306 303 301 300 298 298 297

GFSNGP_sfc_thetae_045.txt.gz
Theta_e
301 303 305 305 304 304 300 300 298 300 301 306 309 313 315 317 319 322 322 330 334 337 339 342 342 342 343 344 346 349 354 356 357 359 359 359 359 360 359 355 358 356 358 357
298 304 305 304 307 306 305 304 303 303 301 311 313 316 317 317 318 319 322 327 327 332 337 341 343 343 344 344 346 348 350 354 357 359 359 359 359 359 360 360 357 359 356 357
291 302 304 298 305 305 305 306 305 300 304 311 311 315 314 315 316 316 316 318 323 326 330 340 344 346 346 347 348 347 348 350 355 357 358 359 360 360 359 360 361 358 359 357
291 298 290 302 311 311 307 308 307 306 312 312 314 317 317 317 315 317 321 322 321 327 325 326 336 347 348 349 349 349 348 349 351 355 356 358 358 358 359 360 360 361 359 360
289 294 298 304 305 305 304 306 313 313 314 316 319 322 322 327 327 327 328 330 332 333 333 334 333 331 343 349 349 350 350 351 352 355 355 356 356 358 359 359 359 359 361 361
292 291 292 298 305 307 309 299 310 313 317 315 319 312 316 325 327 327 330 332 334 334 335 334 334 336 339 344 348 347 349 353 356 356 357 356 357 358 359 360 359 360 360 361
290 290 296 300 304 311 298 300 308 308 311 312 309 313 316 322 324 328 329 329 332 336 338 336 337 335 336 334 337 348 351 352 356 357 357 359 358 360 359 359 360 359 359 361
289 290 288 303 303 297 305 308 308 307 307 309 309 310 311 315 320 322 326 329 331 331 334 339 339 335 330 337 338 348 349 350 351 356 355 358 358 359 360 360 359 358 358 359
291 291 300 303 302 305 306 304 304 305 305 307 308 309 310 310 317 320 323 328 330 330 335 338 344 338 334 339 349 348 349 352 352 354 358 352 358 357 359 359 359 358 358 358
291 295 297 302 303 304 303 304 305 305 306 306 305 308 308 309 316 318 323 325 329 332 336 344 353 351 351 353 352 350 352 350 356 356 356 355 358 360 360 360 359 358 357 357
290 294 296 301 300 302 303 304 306 308 307 306 306 307 309 310 313 314 315 325 326 331 333 344 347 353 353 355 354 354 354 358 357 356 356 356 346 333 355 359 352 358 359 357
287 293 293 294 298 301 300 301 303 305 306 310 309 306 310 310 311 311 312 312 324 328 333 344 344 345 347 350 351 352 355 356 355 354 355 356 343 326 306 306 305 306 306 333
292 297 297 298 300 301 300 302 303 305 307 307 308 310 308 308 309 312 312 311 323 325 333 338 344 342 345 346 350 348 345 353 352 347 352 354 356 350 327 314 302 300 301 302
300 302 299 299 297 302 304 305 306 307 307 308 308 310 309 307 310 311 313 314 326 330 332 339 340 341 343 344 344 345 342 328 344 349 345 351 351 352 340 329 328 318 306 307
305 307 301 302 303 304 306 306 304 303 304 306 308 308 309 308 307 309 315 325 327 328 332 342 339 339 343 344 343 343 346 343 337 337 337 336 337 337 340 338 334 328 320 309
305 305 304 302 303 306 306 305 303 303 304 304 306 307 308 312 312 314 317 323 324 324 330 337 336 338 340 341 342 340 338 330 332 335 334 334 334 332 331 330 328 328 325 324
299 299 302 301 301 303 304 304 303 304 306 306 305 307 310 311 311 313 315 318 328 325 320 321 330 338 340 341 341 335 336 334 335 338 334 333 331 330 330 330 328 326 320 314
302 303 303 305 304 304 306 307 307 306 305 308 309 311 310 310 308 310 313 315 314 313 312 314 318 328 335 337 336 339 334 335 333 331 332 332 330 329 328 326 326 324 319 316
302 301 302 303 304 304 304 304 305 305 305 308 311 308 309 310 309 307 309 308 309 308 310 313 317 324 327 329 331 335 333 330 332 330 328 325 326 326 325 325 325 327 327 327
303 302 302 302 303 303 302 304 303 302 303 304 304 304 303 304 306 306 306 303 305 310 312 311 312 315 316 323 327 329 328 328 328 328 327 326 325 325 321 316 322 322 321 321
303 302 301 301 301 302 304 303 303 301 302 302 302 302 302 303 303 304 303 302 304 309 311 311 311 311 313 314 317 323 323 322 322 321 321 320 319 318 319 318 317 316 316 316
298 302 302 302 301 301 302 303 303 301 302 303 302 302 301 301 302 303 303 302 304 307 309 310 310 311 311 312 311 311 310 313 317 316 315 315 314 313 312 312 312 312 311 310
298 300 303 303 302 302 303 303 302 302 301 300 299 300 301 301 301 300 299 303 303 304 306 307 310 309 309 308 308 308 307 307 309 309 310 311 310 309 308 307 305 305 305 304
300 302 302 305 303 301 299 300 300 301 302 302 303 301 300 300 301 304 304 305 303 302 302 305 307 309 309 308 306 306 306 306 305 305 305 302 305 304 308 308 305 303 302 299
300 303 302 299 298 300 299 298 297 296 299 298 298 298 298 299 298 301 300 300 302 301 300 304 306 305 306 308 307 306 305 305 305 305 304 303 302 302 301 300 298 300 301 301
300 299 301 302 298 298 298 297 295 295 296 296 296 297 297 297 298 297 298 299 298 299 297 298 299 299 299 299 301 300 300 303 305 304 303 303 302 300 298 297 297 296 295 295
297 297 296 296 297 298 297 296 294 294 295 295 294 296 297 297 297 297 297 297 297 297 297 296 297 298 297 297 299 299 299 299 296 300 302 302 302 301 299 298 298 298 298 297

GFSNGP_sfc_thetae_048.txt.gz
Theta_e
289 292 295 296 301 301 296 297 295 297 296 300 302 307 309 310 313 321 329 332 335 336 337 337 337 338 341 343 346 351 351 351 351 352 354 356 355 353 352 351 353 349 350 352
285 296 298 298 304 303 301 301 298 298 298 303 308 312 313 316 317 320 327 333 336 337 337 338 338 338 340 341 344 349 350 351 353 354 354 354 355 355 354 353 350 352 352 352
284 296 300 296 298 303 301 301 300 297 300 307 310 315 317 310 314 317 321 331 336 337 338 339 339 340 339 341 343 346 349 350 353 353 354 355 355 355 355 355 354 350 352 353
284 292 288 297 302 302 303 303 304 308 309 312 318 320 321 324 324 325 326 326 326 326 330 338 341 341 341 341 342 343 344 350 352 354 354 356 355 355 356 356 356 356 353 353
285 290 296 298 299 298 296 298 303 305 313 319 320 319 318 322 325 325 327 329 329 330 329 330 334 341 342 342 342 342 343 344 351 353 355 355 355 356 357 357 357 357 358 356
286 288 288 294 301 304 305 292 302 304 305 310 314 306 309 317 323 324 327 329 330 334 336 332 331 334 340 343 343 343 343 345 347 350 353 354 355 355 357 358 357 358 358 360
288 290 293 297 301 306 292 295 303 303 304 304 301 304 307 317 318 324 325 328 329 331 333 334 336 328 331 338 342 346 347 347 349 349 350 353 354 356 356 357 356 356 356 357
286 288 286 299 300 293 296 301 302 303 303 302 303 306 308 314 315 319 322 326 330 332 335 338 340 332 328 329 333 341 347 348 350 352 351 353 353 354 355 355 354 354 354 355
287 289 298 300 301 303 301 299 299 301 303 303 303 305 308 310 311 311 318 320 327 329 335 341 350 338 342 345 346 348 340 344 346 350 352 353 353 352 353 355 354 354 354 354
286 291 293 296 300 300 300 299 300 301 302 305 303 306 306 308 308 309 310 311 321 326 328 334 345 348 348 348 350 349 344 343 346 346 346 348 354 355 355 355 355 354 354 354
288 290 294 297 298 299 300 301 301 302 301 304 305 304 306 306 306 307 308 310 316 322 326 329 340 342 344 345 347 346 348 350 349 349 345 348 329 330 349 349 347 356 356 357
287 293 293 294 297 300 300 300 301 301 300 302 305 304 307 305 306 307 308 310 312 319 326 329 333 340 341 343 345 343 342 345 350 352 348 341 327 320 305 303 302 306 317 337
297 299 297 298 299 301 302 302 303 303 302 301 305 305 306 304 304 309 307 310 315 320 325 327 332 338 339 340 340 340 340 340 339 343 350 348 335 330 323 314 305 300 300 302
302 304 298 300 300 304 302 304 306 306 305 304 305 306 305 305 306 306 306 312 321 323 323 320 328 337 340 340 339 338 339 328 338 342 346 350 351 337 327 325 321 318 308 304
301 303 301 303 303 303 304 304 304 305 305 302 303 304 305 305 307 308 311 315 319 321 321 321 323 333 338 339 338 338 337 337 335 335 334 336 340 341 333 332 324 320 314 309
301 302 303 303 303 304 303 304 303 302 303 303 303 303 304 305 308 309 312 314 313 315 318 318 322 329 334 336 336 337 335 329 331 336 335 332 333 334 335 331 326 325 325 323
297 296 299 300 300 301 302 302 301 302 303 303 304 306 304 308 307 307 309 310 311 310 310 310 312 317 324 334 335 336 333 332 332 333 334 333 333 332 331 330 327 323 320 318
301 301 301 301 300 299 300 301 301 301 302 304 306 306 306 306 306 309 306 308 308 309 309 311 316 319 320 323 328 336 334 331 331 330 328 327 328 328 328 327 323 321 319 311
302 301 301 302 302 301 300 300 300 300 301 303 307 306 305 306 306 307 308 307 307 308 309 310 314 312 311 317 326 328 331 330 328 326 325 321 323 324 323 323 322 321 322 322
301 301 301 301 302 300 299 300 300 300 301 301 301 302 301 303 304 306 306 304 304 308 311 311 311 310 310 313 322 323 326 327 326 326 325 323 321 319 318 312 316 316 316 317
302 300 300 300 299 300 300 299 298 297 299 300 299 299 300 302 302 302 302 301 303 307 310 311 311 310 310 310 311 313 319 320 322 321 320 318 317 315 315 313 313 312 310 310
295 300 301 300 300 300 300 300 299 298 298 297 298 300 299 298 301 302 302 300 303 306 308 308 309 311 311 311 309 309 310 310 313 314 313 313 311 310 309 308 306 305 304 303
295 297 300 300 300 300 301 301 301 300 299 298 298 298 299 298 298 298 297 302 302 304 306 308 309 309 309 308 308 307 307 306 305 305 308 307 306 304 302 301 300 300 299 299
294 297 296 301 297 295 293 294 295 300 300 300 300 300 299 298 300 302 301 301 302 303 304 304 306 308 307 306 307 306 306 305 304 304 303 300 301 302 303 301 299 298 297 295
293 295 295 294 294 293 293 293 293 294 295 295 295 296 295 297 296 298 302 301 301 301 302 303 303 303 302 302 305 304 304 304 304 303 302 300 299 298 299 298 297 297 296 295
290 290 290 291 291 293 292 292 291 292 293 292 293 294 295 295 295 295 296 297 296 298 298 299 299 299 299 299 299 299 301 304 303 302 301 300 299 298 298 297 296 295 295 294
290 292 289 290 291 291 291 291 291 291 291 291 291 293 295 296 295 294 296 295 295 295 296 297 297 298 298 298 298 298 298 297 296 297 297 297 299 299 298 297 297 296 295 295

GFSNGP_sfc_thetae_051.txt.gz
Theta_e
287 289 290 289 289 291 292 295 294 296 293 296 300 301 304 310 310 311 317 328 331 332 333 334 335 336 339 341 344 344 343 344 344 347 349 349 348 346 347 350 350 347 347 349
285 289 289 288 291 294 295 298 295 294 295 299 308 315 318 316 310 309 318 328 331 332 334 334 335 336 338 341 343 345 344 344 346 347 349 350 350 350 347 346 349 349 346 347
280 288 292 289 295 297 298 298 298 293 297 309 313 316 316 318 317 313 322 328 330 332 334 335 336 337 337 340 343 345 345 346 347 348 347 349 352 352 350 348 348 347 349 348
280 284 287 294 300 300 297 297 299 302 307 315 315 315 316 319 320 323 324 325 330 333 335 337 338 338 338 341 342 344 346 347 349 350 350 350 350 351 352 352 350 349 347 348
280 285 294 296 297 295 294 293 299 299 302 311 316 317 314 316 321 323 326 329 328 330 333 335 338 338 338 338 340 342 344 347 348 350 350 351 351 351 352 353 353 352 352 349
285 283 288 293 298 301 301 289 298 299 299 303 311 304 306 312 319 321 327 329 330 334 330 333 334 339 337 337 338 338 342 346 349 351 351 350 353 353 353 354 353 355 355 355
285 284 292 297 298 302 288 289 298 299 299 299 300 301 305 311 310 316 320 326 333 340 336 334 328 339 338 338 338 339 341 342 345 351 351 353 354 354 354 354 355 354 354 356
287 288 287 299 299 291 293 297 297 297 297 299 301 305 307 308 307 309 310 321 326 336 341 340 329 333 331 335 334 342 343 342 342 344 349 352 352 353 353 354 353 353 353 353
286 288 297 297 300 298 299 297 297 297 298 298 302 302 305 304 305 307 309 312 322 326 335 341 346 346 345 343 345 341 341 343 345 347 347 347 350 350 351 352 351 351 351 351
287 291 292 296 298 300 299 299 301 300 300 300 299 303 304 303 304 305 307 311 317 323 324 330 339 342 342 345 346 347 347 344 343 343 345 347 349 350 349 350 350 350 350 350
289 292 294 297 299 299 300 301 303 304 302 301 301 302 303 303 303 305 306 312 315 320 322 323 332 338 339 341 342 341 343 344 345 346 341 343 332 331 346 349 343 352 352 353
287 295 295 295 299 301 299 300 302 303 302 303 303 303 305 303 303 305 305 312 318 320 320 321 323 333 337 338 339 337 336 338 337 340 345 341 328 319 305 302 300 302 310 335
296 301 302 301 301 302 300 302 305 304 304 303 304 303 304 303 304 307 307 311 315 317 318 318 319 323 334 337 337 335 333 335 336 332 342 338 331 328 324 313 302 298 298 305
301 302 300 303 301 303 304 305 305 306 306 306 305 305 305 302 305 307 307 311 315 314 314 317 319 321 326 335 336 335 334 324 335 336 338 345 337 332 326 324 325 320 307 302
299 302 300 302 303 302 304 305 303 304 306 306 306 304 304 304 301 305 309 314 313 311 312 316 318 319 325 327 333 333 334 334 333 333 332 334 345 331 328 325 323 320 319 312
299 300 300 299 299 300 300 299 299 300 302 304 305 305 305 303 302 306 310 312 310 309 313 312 312 317 317 319 325 332 333 328 327 331 330 331 337 334 332 326 323 322 323 321
296 296 297 297 298 298 298 299 299 299 300 301 303 304 306 307 304 305 306 307 308 308 308 308 310 313 316 320 324 331 332 332 328 331 330 330 330 332 332 327 326 326 324 320
300 300 300 299 298 298 297 298 298 299 299 301 306 306 306 306 306 306 308 310 310 310 310 311 312 313 312 314 319 324 330 332 330 328 327 326 325 327 327 326 323 322 320 314
300 298 299 298 297 297 297 297 297 298 299 300 301 302 303 305 307 306 307 306 305 306 308 311 314 311 308 311 322 323 327 329 327 324 323 319 322 322 321 320 320 320 322 320
298 299 299 298 299 297 296 297 298 297 298 299 298 297 299 301 302 306 305 302 303 305 309 311 312 310 307 309 318 319 324 326 325 323 323 323 322 320 317 311 316 316 314 311
298 298 298 298 298 298 298 298 297 297 298 298 297 297 297 298 300 300 300 300 303 306 309 309 310 311 311 312 313 315 318 319 321 321 320 318 317 316 314 313 310 309 307 307
295 298 298 298 298 297 298 299 299 299 298 298 298 298 298 296 297 298 300 300 303 305 306 306 307 310 311 311 309 308 308 310 309 308 307 308 307 306 304 304 303 302 302 302
293 294 298 298 297 297 299 299 299 299 298 297 297 298 298 298 298 296 296 301 302 303 302 302 304 306 308 307 307 307 306 304 303 303 302 301 300 298 298 297 297 297 296 296
292 292 294 295 293 292 291 292 296 299 299 296 295 295 296 297 299 300 300 301 302 302 301 302 302 303 304 304 304 304 304 303 302 301 300 298 299 299 298 297 295 295 295 293
289 289 288 290 290 290 289 290 291 291 292 292 292 294 295 296 292 300 299 299 301 301 300 302 302 301 300 301 303 302 301 301 300 300 299 298 298 297 297 296 296 295 294 294
287 287 287 286 288 288 288 290 289 289 290 290 292 293 294 294 294 295 297 298 298 297 297 299 300 300 299 299 298 298 298 298 299 299 298 298 297 297 296 296 296 296 295 294
287 290 288 288 288 288 288 289 289 289 290 290 291 293 293 294 293 293 295 294 295 296 296 295 297 298 297 297 297 297 296 296 295 296 297 297 299 298 298 297 296 294 291 292

GFSNGP_sfc_thetae_054.txt.gz
Theta_e
287 289 289 288 289 290 287 289 287 294 296 299 302 304 302 306 310 310 311 326 329 331 331 333 335 336 339 340 341 341 341 343 343 345 346 346 347 350 350 347 346 346 347 347
284 288 288 287 291 292 292 292 292 293 293 302 314 316 315 317 319 320 313 314 328 333 334 333 335 335 338 340 342 342 341 341 344 346 346 346 346 345 347 350 350 349 347 347
279 286 287 286 291 295 295 294 296 292 297 304 312 312 312 314 318 320 323 319 314 329 333 334 335 337 337 340 343 343 342 343 344 345 346 347 348 348 346 345 349 349 349 349
281 286 280 292 300 299 295 295 296 297 300 313 313 314 313 312 314 317 323 326 322 326 333 335 337 337 339 341 342 343 343 343 345 346 346 348 349 349 349 348 346 347 349 350
280 282 288 296 296 294 292 292 296 295 298 302 310 314 313 309 310 313 318 328 329 331 334 336 336 338 339 340 341 343 343 344 346 347 347 347 348 350 351 351 350 349 349 349
285 282 287 292 295 300 299 289 297 296 295 298 310 299 301 307 309 312 316 327 336 332 334 334 336 337 337 339 340 342 344 346 348 349 349 349 349 350 352 353 353 353 352 353
282 284 288 294 296 301 290 289 296 296 296 296 298 301 307 308 309 314 317 323 337 337 332 333 337 337 336 338 339 342 346 349 350 351 350 352 352 353 352 353 354 354 354 356
286 285 285 295 297 291 294 296 297 297 297 296 299 303 305 306 308 314 317 320 327 340 341 339 336 338 336 336 340 342 343 346 349 350 352 352 352 353 355 353 353 353 353 354
286 286 294 296 295 298 298 296 297 297 299 299 298 301 304 303 306 315 319 320 323 325 336 340 345 344 342 345 342 344 342 342 344 349 351 353 352 353 352 354 353 352 352 353
288 292 294 297 299 300 300 298 300 302 301 300 298 301 303 304 305 308 315 319 321 320 320 324 337 341 343 347 350 347 344 345 347 345 345 349 352 353 353 353 352 352 352 352
288 293 296 299 301 301 301 302 302 303 303 302 303 301 303 303 305 307 313 317 318 318 318 319 324 336 339 341 341 343 345 347 349 348 345 349 347 342 351 353 344 352 352 353
287 295 296 297 302 303 301 301 302 303 302 304 305 304 304 303 305 306 310 315 316 316 316 317 319 323 332 339 339 338 338 340 339 343 349 344 334 325 305 305 303 302 305 327
296 301 301 302 303 303 303 304 305 305 305 304 307 306 305 305 304 308 309 313 315 315 315 315 317 318 326 333 338 338 337 339 339 335 342 341 337 333 331 317 300 298 299 304
300 300 297 299 297 300 300 303 306 306 306 307 307 307 306 305 306 304 306 310 315 315 311 314 315 316 323 327 331 336 337 318 338 337 339 343 342 338 336 333 333 331 304 303
299 300 299 300 300 300 300 300 299 299 300 301 303 304 306 305 304 305 306 311 314 313 311 314 314 316 319 320 323 329 335 337 337 337 337 333 344 340 336 334 335 330 322 310
299 299 299 298 298 298 298 297 296 297 298 300 300 302 304 306 307 307 311 311 310 310 311 310 311 314 314 316 319 325 333 327 327 337 337 338 341 337 334 333 330 328 328 325
295 294 296 295 296 296 296 297 297 297 298 298 300 306 305 305 307 308 309 311 311 312 312 311 311 313 314 315 316 319 325 334 327 335 335 336 337 337 336 329 328 328 327 323
299 298 297 296 296 296 296 297 297 297 297 298 299 302 303 306 306 306 306 307 307 309 310 310 313 314 313 312 313 316 321 327 334 334 334 333 333 333 333 330 328 326 321 314
300 298 298 297 297 295 295 295 297 298 298 298 298 297 299 300 302 304 305 303 303 303 306 309 313 313 312 312 315 317 319 325 330 333 331 321 327 328 327 326 325 325 322 318
298 299 299 298 298 297 295 297 297 298 298 298 298 297 296 297 300 300 302 300 301 303 306 307 309 310 312 313 315 316 319 325 329 330 327 327 326 323 321 314 319 317 315 312
297 299 298 298 297 298 297 297 296 296 297 298 296 297 296 296 298 300 299 298 300 303 304 306 306 309 311 312 310 311 316 320 323 324 323 321 318 318 315 312 310 309 307 307
293 297 298 298 298 297 298 298 297 296 296 296 299 298 297 295 296 298 300 299 301 303 302 303 305 308 308 309 307 305 306 306 305 305 304 304 303 302 302 302 301 300 300 301
292 294 297 298 297 296 296 296 298 297 295 295 294 296 299 298 297 295 295 300 301 301 301 303 304 305 305 304 304 303 302 301 301 300 299 299 297 297 296 296 296 296 295 295
291 293 295 295 294 291 290 291 292 296 297 296 294 296 296 297 300 302 302 301 301 301 300 302 302 303 302 301 301 300 300 300 299 299 298 297 297 296 295 294 294 294 293 293
289 289 289 291 290 289 289 291 291 291 292 293 293 294 296 296 297 299 301 301 301 301 299 302 302 302 300 299 299 299 299 298 298 298 297 297 296 296 295 295 295 294 294 293
288 288 288 289 289 289 289 290 289 290 291 291 293 293 295 296 295 298 301 300 298 298 298 300 300 299 299 298 298 297 297 298 298 298 298 297 297 296 295 295 295 294 294 293
288 290 289 289 289 289 290 290 291 291 291 292 291 293 294 295 295 295 296 297 296 298 298 298 297 297 297 296 297 298 297 296 294 296 297 298 297 297 296 295 294 294 293 292

GFSNGP_sfc_thetae_057.txt.gz
Theta_e
288 289 290 290 290 293 292 297 296 301 303 309 313 314 317 319 318 320 320 325 335 338 342 344 346 348 349 349 350 349 350 350 351 354 355 356 357 357 357 357 358 359 357 356
286 289 291 288 291 293 294 296 297 299 300 308 315 321 320 322 324 326 328 329 328 338 341 343 346 345 347 349 349 351 351 351 354 355 356 356 357 357 358 357 357 358 356 356
282 290 290 287 292 294 297 299 299 298 305 311 314 318 317 317 319 322 326 330 333 331 339 343 345 346 346 348 350 350 351 352 354 356 355 356 357 358 358 358 356 356 355 356
283 286 281 294 302 302 299 299 301 302 305 310 319 319 318 317 316 318 322 325 331 336 335 346 343 344 347 348 350 350 350 352 354 355 355 356 356 356 357 358 359 359 358 359
281 284 290 297 298 298 299 296 299 299 302 305 311 320 319 314 314 317 321 328 333 338 340 336 346 348 348 349 350 350 350 351 353 355 355 356 356 357 357 356 356 356 357 358
284 281 283 291 296 300 302 295 300 301 302 304 315 313 311 310 311 318 326 331 336 344 342 336 347 348 348 347 350 349 351 353 355 355 355 356 357 358 360 359 356 355 355 358
283 281 288 292 295 300 291 294 300 302 302 303 304 306 308 309 312 322 327 331 344 342 343 348 349 347 347 348 348 352 353 353 356 358 357 359 360 360 359 358 359 359 358 360
285 282 281 294 294 293 298 301 301 303 304 304 306 307 307 308 311 316 319 325 336 344 342 346 349 349 348 349 354 356 357 355 357 359 355 355 360 359 360 360 359 360 360 359
289 288 294 297 296 300 303 301 300 302 305 305 303 303 307 308 309 313 314 315 323 336 339 346 349 349 348 352 355 357 357 358 358 359 359 362 360 359 356 359 356 356 356 356
287 292 294 298 301 303 305 303 303 305 305 306 304 304 305 307 310 311 314 314 315 317 322 332 343 347 350 354 353 354 355 357 357 357 356 360 358 357 356 356 356 355 356 356
289 294 295 296 301 303 306 306 305 306 306 305 306 307 307 307 308 312 314 316 315 314 315 317 328 338 345 348 356 353 353 352 353 353 354 357 358 355 357 361 350 357 358 359
288 296 297 296 300 302 303 305 306 306 306 307 308 308 309 308 310 312 313 315 317 316 315 316 322 326 332 339 348 348 349 352 347 356 351 353 353 342 306 308 305 305 307 329
295 299 298 299 300 301 301 302 302 302 302 303 306 307 309 309 310 311 314 315 317 317 318 319 322 323 327 331 338 343 346 346 341 340 355 350 349 350 348 325 302 300 299 303
300 300 297 298 297 300 301 301 302 302 302 302 302 305 307 310 312 312 311 316 318 318 319 319 320 321 323 325 329 333 343 321 342 344 348 352 350 348 349 351 350 348 307 305
299 300 298 299 299 299 301 300 299 299 299 300 302 303 305 307 310 313 316 318 318 318 318 317 318 319 321 322 325 328 335 343 346 347 349 345 353 352 352 353 353 352 337 316
298 298 297 297 297 297 297 297 297 297 298 298 300 305 306 307 311 315 316 316 314 312 315 314 315 317 318 319 322 324 328 324 330 344 347 350 353 350 346 346 347 348 347 346
296 295 295 295 295 296 296 297 297 297 298 298 299 302 307 310 308 307 309 311 313 313 312 313 314 317 317 319 320 322 323 328 325 341 343 343 346 350 348 344 340 341 345 335
301 300 300 298 297 296 297 297 298 298 298 299 299 300 300 301 302 303 304 305 306 308 308 310 312 314 315 318 318 318 321 324 330 334 340 341 342 345 346 343 340 338 328 323
302 300 301 300 300 298 298 298 299 299 299 299 298 297 299 300 300 302 302 301 301 301 303 307 310 313 316 318 316 317 319 321 328 332 336 331 339 342 342 341 338 336 329 327
302 303 302 302 302 301 299 300 300 300 301 299 298 297 297 299 300 300 301 299 300 301 304 306 307 310 313 316 315 318 318 320 328 332 334 336 338 339 338 322 334 332 329 328
301 304 303 303 303 304 304 303 300 299 300 302 300 297 296 298 300 299 299 297 300 303 305 306 306 307 309 310 311 312 312 311 310 313 322 327 326 326 324 321 318 316 315 315
300 302 303 302 304 303 303 304 303 301 301 300 301 301 300 299 299 298 298 298 301 303 303 303 304 305 305 306 304 303 303 302 302 301 300 300 301 301 301 303 303 304 304 304
301 302 303 302 302 300 300 300 301 303 302 301 300 300 301 300 301 299 298 300 301 302 302 302 303 303 303 301 300 300 299 299 298 298 297 296 296 295 294 294 295 295 295 295
300 300 302 302 300 298 298 298 299 300 300 300 300 301 300 299 300 302 304 302 301 300 300 301 302 302 301 300 299 299 298 298 297 297 296 295 296 296 295 294 293 293 293 292
299 299 299 299 297 297 297 298 298 299 299 300 300 301 301 301 300 302 302 302 301 301 300 300 301 301 299 298 298 298 298 298 298 297 296 296 295 294 294 293 293 293 292 292
299 298 298 298 297 297 297 298 297 298 298 297 298 300 300 301 301 302 302 301 301 300 299 299 300 301 300 299 297 296 296 296 296 296 296 296 295 294 294 293 293 292 292 292
298 295 298 298 297 298 298 297 297 297 298 298 298 300 300 301 300 301 299 301 301 301 300 299 299 298 298 298 297 297 297 297 295 296 296 296 296 295 294 294 293 293 292 292

GFSNGP_sfc_thetae_060.txt.gz
Theta_e
292 293 293 292 293 296 297 301 299 304 305 312 314 315 318 321 324 324 323 329 336 340 344 350 352 355 355 351 353 353 357 352 356 361 362 362 363 364 364 364 362 363 362 362
289 292 292 290 293 295 296 299 301 303 305 315 318 320 323 323 326 327 328 329 330 338 343 346 349 353 356 357 355 356 359 356 360 364 364 364 365 365 367 366 365 364 362 361
286 291 291 288 294 297 298 301 302 299 307 314 315 317 323 323 324 325 327 331 335 338 338 343 347 351 353 358 358 358 360 360 362 364 364 365 366 366 366 366 365 364 362 362
286 289 281 292 300 301 300 302 305 306 309 313 317 324 325 324 324 326 329 331 334 336 340 342 345 346 352 354 360 360 361 361 363 364 364 365 366 366 367 365 365 364 362 365
285 286 289 294 298 298 296 299 307 307 310 313 316 325 326 324 325 327 331 335 338 340 342 345 345 347 351 351 355 356 360 361 363 365 363 364 364 365 366 363 364 364 362 364
287 282 282 292 297 301 303 298 307 307 309 311 315 311 318 319 321 327 333 337 340 344 347 348 348 345 347 349 352 356 358 361 364 365 365 364 365 366 366 363 361 360 361 365
286 284 289 297 298 300 291 297 306 308 309 311 315 315 315 312 317 322 325 333 341 349 350 350 351 345 352 352 352 356 356 357 362 364 366 366 368 367 365 363 363 364 362 365
288 285 282 300 298 290 296 303 304 305 308 308 312 311 310 311 313 317 318 324 335 348 349 349 347 347 357 356 358 360 360 358 363 365 359 359 368 366 365 365 365 366 364 361
290 291 299 299 298 300 301 302 303 303 307 308 309 307 307 308 312 313 316 318 318 335 346 353 352 352 352 362 362 362 361 363 362 362 361 365 363 363 360 364 359 359 358 358
288 294 295 298 301 304 305 304 306 306 307 307 308 309 308 308 309 310 312 315 317 319 325 338 351 355 355 358 360 360 360 362 361 360 359 361 361 361 359 358 357 357 357 357
288 292 295 297 300 303 304 307 306 308 308 308 309 309 308 308 309 310 312 314 319 317 319 325 336 341 350 357 358 357 358 359 360 360 360 361 362 358 360 365 351 359 359 360
287 294 295 295 299 301 301 301 302 303 303 306 306 307 309 310 311 313 313 316 319 319 319 321 324 328 334 343 358 356 355 355 355 356 358 359 359 357 308 312 308 309 310 329
293 299 297 298 300 301 300 302 302 302 302 302 304 306 308 310 313 313 316 317 318 319 319 322 323 325 328 335 347 353 351 356 357 355 356 357 358 357 353 330 305 303 305 306
299 298 295 296 296 300 300 302 303 302 302 303 304 307 307 309 313 314 315 317 318 318 319 321 322 322 327 331 338 347 341 322 351 350 349 348 351 350 353 354 353 354 310 312
298 299 297 298 298 298 301 301 299 299 300 301 303 307 308 308 312 314 316 317 318 317 318 319 320 321 325 329 331 338 344 344 345 351 350 344 347 348 352 352 355 359 363 319
300 299 297 296 296 297 297 299 299 298 299 299 301 304 309 309 309 311 313 315 312 310 313 314 316 321 323 327 329 331 336 326 330 343 345 351 353 351 351 352 355 357 356 356
299 298 297 296 295 296 296 298 298 298 299 299 300 303 303 304 303 304 306 308 309 309 310 310 312 319 324 325 327 325 327 331 325 343 346 347 349 350 351 349 349 357 356 343
304 303 302 301 298 296 297 298 298 298 298 299 300 301 300 301 301 301 303 305 306 306 307 309 311 314 321 325 321 323 325 327 331 337 344 343 343 342 344 348 349 352 352 337
304 303 303 303 303 302 300 299 299 300 299 299 299 298 300 300 301 302 303 302 301 302 304 309 310 312 314 316 317 323 324 325 328 331 334 332 342 340 340 342 343 346 349 342
303 304 304 303 304 303 302 302 301 301 302 304 301 299 298 298 300 302 303 300 302 303 306 307 308 309 310 313 314 320 321 323 323 329 333 334 337 337 341 328 337 342 344 343
302 303 303 303 302 303 302 303 302 302 302 302 302 302 302 302 301 301 299 299 302 304 305 305 305 305 306 307 306 306 309 309 309 307 310 315 321 321 322 322 319 318 323 327
302 302 302 302 301 301 302 302 303 303 303 303 302 302 302 301 301 300 300 299 302 304 303 303 303 304 303 303 301 300 300 300 300 299 299 298 298 298 298 299 299 299 301 304
302 302 303 302 301 301 302 302 302 302 302 302 302 302 301 301 301 299 297 300 301 303 303 303 302 302 302 300 299 299 298 297 297 297 297 297 296 295 294 294 294 294 294 293
303 302 302 303 302 301 300 301 302 303 303 303 303 303 302 300 300 302 303 301 301 301 301 300 300 300 300 299 298 297 297 297 296 296 295 294 295 295 294 294 293 293 293 293
303 303 302 303 301 299 301 302 301 301 302 302 302 303 303 303 301 301 301 301 300 300 301 301 301 301 301 300 299 297 296 296 296 296 295 294 294 294 294 293 293 292 292 292
304 300 301 301 300 301 301 301 299 300 301 300 301 302 303 303 302 302 302 301 301 300 301 302 302 301 301 301 301 299 298 297 297 296 296 295 295 294 293 293 293 292 292 292
301 295 300 299 301 301 301 300 299 299 300 301 299 302 303 302 302 302 301 301 301 301 302 302 302 301 301 301 300 300 300 299 294 296 296 296 296 296 294 294 294 293 293 293

GFSNGP_sfc_thetae_063.txt.gz
Theta_e
295 296 297 296 297 300 300 304 301 305 306 312 315 316 319 322 325 326 327 330 333 335 343 354 356 359 358 353 356 354 356 354 357 363 363 364 363 367 367 369 369 371 370 369
292 295 296 293 296 297 300 302 303 304 305 314 316 319 320 321 324 327 330 328 331 338 342 345 351 359 359 359 357 356 358 355 359 364 364 364 364 366 369 369 370 371 369 370
288 293 294 290 294 296 297 301 302 300 307 314 314 316 321 323 326 327 329 332 335 337 340 344 348 355 357 360 359 359 361 360 361 363 363 364 365 366 367 368 371 371 370 370
288 291 282 294 300 300 299 300 304 305 308 312 314 316 319 329 328 329 331 333 335 336 339 343 345 349 354 357 362 362 360 365 363 365 365 367 367 366 368 370 369 369 370 371
285 286 290 294 300 301 301 302 305 305 308 311 313 315 318 329 329 330 334 337 339 341 342 344 344 347 352 354 362 362 364 362 365 365 366 367 366 368 369 370 369 369 370 371
288 284 282 294 301 304 306 297 310 309 309 311 314 308 313 323 325 329 332 335 339 343 346 346 348 348 346 350 355 360 364 364 367 368 369 368 369 369 371 371 369 364 367 371
288 286 290 297 301 303 293 296 305 309 310 313 312 316 319 321 324 326 329 331 331 340 350 353 353 350 350 351 354 361 364 366 369 370 370 371 372 372 372 370 366 370 369 370
290 287 283 304 302 294 302 305 306 308 310 308 311 313 314 318 319 320 324 327 328 331 342 358 356 355 357 354 361 366 366 365 368 371 366 367 372 372 372 371 369 371 369 368
292 292 302 302 301 305 306 304 303 307 307 308 309 311 312 313 315 316 319 324 324 324 330 335 352 356 359 361 369 367 367 366 368 369 369 370 370 370 365 368 361 361 359 357
292 297 297 296 302 301 304 305 305 308 308 308 308 310 308 310 312 314 318 320 321 321 323 324 330 341 349 364 369 369 367 368 368 367 366 368 364 365 361 359 359 358 358 357
290 293 293 295 298 299 302 305 306 307 307 307 308 308 309 310 312 316 318 320 319 318 319 321 323 327 332 342 356 360 365 363 365 361 361 364 364 362 360 363 351 356 353 353
286 292 293 295 298 299 299 301 303 304 302 305 305 306 308 311 313 315 317 318 319 318 318 320 321 323 325 329 334 355 356 358 357 358 359 359 360 356 311 319 309 311 309 332
292 297 296 297 298 299 299 301 303 303 303 303 306 307 307 309 314 315 317 317 317 318 319 320 320 320 322 325 329 343 357 358 358 352 358 360 359 358 355 329 309 307 310 309
299 298 293 295 295 298 300 301 303 303 303 304 305 309 309 310 314 315 315 316 317 316 316 317 318 318 321 324 327 332 344 326 356 358 358 360 359 359 358 356 354 355 318 316
298 299 297 298 298 297 299 300 299 299 300 302 305 308 309 309 310 311 314 315 314 313 312 314 315 317 323 325 326 331 335 338 341 353 354 353 356 353 354 357 355 354 347 321
300 300 299 296 296 298 297 296 296 298 299 300 301 303 305 305 305 307 308 310 308 308 309 311 313 316 320 326 324 327 333 329 332 348 350 349 348 346 346 348 351 354 351 352
299 297 298 297 297 296 297 298 297 297 298 300 300 302 302 304 303 303 304 306 307 308 309 309 311 316 320 323 322 325 331 337 334 335 345 341 339 345 345 344 347 350 350 333
304 303 303 301 299 299 298 299 300 299 298 299 300 299 300 301 301 302 303 304 305 306 306 309 311 313 316 315 317 322 325 326 328 332 342 349 345 345 341 343 347 348 351 331
304 303 302 302 302 301 301 300 302 302 302 301 300 299 300 300 302 302 303 302 301 301 303 307 310 312 310 311 313 320 322 323 325 330 335 330 341 341 340 343 343 343 349 349
303 303 303 302 303 303 301 302 302 303 302 303 304 302 300 300 300 301 303 300 301 302 304 305 308 307 308 308 310 312 314 312 314 317 319 326 327 331 340 327 333 335 338 342
303 304 303 303 302 303 303 303 303 302 304 304 302 302 302 302 300 299 298 298 303 304 303 304 304 303 303 303 303 303 304 304 303 303 308 307 308 311 314 314 315 317 319 320
304 302 303 302 302 302 303 304 303 303 303 303 304 304 303 302 301 299 299 298 301 302 303 302 302 303 302 302 299 298 298 298 298 298 298 298 297 297 296 297 298 300 299 299
304 303 303 302 302 302 303 303 303 303 303 303 303 303 303 303 301 299 297 300 301 301 302 302 302 302 302 299 298 298 297 296 296 295 295 295 295 295 294 294 294 294 294 293
305 303 303 304 303 302 301 303 304 305 304 304 304 305 303 300 301 302 302 302 301 301 301 301 302 303 302 302 301 298 297 296 296 295 295 294 294 294 294 293 293 293 293 292
305 305 304 302 302 301 303 304 303 303 304 304 305 305 305 305 301 302 302 302 300 302 303 300 303 303 303 302 302 301 300 298 297 296 296 294 294 293 293 293 292 292 292 293
305 302 303 304 302 302 301 301 300 300 301 302 303 304 304 305 303 303 303 302 302 301 301 302 302 303 303 302 302 302 301 301 300 298 297 297 296 295 294 293 293 293 293 293
303 299 302 301 305 302 301 301 300 300 301 301 301 304 304 304 304 303 302 302 302 302 303 302 302 302 302 302 301 301 302 301 297 301 301 299 299 298 297 296 295 295 294 293

GFSNGP_sfc_thetae_066.txt.gz
Theta_e
294 296 296 296 296 298 297 299 298 302 303 309 316 316 318 322 325 326 327 331 334 343 339 346 350 351 351 351 352 353 354 355 357 359 359 360 358 359 358 359 362 364 363 364
291 295 296 294 296 297 297 299 300 301 303 312 316 317 318 322 326 328 332 333 338 340 347 347 351 354 354 353 353 353 353 354 357 358 359 360 359 359 360 360 362 363 364 363
288 293 292 289 295 296 297 299 300 298 305 312 311 315 317 321 323 326 330 333 335 337 340 345 347 355 356 355 356 354 354 355 356 358 358 359 360 358 360 359 361 362 363 364
287 290 281 293 300 300 298 299 301 302 304 308 309 316 318 321 322 325 331 335 337 336 340 343 345 347 358 358 358 358 354 357 357 358 357 359 359 359 358 360 360 362 363 364
286 285 290 293 297 299 299 299 303 306 308 307 308 310 315 323 327 326 329 333 336 339 342 347 348 348 350 358 357 356 358 356 358 356 358 359 358 359 359 359 361 361 362 364
289 283 281 292 299 304 303 294 307 308 310 311 314 301 308 320 323 325 328 331 333 332 335 343 350 349 348 349 359 355 355 360 361 358 359 359 359 359 361 361 360 362 362 364
288 286 289 298 301 303 290 294 306 306 307 310 308 313 315 318 321 322 323 327 331 332 334 341 343 349 350 350 350 360 360 359 362 365 360 363 363 363 362 362 362 363 362 364
289 286 283 302 301 293 299 304 304 306 305 307 309 312 314 316 317 318 319 323 327 327 329 335 338 340 345 353 354 360 364 361 365 362 364 363 364 365 364 364 362 362 362 363
293 292 302 302 299 302 303 301 304 305 307 308 309 310 312 312 314 316 319 322 323 322 323 327 330 333 336 350 361 360 364 362 363 367 365 365 365 364 363 364 362 361 360 360
291 296 298 299 302 301 301 301 305 308 308 309 309 311 312 313 314 315 318 318 319 320 318 320 323 326 330 339 345 361 361 364 363 366 364 364 364 365 364 362 362 361 359 360
289 295 295 297 297 297 299 301 302 304 306 307 308 309 309 311 313 315 317 318 319 318 318 319 320 321 324 331 337 351 365 364 363 363 361 363 362 364 363 365 360 361 360 359
286 291 291 292 297 297 297 298 301 302 303 305 306 308 308 310 313 315 317 317 318 319 317 318 318 318 323 328 333 342 359 361 360 360 361 361 360 353 311 317 311 317 322 342
291 296 295 295 297 298 297 299 301 302 303 303 305 308 308 308 311 313 316 318 316 315 314 316 316 317 319 323 327 333 346 348 359 352 357 359 359 359 352 329 307 305 305 311
299 297 293 295 294 297 297 298 301 301 302 303 305 308 311 310 312 312 311 312 314 313 311 312 313 314 317 319 324 327 337 323 345 348 355 359 359 358 358 353 349 345 312 317
298 298 297 298 298 298 298 297 295 297 299 301 306 306 306 305 305 305 307 310 310 309 310 310 310 312 318 322 320 322 328 333 334 344 344 345 361 358 359 358 356 358 336 317
300 299 299 298 298 298 298 297 295 295 297 299 301 304 304 304 304 304 306 307 307 306 307 309 309 312 316 317 316 319 324 327 328 337 345 345 346 348 347 349 344 349 349 349
300 299 299 298 298 298 298 298 298 297 298 299 299 301 303 303 303 302 303 305 306 306 306 307 309 312 314 313 315 317 322 328 327 337 339 342 344 342 338 343 344 343 346 344
305 303 303 301 300 299 299 301 300 300 299 300 300 300 300 301 300 301 302 303 303 303 303 306 309 311 311 311 314 320 322 325 326 326 327 331 332 337 342 342 341 342 350 338
305 304 303 303 302 301 301 301 301 301 302 301 300 299 300 300 300 301 302 300 299 298 300 304 307 306 307 308 311 312 314 312 317 318 317 316 321 323 323 326 335 335 338 343
304 305 304 303 303 303 302 303 303 302 303 303 302 301 299 299 299 300 301 299 300 300 302 302 302 302 302 304 306 306 306 305 305 308 309 310 311 312 312 309 312 321 326 328
304 305 303 304 302 303 303 304 303 302 303 304 303 301 300 300 299 299 298 296 300 302 302 302 301 300 301 301 300 300 300 300 298 298 299 300 301 301 302 303 305 307 308 314
304 303 304 303 302 303 303 304 303 304 304 304 305 305 302 302 300 299 300 299 301 303 303 301 301 302 300 301 298 297 297 296 296 296 295 295 295 295 295 295 296 298 300 302
305 303 303 303 303 303 303 304 303 303 303 304 304 304 302 301 300 298 296 302 302 302 302 302 303 305 304 301 299 298 297 296 295 294 294 294 294 294 293 293 293 293 293 293
306 305 304 304 304 303 303 304 304 305 307 305 304 305 303 301 300 302 302 301 301 302 302 302 303 305 304 303 301 300 298 297 296 295 294 293 293 293 293 292 292 293 293 293
306 303 305 304 302 301 303 304 303 305 304 306 305 306 305 304 301 302 303 302 301 301 303 300 303 304 303 302 302 301 300 298 298 297 296 295 293 293 293 293 292 292 292 292
306 304 303 305 303 302 301 302 300 301 303 301 303 304 303 304 304 303 303 303 303 302 302 302 302 302 301 301 302 301 301 301 300 299 297 297 296 296 296 295 293 293 293 293
304 300 302 303 304 302 301 301 301 300 301 302 302 303 304 303 304 303 302 303 303 303 303 302 302 301 301 301 301 301 301 300 297 300 300 299 298 297 296 296 296 295 295 295

GFSNGP_sfc_thetae_069.txt.gz
Theta_e
289 292 292 292 292 294 291 292 286 291 293 298 308 309 313 318 324 326 328 329 330 331 332 338 340 342 342 346 346 351 352 353 352 352 352 353 349 346 343 353 351 352 353 355
289 293 292 290 293 294 294 294 294 294 294 301 305 311 312 314 319 322 326 331 335 335 338 340 344 338 341 344 347 348 351 353 354 353 353 352 352 351 344 346 354 352 351 354
283 290 290 285 290 292 293 296 295 290 295 300 301 303 314 320 319 322 324 325 327 331 335 338 339 340 336 339 348 348 348 352 352 353 353 352 353 351 350 345 347 351 355 355
283 285 279 289 296 296 294 296 301 302 301 307 308 311 317 321 321 320 321 324 326 327 329 335 339 338 339 342 342 345 346 348 351 352 352 353 353 351 351 352 350 350 352 355
282 281 286 290 292 296 295 294 302 301 303 305 309 311 311 315 320 319 318 321 324 327 328 332 340 342 341 342 339 337 345 348 350 351 352 352 351 352 352 352 353 351 354 355
285 279 278 289 298 302 300 288 301 301 301 302 305 300 304 312 317 317 318 319 322 325 326 328 333 336 339 331 330 332 343 350 351 351 352 351 353 352 354 352 351 354 353 356
284 284 287 296 299 301 287 288 301 301 301 302 301 305 309 312 313 314 316 318 322 321 321 324 327 328 331 335 341 346 350 352 353 351 352 353 353 353 353 353 352 351 353 354
285 282 280 298 299 291 295 298 299 300 300 301 304 307 309 311 311 312 313 318 318 317 319 321 323 322 325 327 332 337 342 352 352 354 352 354 353 354 353 353 352 351 351 353
288 289 295 298 297 299 299 296 298 298 301 304 304 305 309 309 310 312 314 316 316 314 316 318 320 320 319 322 327 330 335 347 350 355 353 353 354 353 353 353 352 352 352 352
286 292 291 295 296 297 297 297 298 301 302 304 304 307 307 309 309 311 314 314 316 315 314 315 317 319 320 322 325 327 332 344 355 355 355 353 357 356 355 354 354 353 353 353
288 291 291 294 294 296 296 298 299 301 302 303 303 305 307 307 307 309 311 313 313 314 312 313 315 316 319 320 321 323 327 340 355 355 352 356 357 357 357 358 354 355 355 355
285 292 291 291 295 297 295 296 298 300 300 302 304 303 306 305 307 310 312 314 313 313 311 310 312 313 317 319 319 321 324 338 350 355 356 357 355 343 310 314 316 318 326 345
292 295 295 296 297 298 296 296 298 299 300 300 302 303 305 306 307 309 313 312 312 311 310 309 309 312 316 317 320 320 321 327 336 345 353 355 355 354 343 324 309 304 306 320
298 297 294 295 294 298 298 297 298 298 300 302 302 304 306 307 308 307 306 308 309 309 308 308 308 309 313 317 316 317 320 319 330 341 345 348 354 354 354 341 340 338 312 311
299 299 297 298 299 298 299 298 295 295 297 299 301 302 304 303 303 304 306 307 308 306 305 306 307 308 313 314 313 314 317 321 326 332 343 338 351 354 353 347 345 340 324 317
300 299 299 297 298 298 298 298 296 295 296 298 299 300 302 303 303 303 304 305 302 301 301 304 305 308 312 310 311 313 317 321 324 332 339 340 342 342 349 349 348 336 335 335
297 296 297 297 298 298 298 299 299 298 298 298 298 300 300 301 300 300 301 302 303 301 301 302 304 307 309 308 310 315 316 320 319 322 327 328 329 337 338 339 341 340 340 334
303 302 302 300 298 298 298 300 299 299 298 299 299 299 299 298 298 300 300 301 301 300 300 301 304 304 305 306 308 308 311 313 316 315 318 322 321 322 330 335 336 336 339 322
305 304 303 303 300 300 301 300 300 301 300 301 299 298 298 298 298 300 300 299 298 297 299 301 304 302 300 306 304 305 305 308 307 309 310 312 315 315 314 317 320 330 336 334
305 306 304 305 303 301 301 302 301 301 302 301 301 300 297 298 298 298 299 297 299 300 302 301 300 300 299 301 302 299 301 300 302 300 302 302 304 305 307 306 307 307 311 315
304 304 303 302 302 304 302 301 301 301 301 302 301 299 298 298 298 298 297 296 299 302 302 302 300 299 300 299 298 296 296 297 296 296 296 296 296 296 297 299 300 303 301 300
304 302 302 302 301 302 301 301 301 302 302 302 302 301 300 298 299 299 300 298 301 303 302 301 301 303 301 300 297 296 295 295 294 294 294 294 293 293 292 293 294 294 295 296
303 303 303 301 301 300 303 300 301 302 301 302 302 301 298 297 297 296 295 299 299 301 301 300 305 305 302 299 298 297 295 294 293 293 293 293 292 292 292 292 292 292 292 292
304 301 302 304 302 301 300 303 300 303 302 302 303 302 299 297 298 299 301 301 302 301 300 300 302 305 303 299 298 297 296 296 295 294 293 293 292 292 292 292 291 292 292 292
303 303 302 302 301 297 300 301 301 302 302 302 302 301 301 301 298 299 301 301 302 300 299 302 304 304 299 299 298 297 296 296 296 295 294 294 293 292 292 292 292 292 292 292
302 302 300 302 301 299 299 299 298 299 300 299 302 302 302 301 301 301 301 301 301 301 299 298 298 297 297 298 297 298 298 296 295 295 294 295 294 293 293 293 293 293 293 292
303 300 301 301 301 300 297 298 298 296 300 300 299 301 302 303 302 301 301 300 299 300 299 299 299 298 297 297 297 297 296 296 296 295 295 294 294 293 293 293 292 292 292 293

GFSNGP_sfc_thetae_072.txt.gz
Theta_e
285 290 291 291 290 291 287 287 283 288 288 292 297 300 311 317 323 325 328 331 331 332 332 333 335 336 341 341 343 347 346 346 345 348 348 344 340 344 343 345 345 349 348 352
286 291 290 288 291 292 291 291 290 291 290 304 307 313 316 317 321 323 326 326 327 332 337 336 337 339 341 341 342 347 346 346 348 347 349 349 344 341 342 341 347 347 351 351
278 288 287 282 287 290 291 292 294 292 296 303 304 308 308 311 317 320 323 325 326 328 330 335 339 340 338 338 341 342 346 348 349 349 348 349 350 346 343 341 340 347 346 350
279 283 276 286 292 294 293 297 299 299 300 302 303 306 308 311 314 315 319 322 325 327 330 336 337 337 339 340 343 342 343 347 351 351 350 350 350 350 348 346 341 342 350 347
278 278 284 288 291 290 292 293 298 297 299 301 303 307 305 309 312 312 314 319 324 326 327 331 329 330 336 341 341 339 337 338 344 353 352 351 349 349 350 349 347 343 344 351
281 276 276 286 296 300 297 287 299 299 298 298 300 295 299 307 311 312 314 319 320 323 323 323 323 326 330 334 336 336 338 337 343 346 351 351 351 351 351 351 350 349 347 347
280 280 285 293 295 299 284 285 297 298 298 297 295 299 303 307 309 312 315 317 318 319 319 321 322 323 323 326 328 329 333 334 337 342 350 352 352 352 352 351 350 350 350 350
280 276 278 294 296 289 293 294 295 296 297 297 299 303 305 307 308 311 313 316 317 316 318 319 320 319 318 319 323 327 330 331 334 339 351 351 352 352 352 350 350 348 349 350
286 288 293 296 295 296 295 292 293 295 297 299 298 301 303 305 305 308 312 314 315 315 315 316 317 316 315 318 321 323 326 329 332 337 348 351 350 349 350 350 349 348 347 347
283 289 291 293 295 294 296 295 295 296 297 298 298 301 301 303 305 305 309 312 314 314 313 313 314 315 315 317 319 320 323 326 330 336 345 350 352 350 350 349 348 348 348 347
287 288 291 293 294 294 296 296 297 298 298 300 300 301 301 301 303 304 306 310 313 310 310 310 311 312 313 316 318 318 320 323 327 337 344 352 350 350 351 352 348 350 350 350
280 287 291 292 296 297 296 295 296 295 296 300 301 301 302 301 303 304 305 311 313 312 310 307 308 309 312 314 316 317 318 320 324 328 334 352 351 338 311 315 317 318 320 340
288 292 292 294 296 298 297 297 298 297 297 297 301 301 302 302 304 306 309 309 305 308 305 305 306 306 310 311 314 313 314 318 321 324 332 347 352 346 344 325 310 308 310 316
295 294 292 294 293 298 298 299 299 298 298 299 300 302 304 304 306 307 306 304 308 307 306 304 304 305 308 310 309 310 313 314 320 323 328 338 347 353 349 344 344 339 310 317
296 297 296 296 296 298 299 299 298 297 296 297 300 301 303 302 303 303 305 306 306 304 302 302 303 303 305 308 308 309 313 317 320 323 329 334 340 348 347 344 344 342 325 314
297 298 298 297 295 297 298 298 297 297 296 297 298 299 301 301 301 301 302 303 300 298 300 300 301 302 304 305 306 309 313 315 317 318 323 328 333 340 346 347 344 339 336 339
294 293 294 294 295 296 296 298 298 298 298 297 297 299 299 299 300 300 300 301 301 300 300 300 301 302 302 302 306 307 310 311 312 313 314 320 322 331 337 345 345 338 338 332
299 298 298 298 296 296 296 298 298 298 298 299 299 298 298 298 297 298 299 300 300 300 300 301 303 301 300 302 302 304 305 307 307 307 307 306 312 315 321 331 338 339 331 327
303 301 300 302 299 296 296 298 298 299 299 299 299 297 297 297 297 298 299 298 298 298 299 301 303 301 299 303 302 302 301 303 302 301 303 302 301 306 308 309 319 330 329 326
304 302 301 302 300 297 297 298 299 299 300 300 299 297 296 297 298 298 298 297 298 299 301 302 300 300 299 300 301 298 298 298 298 299 299 299 298 296 298 303 305 305 306 309
301 303 302 299 297 299 299 297 298 299 300 301 299 297 296 298 298 298 296 296 299 301 301 303 300 299 299 298 297 296 295 295 295 295 295 295 295 295 294 296 297 300 300 298
300 301 300 300 298 296 297 298 298 299 299 301 300 299 297 296 297 298 298 297 299 302 301 301 301 302 300 301 296 295 294 294 293 293 293 293 292 292 292 293 293 294 294 294
300 301 301 300 297 296 297 296 297 298 297 299 298 298 295 296 296 295 295 299 299 300 301 301 302 302 301 298 297 296 295 294 293 292 292 293 292 292 291 291 291 292 292 292
297 299 298 299 296 294 295 295 296 297 298 299 299 298 296 294 296 297 298 301 302 302 299 300 301 301 300 298 297 296 295 295 294 293 293 292 292 292 292 292 291 292 292 292
297 298 298 300 297 293 292 294 296 296 297 296 298 298 297 296 295 297 298 299 301 299 298 303 304 302 299 298 298 296 296 295 294 293 293 292 292 292 292 292 291 291 291 291
295 295 296 298 298 293 293 294 294 294 296 296 297 298 299 298 300 298 298 300 298 299 296 296 296 296 296 298 298 298 296 296 295 294 293 293 292 292 292 292 292 291 291 291
295 296 296 299 299 298 297 294 293 294 296 295 295 298 298 300 300 298 298 297 297 297 296 295 295 296 295 295 296 297 297 297 295 295 295 294 293 293 292 291 290 291 291 291

GFSNGP_sfc_thetae_075.txt.gz
Theta_e
284 289 289 288 288 289 285 285 283 286 286 297 301 307 309 315 320 323 323 324 327 329 331 335 334 332 334 339 339 342 340 342 342 343 341 339 339 340 341 343 342 343 345 349
283 289 288 286 288 290 289 289 288 290 290 300 303 307 307 309 314 317 321 324 325 327 332 337 337 336 337 339 341 343 342 341 343 344 344 341 338 338 340 341 342 340 342 345
277 286 285 280 285 288 288 293 291 289 294 300 300 304 305 306 307 310 313 321 322 324 326 332 333 334 335 336 338 340 343 343 344 343 343 345 343 338 337 339 340 340 342 345
277 281 275 283 290 293 295 297 297 297 298 299 300 305 306 308 307 308 311 317 320 322 322 326 328 328 331 339 338 340 340 343 345 346 343 345 347 344 340 339 339 338 339 342
278 276 282 287 290 291 289 291 297 295 297 298 299 302 305 305 308 309 311 315 317 319 321 322 322 323 328 336 338 338 338 338 342 348 347 346 346 346 346 343 341 340 339 339
278 274 276 284 294 297 295 286 297 297 296 296 297 293 299 303 306 309 313 316 316 318 319 319 320 321 324 325 329 328 332 338 341 344 349 350 349 347 349 348 346 346 343 341
278 276 283 291 294 297 283 283 295 296 295 294 292 295 299 304 306 309 311 315 316 317 317 316 318 317 318 321 320 324 328 331 334 337 341 343 348 351 350 349 349 348 346 345
282 275 276 294 294 287 290 291 293 294 294 293 295 297 299 302 305 307 308 312 315 315 315 317 316 315 314 315 319 322 324 328 330 333 338 344 346 349 351 349 348 347 347 347
283 282 293 293 292 293 293 290 291 292 293 294 294 296 298 299 301 305 306 309 313 312 314 314 314 311 310 312 316 319 320 321 325 329 333 338 346 348 349 349 348 347 346 346
283 285 289 291 293 293 292 292 296 296 294 297 296 297 297 300 301 302 304 306 309 311 312 309 311 311 311 312 314 315 318 319 321 325 328 336 344 349 348 348 347 347 347 346
281 285 287 291 292 295 295 297 297 297 297 296 296 296 298 299 300 301 302 304 307 310 308 309 309 309 310 311 313 312 314 315 319 324 325 329 336 349 349 350 347 348 347 348
281 286 286 287 292 294 295 296 297 297 297 298 297 297 299 300 301 300 301 303 306 310 309 307 307 307 309 310 310 311 309 312 316 318 322 326 333 345 313 317 316 314 315 335
287 289 290 291 293 295 296 297 297 298 298 296 297 298 299 300 301 302 301 303 308 308 307 305 304 305 307 308 310 308 308 309 314 316 321 324 328 335 347 330 307 305 307 311
292 292 290 292 291 294 298 299 300 300 300 298 297 299 300 301 302 302 302 305 308 308 304 302 301 303 305 305 306 306 308 309 314 319 320 323 327 333 342 345 342 344 315 311
293 294 293 293 294 294 298 298 298 296 297 297 298 297 298 301 301 303 305 306 305 302 300 300 299 300 303 303 305 304 306 311 315 315 318 319 325 333 339 348 347 347 335 316
295 295 295 294 295 295 294 295 295 297 297 296 296 297 298 300 300 300 301 302 300 298 298 297 300 302 302 300 301 303 306 310 312 312 314 315 320 324 330 340 344 345 341 343
293 293 293 294 294 295 294 295 297 298 296 297 296 298 298 299 299 299 299 301 301 300 300 300 300 303 299 300 301 303 303 306 309 309 310 308 311 315 318 324 336 344 342 338
298 297 298 297 295 295 295 296 296 299 297 299 299 298 297 296 296 297 298 300 300 300 300 301 301 302 300 300 302 302 302 304 305 304 305 304 303 306 310 311 314 334 333 322
302 300 301 300 299 297 296 294 296 298 300 300 299 297 297 297 297 298 299 298 297 298 299 301 303 300 298 300 302 299 300 300 301 301 301 301 301 300 300 305 304 308 317 318
302 302 302 301 301 298 295 296 297 297 300 300 299 298 296 297 297 297 298 297 297 298 301 300 300 299 299 298 300 296 297 296 296 296 297 297 298 298 297 296 301 300 300 302
300 301 300 300 298 297 297 296 299 296 300 302 298 296 295 297 298 298 296 295 298 300 300 302 300 298 299 298 296 295 294 294 294 294 294 293 294 294 296 295 295 295 297 298
299 298 298 299 298 298 297 297 295 296 297 300 299 297 295 294 296 297 298 297 300 302 300 299 300 300 298 299 296 295 294 293 293 293 292 292 292 292 292 293 294 293 293 293
297 297 297 298 297 296 295 294 295 296 296 298 298 297 296 295 295 295 295 299 299 301 300 299 300 300 299 296 295 295 294 294 292 292 292 292 292 292 291 291 292 292 292 292
295 295 295 297 296 292 293 293 294 295 296 297 297 297 294 294 296 297 298 300 301 301 299 299 299 299 298 295 294 294 294 293 293 293 293 292 292 292 292 291 291 291 292 291
295 295 295 296 295 293 292 294 294 294 295 297 295 297 297 295 295 297 297 297 301 300 299 301 299 299 297 296 295 294 294 294 293 292 292 292 292 291 291 291 291 291 291 291
292 292 293 293 294 294 292 294 293 294 294 294 295 298 299 298 298 296 296 298 296 297 298 300 299 297 297 296 296 295 295 295 295 294 293 292 292 292 291 290 291 291 291 291
295 295 293 294 293 293 294 293 293 293 294 294 294 299 297 301 299 296 296 295 295 294 294 294 295 296 296 296 297 297 296 296 294 295 294 293 293 293 292 292 291 291 291 291

GFSNGP_sfc_thetae_078.txt.gz
Theta_e
285 288 288 287 287 288 285 284 282 285 288 296 300 304 305 307 310 314 320 320 322 325 333 335 337 337 337 338 340 340 340 341 340 342 342 341 342 342 345 344 344 346 346 350
282 288 287 286 288 289 288 289 288 289 291 299 303 306 305 305 307 309 314 317 319 321 321 327 327 329 334 338 340 342 340 340 343 343 343 341 341 341 342 344 344 343 344 347
277 284 284 280 285 287 289 292 289 285 292 299 299 302 303 304 306 307 311 315 316 319 319 322 323 325 327 331 339 340 342 342 342 344 344 344 342 340 340 341 344 342 343 344
277 278 275 282 289 291 293 296 297 296 297 298 298 299 303 304 303 305 308 313 315 317 319 320 323 321 325 331 338 339 340 343 343 343 343 345 345 341 340 340 341 341 343 344
277 276 281 286 291 291 289 290 296 295 296 297 298 299 301 302 303 305 307 311 315 316 319 320 320 319 322 327 327 329 333 338 343 347 344 344 345 346 344 341 340 340 341 342
278 275 276 283 293 296 294 285 295 296 294 293 295 289 299 300 301 304 308 310 314 316 317 318 319 318 318 322 322 322 324 327 331 336 342 346 345 346 347 347 343 342 342 342
278 276 282 291 293 296 283 284 294 294 294 292 291 293 296 299 300 302 305 307 312 313 315 316 318 316 315 316 317 320 323 325 329 332 335 340 344 350 348 349 347 346 344 345
281 277 276 294 293 288 290 291 292 293 293 292 293 294 296 297 298 300 301 304 307 308 311 315 317 313 312 312 316 319 321 324 326 329 332 336 338 342 348 350 348 348 347 347
281 281 290 293 291 293 293 290 291 292 293 294 293 293 295 296 297 299 301 303 306 306 308 313 315 314 310 312 315 317 318 320 322 326 330 334 336 338 341 348 349 347 347 347
281 284 287 291 292 293 293 292 294 296 296 296 294 295 295 295 296 297 300 301 304 304 305 308 313 312 311 313 313 314 314 316 318 321 323 327 333 337 337 346 348 348 348 347
280 284 287 289 292 293 294 296 297 298 297 297 297 297 296 296 296 298 299 301 302 303 304 305 311 310 311 311 312 310 312 312 314 318 319 322 327 331 334 340 346 349 350 351
280 286 287 287 292 294 293 294 295 297 297 299 298 297 297 296 298 299 299 301 301 302 303 305 309 308 308 310 309 309 308 309 312 314 318 320 322 326 319 314 313 312 314 335
287 289 289 292 293 294 294 295 298 298 299 297 298 298 297 297 298 301 302 302 301 301 302 305 309 306 306 307 306 305 306 307 309 311 316 318 320 322 326 329 312 308 306 307
291 292 290 292 291 294 295 296 299 300 300 299 297 298 298 297 298 302 302 303 303 303 303 308 305 303 304 305 304 303 305 305 308 312 316 316 319 321 324 330 335 339 316 312
292 293 292 293 294 294 295 296 296 296 297 297 296 297 297 297 297 299 301 302 304 304 302 301 300 301 304 304 302 301 302 304 307 310 312 312 314 319 321 326 332 338 347 320
295 294 294 293 294 295 295 295 294 294 296 295 295 297 298 298 298 299 300 301 299 298 299 300 300 301 303 304 300 302 303 304 306 308 310 310 312 315 317 320 323 327 340 345
295 294 293 293 294 295 295 295 295 295 298 296 297 298 298 297 297 297 299 300 301 300 300 300 300 302 304 302 302 301 303 303 305 307 306 308 309 309 311 313 315 320 325 335
299 298 297 297 296 295 296 296 296 296 297 298 300 299 298 296 296 297 297 299 299 299 299 300 301 303 300 300 300 302 301 302 303 304 304 304 305 305 305 307 309 310 315 326
301 300 300 301 300 297 297 297 296 296 297 300 300 297 298 297 297 297 298 297 296 296 298 300 302 300 299 299 303 298 298 299 300 300 300 301 301 302 301 301 304 304 306 308
301 302 301 301 302 301 299 297 296 297 298 300 300 299 296 296 297 297 298 296 298 298 299 301 300 298 299 298 300 296 296 296 296 296 296 297 297 298 298 297 298 300 300 300
299 301 300 300 300 300 298 297 297 297 298 300 298 297 295 297 298 298 297 296 299 301 299 301 299 298 298 298 297 295 294 294 294 294 293 293 294 294 294 295 295 295 296 297
300 299 299 298 298 299 299 299 297 296 297 299 299 297 295 295 297 298 299 298 301 302 301 299 299 300 298 298 295 295 294 293 293 293 292 293 292 292 292 292 292 293 294 294
298 298 298 296 296 298 298 297 298 297 297 299 298 299 296 296 296 295 295 300 301 301 302 300 299 299 298 295 294 294 293 293 292 292 292 292 292 291 291 291 291 291 291 291
296 296 296 297 298 297 296 299 298 297 298 299 300 299 298 296 297 299 299 300 301 301 301 300 299 298 297 295 294 293 293 292 292 292 292 291 291 291 290 290 290 291 291 291
295 296 296 296 297 297 297 298 298 297 297 298 298 298 300 298 298 299 298 299 301 301 300 300 299 298 298 296 295 293 293 293 292 292 292 291 290 290 290 290 289 289 290 290
293 293 294 294 293 294 296 298 298 297 296 296 298 300 302 301 300 298 298 299 300 300 299 299 299 298 297 296 296 295 295 295 294 292 292 292 292 290 290 290 290 289 289 290
295 296 295 297 297 296 297 298 298 298 297 296 297 300 299 301 299 297 297 297 296 297 298 300 300 299 298 297 296 296 296 296 294 295 294 292 292 293 292 290 290 290 289 288

GFSNGP_sfc_thetae_081.txt.gz
Theta_e
293 293 293 292 291 292 292 293 293 294 296 303 308 310 311 315 317 318 318 318 318 319 320 324 325 329 337 343 345 346 346 346 347 352 352 350 348 354 354 354 354 355 356 356
289 292 291 290 292 292 292 293 293 294 296 305 309 311 310 311 313 314 316 317 318 319 320 320 321 322 328 334 340 347 345 345 350 351 353 352 352 351 355 354 354 354 353 355
286 290 289 287 291 291 293 296 295 291 299 305 304 305 307 309 309 310 312 315 318 318 320 321 321 321 323 329 336 344 344 347 349 351 350 352 352 352 353 353 354 353 353 354
288 288 282 290 295 295 294 298 301 301 302 302 302 303 307 306 306 308 311 313 315 318 319 321 323 322 323 327 328 332 343 345 349 350 350 352 351 351 352 351 351 352 352 355
287 286 288 290 295 295 295 294 301 301 301 301 303 304 306 306 305 305 307 311 313 316 318 320 322 323 321 322 323 324 326 332 334 337 347 350 351 351 351 350 350 350 351 353
288 283 282 290 296 299 299 290 299 300 298 298 301 298 304 304 304 304 305 307 309 312 315 317 319 322 321 316 319 318 319 323 330 335 337 338 350 353 354 354 351 350 350 353
288 287 289 295 297 300 288 292 299 299 298 298 297 299 301 303 303 304 305 306 308 310 311 313 317 319 319 318 314 318 321 321 325 330 333 337 340 344 351 354 355 354 351 353
288 287 284 299 297 293 297 298 299 298 298 297 298 299 300 301 302 303 303 305 306 307 309 312 314 317 317 318 317 317 320 320 322 326 329 333 335 339 341 343 349 354 353 352
292 293 298 300 298 300 299 297 297 297 298 298 298 298 300 300 301 302 303 304 305 306 307 310 312 314 315 318 320 315 315 318 320 323 325 330 331 334 338 342 343 348 350 349
290 294 297 298 299 299 299 298 299 299 299 299 298 298 298 300 301 301 302 303 305 305 306 307 310 312 314 318 319 318 314 315 318 319 320 325 332 333 335 340 341 343 348 347
291 292 294 296 298 299 299 299 299 300 300 299 300 300 300 301 301 302 301 303 305 304 305 306 308 310 312 316 317 316 316 315 315 315 318 320 325 328 332 336 335 338 342 349
294 298 298 297 299 300 299 299 300 300 300 302 302 301 301 300 301 301 300 302 305 306 306 307 307 308 311 316 316 312 311 312 314 314 315 316 320 322 315 312 311 307 306 314
297 298 298 300 301 302 300 300 301 301 302 302 303 301 301 300 299 300 300 302 301 302 307 309 310 309 310 315 315 312 309 308 311 310 313 315 318 321 320 321 312 308 306 305
299 298 296 298 298 301 301 302 302 303 304 304 304 302 301 300 300 299 299 300 302 302 303 307 309 309 312 311 311 310 309 306 307 309 310 314 315 317 320 320 322 327 322 313
297 298 300 301 301 300 302 302 301 302 303 304 305 302 302 299 298 299 300 302 302 302 301 302 301 302 305 306 307 306 305 307 306 307 308 311 313 315 317 321 324 324 327 325
298 299 299 297 299 301 302 302 302 302 303 304 304 303 301 302 299 299 299 301 299 299 300 300 300 301 304 305 305 304 304 304 305 305 306 309 311 312 313 317 318 321 323 327
299 298 299 299 300 302 302 304 304 304 304 304 304 302 303 301 298 298 299 300 300 299 300 300 300 302 305 304 303 303 304 304 304 304 304 307 308 309 311 311 312 315 317 321
304 305 304 303 303 303 303 304 304 305 304 305 305 303 302 297 297 297 298 299 299 299 299 301 302 303 301 302 302 302 303 302 302 303 304 305 306 307 306 307 307 309 312 313
306 305 305 305 305 305 305 305 306 305 304 305 305 303 302 300 298 298 299 298 299 299 298 301 302 300 299 300 302 301 301 301 301 301 302 301 302 303 304 304 303 305 307 306
305 307 307 307 307 307 306 307 306 304 305 306 305 304 301 300 301 301 301 298 300 302 304 302 301 298 298 300 301 298 297 297 297 298 298 298 298 298 298 297 298 300 302 301
305 305 306 306 306 307 306 306 304 304 306 306 305 303 301 302 302 302 302 300 303 304 302 302 301 299 298 298 296 296 295 295 295 295 295 296 296 296 296 296 296 296 297 298
306 305 305 305 305 305 306 306 305 305 305 306 306 305 302 301 302 303 304 303 307 302 302 302 301 300 297 297 294 293 292 293 293 293 293 293 293 293 293 293 293 293 294 294
304 305 305 305 303 304 304 304 304 304 304 306 306 306 303 302 302 301 300 305 305 304 302 301 300 299 298 295 294 293 291 290 291 292 292 292 292 292 292 291 291 292 292 292
305 305 304 305 305 304 302 304 304 304 305 306 306 307 305 304 304 305 305 303 302 302 302 300 299 298 297 296 295 293 291 290 289 290 290 291 291 291 290 291 291 291 291 291
304 303 303 303 303 304 303 303 303 302 304 306 305 305 306 306 303 304 305 304 302 303 302 300 298 298 298 297 296 295 293 291 290 289 290 289 289 290 290 290 290 291 290 289
302 302 302 301 300 300 301 303 305 303 304 303 304 306 307 307 305 303 304 302 304 303 303 302 301 300 299 297 296 296 295 295 294 291 290 290 289 288 289 290 289 289 288 289
303 300 303 301 300 300 300 304 301 301 301 302 304 306 305 307 304 302 300 302 302 303 303 304 303 301 300 299 298 297 297 296 294 295 294 293 292 291 290 289 289 288 287 288

GFSNGP_sfc_thetae_084.txt.gz
Theta_e
299 298 298 297 296 297 300 301 301 302 304 309 313 315 318 321 322 323 323 321 319 320 322 324 325 326 333 340 345 349 350 351 352 356 356 354 356 355 357 359 359 360 358 358
296 296 296 295 296 296 297 298 301 304 304 312 315 317 315 317 318 318 320 321 323 323 322 322 322 323 325 330 333 342 349 350 353 355 356 357 358 357 356 358 359 360 358 357
293 295 294 292 297 297 297 299 301 300 306 311 310 311 312 314 315 315 317 319 320 322 323 325 326 325 323 326 328 331 335 348 350 354 354 356 357 358 358 356 357 361 359 358
296 294 286 296 300 299 298 301 302 304 305 307 308 309 312 312 311 311 312 313 317 319 321 323 325 327 328 326 325 324 324 327 332 344 349 355 356 357 357 357 357 357 358 360
291 291 293 294 297 298 298 299 304 305 305 306 308 309 311 310 311 311 311 312 313 315 316 321 322 324 327 327 326 324 322 322 324 327 335 343 351 355 357 356 358 357 357 358
293 289 287 297 301 303 302 295 304 305 305 305 307 301 307 309 309 310 311 312 312 313 315 316 318 320 322 324 325 324 323 325 324 326 330 331 342 351 358 363 356 355 355 358
293 291 295 301 302 304 292 297 304 305 305 306 304 306 308 309 309 310 310 311 312 313 313 316 317 317 318 321 322 324 326 326 327 325 326 329 331 340 351 358 360 360 358 359
295 292 289 304 302 296 303 306 305 304 305 304 305 305 306 307 308 309 309 310 311 311 312 315 316 316 317 319 323 325 326 326 326 327 328 328 331 334 338 347 351 354 356 357
297 299 305 306 305 307 305 302 304 304 304 304 303 303 304 305 307 308 309 309 310 310 311 313 315 316 315 318 321 323 324 324 325 324 325 328 328 332 333 340 344 348 343 346
297 301 303 303 303 304 303 303 303 304 304 304 303 303 304 306 306 307 308 308 309 309 310 311 314 314 315 317 319 320 321 322 323 323 318 323 326 327 331 336 338 341 344 344
298 300 301 303 303 304 304 304 303 304 303 303 304 304 304 304 305 305 306 307 307 307 308 310 313 314 315 316 317 316 319 320 320 320 322 317 321 324 326 330 330 331 339 343
299 303 302 302 305 305 304 304 304 303 302 304 305 303 304 304 305 305 305 304 305 304 305 308 309 312 316 317 316 314 316 317 316 317 318 319 316 320 314 310 307 305 304 313
302 305 304 305 306 306 305 305 305 304 304 304 305 305 304 304 306 304 304 304 303 302 305 306 308 308 313 315 316 314 312 317 316 313 316 317 318 319 319 319 310 307 303 304
305 305 302 304 303 306 306 306 305 306 307 306 306 307 306 305 305 304 303 304 304 302 303 304 306 307 306 307 307 312 313 309 313 314 315 315 316 318 319 319 318 319 317 309
302 304 305 306 306 306 307 306 305 305 306 306 307 306 305 304 304 304 304 304 303 303 302 302 302 304 305 305 305 306 307 308 310 313 313 312 314 315 316 315 317 319 323 320
300 301 302 301 303 305 305 305 304 305 305 306 306 306 306 306 305 305 304 303 300 299 300 301 301 303 307 305 305 306 306 308 307 307 307 309 310 311 312 314 315 317 321 321
300 299 300 301 303 304 305 306 306 306 306 306 306 307 307 305 304 302 301 302 302 303 305 302 301 303 304 303 303 303 305 307 306 306 306 307 308 308 310 311 313 316 317 319
305 306 306 306 305 306 306 306 306 307 307 308 308 308 307 306 303 303 301 304 305 303 304 304 303 303 302 300 300 301 302 302 303 304 304 305 305 307 309 312 312 312 314 314
308 308 308 309 309 308 308 308 308 309 309 308 308 308 307 306 304 304 304 304 302 301 302 305 303 302 301 301 303 302 301 300 300 301 302 304 305 305 306 309 310 310 310 309
308 308 308 308 309 309 308 309 310 309 309 308 308 308 306 305 306 305 305 304 304 305 305 305 304 303 301 299 300 298 297 297 296 297 298 300 301 302 304 302 302 304 306 305
306 307 306 306 307 308 308 309 309 308 308 309 308 308 306 306 307 307 305 304 307 307 305 303 302 302 301 299 296 295 294 294 294 295 295 296 297 298 299 300 300 300 301 300
306 306 306 307 307 307 308 309 310 309 308 309 308 309 307 306 306 307 308 306 308 304 305 303 302 301 301 299 296 294 293 292 292 292 293 294 294 294 295 295 295 296 296 296
307 307 308 308 307 307 308 308 309 308 307 308 307 308 306 305 306 305 303 307 308 306 307 305 300 299 299 297 296 294 293 291 290 290 290 291 292 292 293 293 293 294 293 293
307 308 308 309 310 308 306 308 307 308 307 308 309 309 307 305 306 306 306 304 303 303 306 305 301 298 298 300 297 295 294 292 291 290 288 289 290 290 291 292 291 292 292 292
309 309 308 305 305 306 308 308 308 308 308 309 308 309 308 308 307 306 307 305 302 304 306 300 299 299 302 300 299 297 295 295 292 291 289 288 288 287 288 289 289 290 289 290
308 305 305 306 304 304 305 305 308 307 304 303 307 308 308 307 306 306 306 303 304 303 304 305 305 304 301 300 300 299 298 296 295 293 292 290 288 287 288 287 287 288 289 288
306 299 306 304 303 300 300 303 306 305 304 303 303 309 308 305 305 303 299 303 303 303 301 303 305 303 303 301 300 300 299 299 294 294 293 293 291 289 287 286 287 288 287 287

GFSNGP_sfc_thetae_087.txt.gz
Theta_e
302 302 303 304 303 303 304 306 303 308 311 315 318 320 321 320 322 322 322 322 322 323 325 326 327 328 331 334 340 343 348 351 348 358 359 359 360 361 360 365 364 364 364 364
300 300 300 299 300 300 303 304 306 309 309 316 320 321 320 321 321 319 320 322 325 325 325 325 326 325 326 328 331 337 340 340 347 353 355 360 361 359 360 359 364 368 364 364
296 300 298 295 300 301 302 304 307 306 312 316 316 316 317 318 318 318 319 321 322 323 324 326 327 329 326 325 326 327 328 328 336 341 342 345 355 361 362 362 362 366 366 365
296 299 290 300 305 304 302 304 308 312 314 315 315 316 315 316 315 315 315 316 318 318 320 323 325 326 330 331 327 326 325 326 328 331 336 339 344 354 360 360 359 363 362 366
295 295 297 298 301 300 301 302 307 309 310 312 312 314 312 314 314 315 315 316 317 318 319 321 322 323 325 328 330 330 328 329 327 327 328 332 338 340 351 358 362 359 360 362
297 293 290 300 304 307 305 298 308 309 309 309 309 303 310 314 313 313 314 315 316 316 318 318 320 321 321 322 325 326 328 329 331 332 329 326 328 333 339 348 356 362 360 362
296 294 298 305 305 305 294 300 309 309 310 308 307 311 312 312 312 313 313 313 315 316 316 318 319 320 320 321 321 325 326 328 330 331 332 331 330 332 333 337 344 353 359 363
297 295 292 307 304 298 307 310 309 309 308 307 308 309 309 310 310 311 312 312 313 314 315 317 318 318 318 320 323 324 325 326 328 330 329 329 332 335 334 336 338 345 354 356
299 301 310 310 308 312 311 309 308 307 308 307 306 307 307 308 309 310 311 312 313 312 313 316 317 318 316 319 321 322 322 323 326 327 328 330 328 331 329 337 337 338 342 345
302 305 306 308 308 308 307 307 307 307 307 306 306 306 307 308 308 309 310 310 311 311 311 313 315 315 317 319 320 319 320 321 322 324 324 325 327 326 325 326 330 332 333 337
302 305 306 307 306 307 306 307 306 307 307 306 306 306 307 307 307 308 308 309 310 309 309 309 311 313 315 317 319 318 318 318 319 320 322 324 326 324 324 327 322 324 326 328
301 306 306 306 309 309 307 307 307 307 306 307 307 307 307 309 309 308 308 309 309 309 309 308 307 309 312 314 316 317 316 316 316 317 318 318 319 319 310 309 307 307 303 312
305 309 308 308 310 309 308 308 309 307 307 306 308 309 308 309 309 307 309 308 308 307 308 308 308 307 308 310 311 311 314 315 316 315 317 317 318 318 317 317 306 305 302 302
309 308 305 306 306 309 309 309 307 308 308 308 308 308 308 309 308 306 307 307 308 306 306 306 307 307 308 309 310 310 310 306 309 312 315 315 316 317 317 317 317 319 309 309
306 308 307 309 308 309 310 309 307 307 308 308 309 308 308 306 306 306 309 306 307 306 305 305 305 305 308 306 306 307 306 307 309 309 311 312 314 315 315 316 317 318 320 315
302 302 305 305 306 307 308 307 306 307 308 308 308 308 307 307 309 307 308 307 304 304 305 304 304 306 307 306 305 303 305 306 307 308 309 309 310 312 314 315 315 317 318 320
300 297 299 301 303 304 305 306 307 307 308 308 308 309 308 308 306 308 306 306 306 305 306 305 305 306 305 304 303 301 301 303 304 304 304 306 307 308 310 313 313 315 317 319
307 305 306 305 304 304 306 307 307 308 308 308 309 308 308 308 307 308 307 307 305 306 305 306 306 306 305 304 301 301 302 302 302 302 302 303 303 305 306 307 311 314 316 318
308 308 308 308 309 310 310 309 309 309 310 310 309 309 309 310 309 308 308 307 305 304 304 307 304 305 303 302 302 300 299 299 299 299 300 300 301 302 303 305 306 311 312 313
309 309 309 309 310 309 307 309 310 309 310 311 309 309 309 309 309 308 307 304 306 307 308 306 306 304 304 303 301 297 296 295 295 296 296 297 297 297 299 299 301 304 307 307
307 308 307 308 308 308 308 309 308 309 311 311 308 309 309 310 309 309 307 304 309 311 309 304 305 304 303 301 298 296 295 293 293 293 294 294 294 295 296 297 299 300 301 303
308 307 307 307 308 307 309 308 309 310 310 310 310 310 310 309 308 308 309 308 310 307 307 307 305 300 301 300 299 297 296 293 292 292 291 292 292 293 293 294 295 296 297 298
307 307 306 308 306 309 310 308 308 308 309 311 311 310 311 307 306 305 305 310 308 306 305 308 301 299 300 301 300 299 296 294 293 291 291 290 290 291 291 292 293 293 294 294
308 308 308 309 308 309 308 310 308 310 310 310 310 310 308 305 305 307 308 306 303 305 305 307 303 300 299 301 301 300 300 296 294 293 292 290 289 290 290 289 290 291 292 292
309 308 308 307 306 306 309 310 310 310 309 310 311 311 309 309 306 306 308 307 302 304 305 301 301 301 303 303 302 301 299 299 297 294 292 291 289 290 290 288 288 287 288 290
307 305 304 306 304 304 304 305 307 311 310 308 309 309 307 307 308 308 307 304 306 305 304 306 307 306 305 304 303 302 302 298 298 297 293 292 291 289 288 288 288 287 287 287
305 302 303 302 305 305 303 303 304 307 305 306 306 307 306 307 308 306 304 306 306 305 305 305 305 304 303 305 304 304 303 304 297 298 296 293 291 290 288 289 288 287 286 287

GFSNGP_sfc_thetae_090.txt.gz
Theta_e
304 303 304 304 304 305 304 306 304 309 310 316 317 318 320 322 323 323 323 323 325 325 327 329 328 328 331 331 335 339 341 341 347 349 358 366 367 364 366 368 365 365 365 364
300 302 302 301 303 304 304 305 308 309 309 318 319 322 320 321 320 320 321 322 324 325 327 329 329 327 329 330 331 334 335 334 339 342 347 351 356 362 364 365 364 365 363 363
297 302 300 296 301 301 303 306 311 307 310 316 317 317 318 319 319 319 319 319 319 321 323 324 325 331 327 327 329 330 332 332 334 338 340 342 346 351 358 361 364 362 360 364
297 300 290 301 306 306 303 305 312 314 316 316 316 317 318 318 316 316 317 317 318 318 320 323 322 324 329 332 331 331 330 330 331 332 333 335 338 342 344 349 358 361 360 361
295 294 299 300 303 302 302 302 313 314 314 314 315 314 312 315 316 315 316 316 317 317 319 324 321 325 327 328 331 330 330 332 332 332 332 332 331 333 338 341 345 355 358 360
298 293 290 300 305 307 305 298 310 314 313 312 313 306 308 313 314 314 314 315 315 316 317 318 320 321 321 322 325 325 327 329 332 334 334 333 334 333 336 340 342 348 350 358
296 295 298 305 305 306 294 300 310 313 312 311 308 312 314 315 314 314 314 314 315 316 316 317 319 318 321 321 320 323 326 327 330 332 333 336 336 337 335 335 339 342 346 352
296 294 292 308 305 298 309 312 311 312 312 312 312 312 312 312 312 312 312 313 314 314 314 317 318 318 318 320 323 325 325 325 327 330 329 328 335 334 334 337 337 339 343 346
301 301 310 310 310 312 312 310 310 311 310 311 309 309 310 310 311 311 312 313 313 312 313 316 318 317 315 320 322 323 323 323 324 326 328 330 331 330 329 331 337 337 337 337
303 307 308 309 312 312 312 311 310 310 309 308 308 308 309 309 309 310 310 310 311 310 310 311 314 314 316 318 320 320 320 322 322 322 322 325 326 325 327 326 326 329 330 331
303 306 307 308 308 308 308 309 308 308 308 307 307 307 308 308 309 308 308 309 310 309 309 310 311 311 312 314 314 313 316 318 319 319 321 322 326 325 324 328 324 323 324 325
301 307 308 308 309 309 307 306 308 307 307 308 308 308 308 308 309 309 308 309 309 309 309 309 309 310 310 311 311 309 309 311 314 315 317 318 319 320 314 309 306 305 305 312
307 310 309 310 311 311 308 308 309 308 308 307 309 309 309 308 310 307 308 308 307 307 308 308 308 306 308 309 309 307 306 307 309 309 312 313 316 316 315 316 308 303 301 302
310 310 306 308 307 311 310 310 311 310 309 309 309 310 310 309 308 308 307 308 308 308 307 306 306 306 308 308 309 308 307 306 306 308 309 311 313 314 315 314 314 318 311 305
307 308 308 309 309 310 310 310 308 307 307 308 309 309 309 308 307 307 309 309 308 307 305 305 304 305 307 307 307 308 306 305 305 304 305 307 309 312 312 313 314 315 317 314
306 304 305 307 307 307 307 307 307 307 307 308 309 310 310 309 309 309 309 309 306 305 305 305 306 307 307 307 306 304 304 305 304 303 304 305 306 306 307 309 310 312 314 316
303 302 302 302 303 305 305 307 308 307 311 310 311 311 312 309 309 308 309 308 308 307 307 306 305 308 307 306 304 302 302 302 303 302 301 302 302 303 303 304 305 307 309 312
307 307 308 307 306 305 304 306 307 308 309 310 312 312 310 310 309 309 310 309 307 307 307 308 308 306 307 305 304 302 300 300 299 298 299 300 300 301 302 302 302 302 304 307
308 307 307 307 306 305 304 306 307 308 307 310 311 310 310 311 311 309 310 307 307 306 307 309 305 306 306 305 303 300 299 297 296 296 296 296 296 298 297 298 300 301 302 304
308 309 310 310 311 310 309 310 311 311 312 311 311 310 311 307 311 310 310 307 307 307 311 308 307 306 305 303 300 299 298 296 294 294 294 294 293 293 294 294 296 297 298 301
309 308 308 309 308 311 310 311 311 311 312 310 311 311 312 308 312 311 307 304 311 313 312 309 307 305 304 301 301 300 298 296 295 294 293 292 291 291 292 293 294 295 296 297
309 308 308 308 309 309 310 310 311 310 312 313 312 313 313 307 312 312 312 307 310 309 309 308 307 303 302 301 302 301 299 297 295 295 293 292 290 290 290 290 291 292 294 295
310 309 308 308 309 308 311 311 306 306 308 306 311 314 312 311 310 309 306 311 309 308 307 306 306 302 302 302 302 301 301 299 297 295 293 292 291 290 289 289 289 290 292 293
310 310 309 309 309 308 307 308 311 312 304 304 304 313 314 312 309 307 308 308 306 306 306 305 305 303 302 302 303 302 301 301 299 296 295 292 290 290 288 289 288 288 289 290
310 308 308 307 306 304 305 306 307 307 310 310 304 304 311 310 309 307 306 309 305 305 305 305 305 303 302 304 304 303 303 302 300 297 295 292 291 289 289 288 288 287 289 288
307 304 304 306 305 304 304 304 302 304 309 308 303 305 309 311 310 307 309 308 308 305 306 307 305 304 304 306 305 304 303 302 299 298 296 293 292 291 290 289 289 289 289 288
306 303 304 303 305 305 305 304 302 304 307 307 303 306 307 307 304 304 305 307 307 306 305 305 305 304 305 304 303 304 303 304 299 299 297 296 294 292 291 290 291 290 289 288

GFSNGP_sfc_thetae_093.txt.gz
Theta_e
299 302 299 299 300 301 296 305 299 304 309 313 316 315 318 319 320 320 321 322 322 323 323 324 325 327 327 330 335 335 336 339 339 343 344 343 344 352 355 354 357 355 353 354
295 301 299 297 301 302 301 309 306 308 310 318 319 319 318 319 319 318 319 320 322 323 324 323 324 325 327 328 331 331 331 334 338 339 340 340 342 344 351 351 352 353 354 355
289 298 298 291 297 298 298 308 310 305 310 317 315 315 316 316 316 314 314 315 315 316 315 315 322 325 324 324 328 329 330 331 333 334 334 335 338 339 340 341 349 350 351 349
291 295 284 294 301 302 300 309 313 313 314 316 317 317 314 313 312 312 312 312 312 314 315 315 317 318 325 327 327 327 327 328 330 332 331 332 333 334 335 337 339 342 347 352
289 287 294 299 300 299 298 308 314 313 316 313 312 310 309 313 312 311 311 310 310 313 315 315 315 316 319 321 321 320 321 323 327 329 328 330 330 332 332 334 336 339 342 345
292 290 287 295 302 305 303 301 312 311 309 309 310 302 302 310 311 310 310 309 310 312 313 313 312 314 315 316 316 316 318 319 323 324 323 325 327 328 330 331 332 337 337 342
289 289 296 301 302 303 292 296 313 312 310 309 303 306 307 309 309 309 310 309 310 311 311 311 313 313 312 314 313 316 317 318 320 321 322 321 324 324 324 326 330 332 335 338
290 287 288 306 302 298 303 306 308 309 310 307 307 308 308 308 307 308 308 309 310 309 310 311 311 311 310 309 312 315 316 316 316 317 319 321 321 323 324 323 324 329 332 335
296 296 303 307 305 307 307 305 306 306 308 308 307 306 306 305 306 307 307 307 307 306 307 308 309 308 306 309 310 311 313 314 315 315 317 318 319 317 317 320 318 324 328 327
298 303 305 306 308 308 307 305 306 306 305 306 304 305 305 304 304 304 304 304 306 305 304 305 306 307 306 306 307 306 306 308 310 312 312 313 315 317 317 315 316 317 316 317
297 304 305 306 306 305 307 307 306 306 305 305 305 305 304 303 303 303 303 304 304 303 303 303 305 305 305 305 305 303 303 304 306 307 307 309 312 312 314 315 311 308 311 316
295 302 302 305 305 306 304 304 304 303 304 305 306 304 305 304 304 303 303 303 303 303 303 303 303 302 303 304 304 303 302 303 303 303 305 307 308 309 310 307 305 302 301 303
301 305 305 306 309 307 305 305 306 305 304 302 305 305 305 304 303 305 304 302 302 301 302 302 301 303 303 303 303 303 300 301 301 302 303 303 304 306 306 309 307 304 302 302
308 305 304 307 305 308 308 308 310 307 306 305 305 306 305 304 304 303 302 302 302 303 302 301 300 300 302 302 302 301 301 304 299 299 300 300 302 303 304 305 305 307 307 305
306 307 304 305 307 308 309 307 305 304 304 304 305 305 305 304 305 303 304 303 303 302 301 300 299 299 302 301 300 298 298 297 298 297 298 300 300 301 302 303 303 305 306 306
304 304 304 304 305 305 307 308 304 305 304 305 305 305 307 306 304 304 303 303 300 300 300 299 299 301 301 301 298 297 297 303 302 297 297 297 298 298 299 300 300 301 303 304
302 300 301 302 303 304 304 305 305 305 307 306 307 308 308 306 303 303 303 303 302 301 301 301 299 301 301 300 298 297 296 295 300 295 294 295 296 296 296 297 298 299 300 302
305 305 304 305 304 304 304 306 305 306 306 308 309 308 306 306 303 303 304 303 303 301 301 304 302 301 300 299 298 295 294 293 293 293 293 293 293 293 293 294 295 295 297 299
308 307 307 307 306 305 305 304 304 306 305 307 306 306 307 306 305 306 306 304 302 300 302 304 309 304 300 301 297 294 293 292 291 291 291 293 291 291 291 291 292 293 294 295
309 309 310 309 310 307 305 305 305 304 304 305 306 305 306 305 307 306 305 303 303 303 304 304 303 301 299 300 300 294 293 292 291 291 291 292 291 290 290 291 291 291 292 293
308 309 308 309 307 308 308 309 307 304 306 307 306 305 305 306 306 305 303 303 303 306 305 309 302 302 299 299 298 294 293 292 291 291 290 289 290 290 289 289 289 290 290 291
308 307 306 307 307 305 307 308 308 307 306 304 304 303 302 305 305 304 305 305 306 309 306 304 304 306 301 304 295 295 294 293 292 292 292 289 288 290 289 289 288 289 289 289
307 307 308 306 304 307 307 307 307 308 306 304 302 303 303 303 307 303 301 306 308 307 306 304 307 309 307 297 296 296 296 295 293 292 291 290 289 290 289 288 288 288 288 287
307 307 307 307 306 305 304 306 307 306 306 306 305 305 305 305 306 305 305 308 307 306 305 303 306 307 304 297 297 297 296 296 297 293 292 293 288 290 289 288 288 288 288 288
306 305 304 304 302 301 301 301 301 301 303 304 304 304 305 306 305 306 306 305 306 305 303 306 306 305 300 297 298 298 298 297 296 294 292 289 288 290 289 288 288 288 288 288
306 304 304 303 302 302 301 301 300 300 302 302 302 303 305 306 306 306 306 305 305 305 302 302 302 301 298 298 300 300 300 299 297 294 293 291 290 291 289 289 290 289 289 288
307 302 303 303 303 302 302 302 302 303 303 303 301 304 304 305 306 304 305 306 305 305 303 302 303 303 301 301 301 301 299 299 298 297 295 293 291 292 289 290 291 291 291 290

GFSNGP_sfc_thetae_096.txt.gz
Theta_e
296 298 298 295 296 299 299 299 296 306 308 310 314 316 318 320 320 319 320 320 318 319 321 322 323 327 331 334 335 339 339 339 339 340 342 338 340 342 345 349 350 351 350 350
295 298 299 295 297 302 306 306 308 309 309 315 318 318 317 318 319 319 320 321 322 321 321 321 322 324 327 329 330 332 334 335 338 337 337 338 339 340 341 341 347 350 351 349
290 296 294 289 294 295 302 308 311 305 312 317 315 317 317 317 316 314 314 314 315 317 319 322 323 324 324 327 328 328 328 330 332 332 332 332 333 334 335 336 339 340 345 348
289 293 284 292 298 302 309 311 313 313 315 316 315 317 315 315 312 312 312 312 311 312 313 314 316 322 324 325 325 326 327 329 331 332 331 331 331 331 331 334 336 338 339 341
286 286 294 298 298 296 300 305 315 313 314 314 311 310 309 312 311 308 307 308 310 311 310 311 313 316 317 316 316 316 317 320 324 326 326 330 329 330 331 331 332 333 337 338
286 284 285 296 302 303 307 300 315 316 311 309 309 301 304 310 309 308 308 309 309 310 310 310 310 314 313 312 312 312 313 316 317 319 320 322 323 325 329 330 332 334 334 336
287 286 291 299 302 305 291 294 310 310 309 308 305 306 306 308 307 308 308 309 310 310 308 307 309 310 308 308 308 311 313 314 315 314 316 317 318 320 323 322 322 325 330 334
287 284 283 304 303 298 300 302 310 309 307 306 308 307 306 306 305 306 306 308 308 306 305 306 306 307 304 304 307 308 309 309 310 313 314 316 314 315 315 315 317 319 326 329
293 292 300 302 302 304 304 304 304 306 308 308 307 305 305 304 304 304 304 304 305 304 303 304 305 305 302 302 305 304 304 304 306 307 308 310 310 311 313 314 314 314 313 315
295 299 300 302 303 305 305 303 304 307 306 307 303 304 302 302 302 302 303 303 303 302 301 301 302 302 302 303 303 302 301 301 303 303 303 304 308 309 309 308 308 308 308 309
293 298 301 304 302 303 303 304 303 304 305 304 304 302 302 301 300 301 301 301 301 301 300 300 300 300 301 301 302 301 300 300 300 300 300 302 305 305 307 307 303 304 305 305
289 297 297 300 302 304 302 302 302 303 302 304 304 302 302 301 301 301 301 300 300 300 300 299 299 300 300 301 300 298 298 299 299 298 299 300 300 302 304 303 302 300 298 300
297 301 301 302 304 303 302 302 304 302 302 302 303 303 302 300 299 303 300 300 299 299 299 299 299 299 299 300 299 299 297 298 297 297 297 297 298 298 298 302 302 300 299 299
303 302 299 301 299 303 303 304 306 303 303 303 302 303 303 300 301 300 299 300 300 299 298 298 298 298 299 300 299 296 295 300 295 295 295 296 296 297 298 298 298 300 301 300
302 302 300 302 303 304 306 304 302 301 301 301 302 302 303 300 299 300 300 300 301 299 299 298 297 297 299 299 296 295 294 294 295 294 294 297 295 296 297 297 297 298 299 299
300 300 301 301 303 303 304 303 301 301 301 301 302 301 303 303 301 301 301 300 299 297 297 297 297 299 298 297 295 295 294 300 297 292 292 292 293 293 293 293 293 294 295 296
296 294 296 296 300 303 304 304 304 304 305 304 303 302 302 302 301 300 301 301 300 299 298 297 297 299 298 297 296 294 292 292 296 291 290 290 290 290 291 291 291 291 292 294
300 300 300 300 300 303 303 305 306 305 305 306 304 305 305 303 301 300 301 299 298 298 298 299 299 299 298 297 295 293 291 291 290 289 289 290 289 289 289 290 290 290 290 292
303 302 303 303 302 303 301 301 303 305 306 306 306 305 305 306 304 303 300 299 299 298 299 300 307 304 297 298 296 292 291 291 290 289 289 291 288 288 289 291 290 290 290 290
304 305 305 305 305 303 301 302 303 302 302 302 301 301 301 303 304 303 302 300 301 302 301 301 304 298 297 299 304 291 291 291 290 289 289 289 288 287 288 290 290 290 289 289
304 305 304 305 305 305 305 304 306 304 305 302 301 301 301 301 304 306 302 302 303 304 302 307 303 298 298 299 300 291 291 290 290 289 289 288 288 287 287 290 289 288 288 289
303 306 306 306 305 305 305 305 307 307 302 302 302 303 301 300 302 303 305 302 305 307 305 305 304 303 299 306 294 292 291 291 290 290 289 288 287 286 286 287 288 288 287 288
305 304 302 302 300 301 302 304 303 306 303 303 301 300 300 302 301 303 302 305 305 306 305 304 305 307 308 302 295 293 292 292 291 291 290 289 288 286 286 286 288 288 288 288
300 301 301 302 301 299 297 296 299 301 301 301 301 300 298 298 299 304 307 307 307 306 305 304 306 308 308 298 295 293 293 293 294 293 291 292 288 286 286 285 288 288 289 288
299 298 298 298 296 294 295 295 295 295 296 299 300 300 301 301 301 302 306 306 306 306 306 307 307 307 305 297 295 294 294 294 295 294 292 291 288 286 286 286 287 289 289 289
298 297 296 296 295 295 296 296 295 297 297 297 297 298 300 299 301 301 302 305 305 305 303 302 302 301 297 296 295 296 296 296 295 295 294 292 289 287 287 286 286 289 290 291
300 298 297 296 296 297 297 296 296 296 297 296 296 298 301 300 304 304 304 304 303 304 303 302 300 301 298 298 297 297 297 297 296 296 295 293 291 290 288 288 287 288 289 291

GFSNGP_sfc_thetae_099.txt.gz
Theta_e
296 295 296 293 294 297 293 295 296 303 308 313 315 317 317 319 319 318 318 319 321 320 321 325 328 331 333 335 339 341 339 339 338 338 340 339 338 339 340 343 347 346 345 345
293 298 297 293 296 298 305 307 306 309 309 318 318 317 316 318 318 317 317 318 320 321 322 322 325 327 328 330 332 335 336 337 338 337 337 337 336 336 336 337 339 341 345 347
287 294 294 290 293 293 303 309 310 305 310 316 314 315 315 316 318 314 315 316 317 319 321 322 323 325 325 327 329 329 330 331 331 332 331 331 332 332 332 333 335 336 338 342
290 292 285 293 297 308 309 311 311 312 314 315 315 316 316 314 312 312 313 313 313 313 316 321 322 318 318 319 319 320 322 325 326 328 330 330 330 329 330 331 331 333 335 338
285 288 295 298 298 295 299 306 314 313 314 316 315 310 309 312 313 311 311 311 310 312 314 314 314 314 314 314 315 315 315 316 318 321 325 323 322 325 328 329 330 331 334 335
286 284 285 296 300 303 309 302 317 316 314 309 310 302 305 309 310 310 309 309 310 311 311 310 308 310 310 309 310 310 311 313 314 315 316 316 319 320 324 324 324 328 330 334
285 284 290 299 304 306 290 292 316 316 311 310 307 306 306 306 308 309 309 310 309 309 307 306 306 307 305 306 306 307 309 309 309 309 312 312 314 315 315 318 319 321 327 335
284 282 282 302 302 294 297 304 310 311 310 307 306 307 306 306 305 308 307 307 307 304 304 304 304 304 301 302 304 305 305 306 305 305 307 309 308 311 312 311 311 310 311 315
290 289 297 300 298 300 303 305 306 308 309 308 307 306 306 303 304 306 306 304 304 303 302 302 302 302 300 300 302 302 302 302 302 303 304 304 305 305 307 308 307 307 308 308
293 297 298 299 301 302 305 305 307 308 308 308 306 307 304 303 303 302 302 302 302 301 300 299 300 300 300 300 301 300 299 299 299 299 300 301 304 306 305 303 303 305 305 304
292 296 298 300 301 301 303 307 308 309 309 308 306 305 304 303 302 303 301 300 300 300 299 298 298 298 299 300 299 298 298 298 297 298 297 298 299 301 302 302 301 301 301 301
290 296 295 297 300 302 301 303 304 304 304 306 305 302 303 301 301 301 300 300 299 298 297 297 298 298 298 298 298 296 296 296 296 295 295 296 296 296 301 301 300 298 297 298
296 298 299 301 303 303 300 302 304 304 304 301 302 302 301 300 299 302 299 299 299 298 297 297 297 297 298 298 297 295 294 294 293 294 294 294 294 294 294 297 299 298 297 297
301 299 298 300 299 303 303 303 305 303 303 303 302 301 301 299 300 299 299 299 299 298 297 297 296 296 298 298 295 293 292 299 292 292 293 293 293 293 294 293 293 293 296 296
300 300 298 300 301 302 302 301 300 301 301 301 302 301 300 300 299 299 299 299 299 297 297 296 296 296 297 296 294 293 293 292 291 290 291 292 291 291 291 290 290 290 292 294
297 298 299 300 300 302 304 302 298 298 300 301 302 301 301 302 301 300 299 299 297 296 296 296 296 297 298 295 294 292 293 299 294 290 289 289 289 289 289 289 289 289 290 290
294 293 294 295 299 299 302 304 302 304 304 302 302 302 301 300 299 299 298 300 300 299 298 296 296 297 297 295 294 292 291 292 296 289 289 289 289 288 288 288 287 288 288 290
299 298 298 299 299 300 303 305 306 306 305 306 305 304 301 300 299 299 300 299 297 297 297 298 297 298 297 296 294 292 290 290 289 288 288 288 288 288 287 287 287 288 288 289
301 301 301 301 300 300 303 305 305 306 307 307 307 305 302 301 300 302 301 299 300 299 299 298 305 303 296 297 296 291 290 290 289 288 289 291 288 287 287 287 287 287 288 288
302 303 303 303 303 301 300 301 301 301 301 301 303 303 305 306 307 306 303 301 301 302 305 300 303 300 297 298 305 292 291 290 289 288 289 288 288 287 287 288 287 287 287 287
302 303 303 303 304 305 304 303 301 300 300 300 299 298 299 300 301 305 303 301 302 304 304 306 304 304 299 299 305 292 290 289 289 289 288 289 288 288 286 286 286 286 286 287
303 303 305 305 304 302 304 304 303 303 302 301 301 300 299 299 299 299 303 302 305 306 305 304 305 305 302 307 299 294 291 290 289 289 288 288 287 287 286 286 285 285 285 287
304 303 305 303 301 302 301 300 301 301 301 300 300 299 298 300 300 298 298 302 304 306 305 305 306 308 308 304 297 295 292 291 291 290 290 289 288 287 286 285 285 285 284 285
299 299 299 300 299 298 297 294 295 296 298 300 300 300 298 296 296 298 300 304 305 305 305 305 306 308 308 302 298 295 293 293 292 291 290 292 289 288 287 286 285 284 285 286
298 298 299 297 296 294 294 294 294 294 295 295 297 297 298 298 298 299 299 302 305 305 305 307 307 307 306 301 297 295 294 294 293 292 291 290 291 289 289 287 286 285 285 285
296 295 296 296 294 294 294 294 294 294 295 295 295 297 298 298 297 298 299 302 303 305 306 306 306 306 305 302 299 297 295 294 294 293 293 292 291 289 289 287 286 286 286 287
296 295 294 294 294 295 296 295 294 294 295 295 295 297 298 300 301 301 303 305 305 306 305 303 305 304 302 299 296 295 295 294 294 294 294 294 292 291 290 289 288 288 287 288

GFSNGP_sfc_thetae_105.txt.gz
Theta_e
300 299 300 300 304 300 302 304 304 308 312 318 319 320 322 324 324 324 326 328 327 329 337 339 340 336 334 339 341 341 341 340 338 341 346 347 348 348 350 354 355 358 358 358
299 301 300 298 305 306 306 305 309 310 313 323 322 324 321 322 322 322 323 324 324 327 329 332 336 336 337 339 341 341 340 339 341 341 345 342 344 344 346 348 350 353 354 356
296 300 301 296 299 307 309 312 312 310 316 323 318 319 319 320 322 322 322 322 323 324 324 324 327 329 329 331 333 332 333 336 338 334 334 336 339 340 341 343 345 345 348 350
298 300 292 300 304 308 312 314 316 316 318 321 320 320 321 324 321 320 321 321 320 319 319 320 320 319 320 320 321 322 323 327 329 330 330 333 332 331 332 336 339 342 346 347
294 296 299 300 301 302 304 306 317 317 318 318 319 318 316 321 324 324 324 318 316 315 317 317 316 318 318 317 320 319 317 318 321 325 326 328 326 326 328 330 334 340 342 335
296 291 291 301 304 308 311 302 318 319 316 316 316 309 309 317 318 320 318 316 314 314 313 313 314 315 313 313 313 311 313 314 318 321 325 325 327 328 327 329 326 323 323 322
294 293 296 303 307 308 297 300 315 321 320 317 318 321 315 314 315 318 315 313 313 312 311 311 313 313 312 313 311 312 313 312 314 317 317 318 319 321 323 322 319 319 318 318
293 292 291 306 307 302 307 311 316 323 322 321 316 317 315 312 314 316 315 313 312 313 313 314 315 314 313 312 314 314 315 315 316 317 317 317 316 316 318 321 319 318 317 316
298 298 306 308 307 310 310 310 315 321 320 316 314 314 313 314 314 316 316 315 315 313 312 312 313 313 311 311 312 312 312 312 312 313 314 315 315 314 313 316 313 312 314 313
301 303 305 308 311 313 313 313 315 319 316 316 314 314 313 312 311 312 313 312 312 311 310 309 310 311 310 310 311 311 309 309 309 309 309 311 311 311 310 310 309 309 308 306
302 305 306 307 309 310 313 315 316 317 316 315 315 313 312 309 307 306 307 310 311 310 309 308 309 309 309 310 310 307 306 306 306 306 306 305 306 307 306 303 303 304 305 305
302 305 307 306 308 309 310 312 315 315 313 315 315 313 311 308 307 305 305 307 308 309 309 308 308 308 308 310 309 306 305 304 304 304 304 304 303 302 298 297 296 295 295 298
305 308 307 309 308 309 308 312 314 316 316 313 314 312 309 307 307 307 306 307 307 306 308 308 307 307 308 308 307 306 304 304 302 302 302 302 301 301 298 297 296 294 294 293
309 308 306 307 307 309 309 309 311 314 316 315 314 314 312 310 308 307 306 308 309 309 306 307 307 305 306 306 307 305 303 300 302 301 301 301 301 300 300 299 298 298 294 294
307 308 307 308 309 309 310 308 310 311 311 312 314 313 312 309 309 309 310 309 307 308 307 307 306 306 306 306 306 304 302 301 301 301 300 299 300 299 299 299 298 298 299 296
306 307 306 306 307 308 308 307 308 309 309 310 311 311 312 313 312 311 310 308 306 305 306 306 306 307 306 305 305 303 301 300 301 300 299 299 299 299 298 298 298 298 298 297
305 303 305 305 306 307 308 308 308 308 307 308 310 311 312 312 311 310 310 310 310 309 308 307 306 308 307 304 303 302 301 300 299 300 299 300 300 299 299 299 299 298 298 295
308 308 307 307 306 306 307 308 309 308 307 309 309 308 308 309 309 310 311 310 310 309 310 309 309 308 308 306 304 303 302 302 300 300 300 300 300 300 300 300 300 300 299 297
308 307 307 307 307 308 310 309 310 311 312 312 311 310 311 311 309 310 310 308 308 308 310 311 308 308 308 308 306 304 303 302 301 301 301 300 299 301 301 301 302 302 302 301
307 309 309 308 309 309 309 311 311 310 312 312 313 312 311 311 308 307 308 309 309 310 310 308 307 309 309 309 308 305 304 303 302 301 301 301 301 302 302 297 302 302 303 302
308 309 309 310 310 311 310 310 310 310 311 312 312 312 313 314 313 312 309 306 310 310 308 308 306 305 308 308 307 306 305 304 303 303 301 301 301 301 302 303 302 302 303 303
309 309 309 310 310 309 310 310 310 309 308 307 309 310 310 310 312 312 314 311 314 310 311 311 311 311 307 310 304 306 305 303 304 304 303 303 303 303 303 303 303 303 303 303
309 310 310 309 310 309 308 309 310 311 310 310 309 310 309 309 310 309 307 311 310 310 310 313 312 310 310 309 309 305 305 304 304 303 304 304 304 304 304 304 304 303 303 303
309 309 308 309 310 309 308 310 309 308 307 307 307 307 307 306 307 310 310 308 305 307 311 311 311 309 308 313 313 310 307 304 304 305 305 299 305 304 304 304 304 304 304 302
310 309 310 309 308 308 309 308 306 305 307 308 308 309 309 310 307 309 309 309 305 305 310 308 308 307 310 311 311 310 310 305 302 302 305 306 306 305 306 306 306 306 305 305
309 309 309 310 309 309 307 305 305 305 306 307 308 309 310 310 311 309 310 306 309 308 310 310 309 310 311 312 309 308 307 304 301 303 304 306 307 307 308 307 307 306 306 306
308 302 307 307 308 307 306 305 305 304 306 308 307 309 309 310 311 309 305 309 310 309 309 307 309 308 309 310 307 306 304 304 301 304 305 305 307 308 309 309 308 308 307 306

GFSNGP_sfc_thetae_108.txt.gz
Theta_e
306 305 305 305 305 306 306 308 305 307 309 317 327 328 329 330 330 332 334 334 336 341 343 343 344 341 341 342 344 344 344 350 352 356 358 357 357 358 358 360 360 360 358 359
303 304 304 303 307 308 307 308 309 310 311 326 331 330 327 327 328 329 330 331 331 333 342 343 342 342 342 340 342 344 342 341 340 344 345 350 353 354 355 355 359 360 359 358
300 304 304 300 305 309 311 313 314 308 318 328 326 324 324 326 329 327 328 330 328 326 331 340 341 341 339 343 345 343 343 341 339 340 337 339 342 347 350 351 353 353 355 355
299 304 295 305 310 311 313 316 318 319 322 327 326 326 327 329 327 327 327 324 323 322 320 329 334 339 337 338 336 334 333 335 337 337 337 335 336 338 341 347 349 352 344 344
297 298 303 304 306 307 308 310 320 320 322 325 324 324 322 328 328 328 325 324 320 318 319 320 321 323 323 322 324 324 325 327 330 330 333 336 335 337 338 335 344 337 339 337
301 295 294 304 308 312 312 306 322 323 322 321 321 314 315 328 328 325 323 317 315 316 316 315 317 319 317 317 319 317 319 324 328 329 331 332 333 336 340 334 328 327 326 324
299 297 301 308 310 312 301 305 315 323 323 321 319 324 326 327 325 324 319 316 316 313 312 314 315 315 314 314 313 314 315 320 323 328 329 332 333 337 334 326 324 322 320 319
300 295 294 311 311 307 312 317 318 323 325 321 320 322 323 323 319 321 319 318 317 312 312 315 316 317 315 314 317 319 319 318 320 323 324 325 328 330 328 325 323 324 323 322
302 303 310 313 312 317 319 318 318 324 326 323 323 322 320 321 318 316 314 315 316 313 313 316 319 319 317 317 321 322 321 321 322 323 324 325 325 325 323 325 322 320 320 318
305 309 310 311 315 317 319 320 323 325 325 324 321 319 318 320 317 316 315 312 314 314 314 313 317 319 319 319 320 319 318 318 319 319 319 319 318 319 319 319 319 317 316 315
305 310 311 312 314 316 318 321 322 322 323 323 323 319 319 321 319 319 317 317 316 316 314 315 316 316 316 317 317 315 316 315 314 314 315 314 309 311 309 304 305 313 312 310
306 312 314 312 314 315 316 318 321 321 319 321 322 319 318 316 314 312 316 316 316 316 315 315 315 314 315 316 315 313 311 311 310 310 310 309 306 302 297 297 295 294 293 299
311 315 313 314 314 314 314 317 320 321 322 321 320 319 315 310 310 310 311 314 315 314 313 313 312 313 314 314 314 313 311 310 308 308 308 307 307 304 300 297 295 294 293 293
314 314 312 312 313 314 315 315 315 320 322 322 321 316 313 313 310 312 307 310 311 312 311 310 310 310 314 313 312 312 311 303 308 307 307 307 307 307 306 305 304 301 294 296
313 314 313 315 314 315 315 314 315 317 319 320 321 319 319 314 310 312 311 312 313 311 310 309 308 308 309 309 310 309 307 306 307 307 306 306 306 305 305 305 305 304 304 296
309 309 309 308 310 311 312 312 313 316 318 318 319 321 321 319 317 317 314 313 311 309 310 310 309 310 309 308 308 307 306 305 306 305 304 305 306 305 305 305 304 304 303 303
306 306 307 306 308 309 310 312 314 314 317 318 318 320 320 320 319 319 316 315 312 313 312 311 311 312 310 309 308 306 305 305 306 305 305 305 305 305 305 305 304 304 303 297
312 312 311 310 310 309 310 313 313 314 315 316 318 318 318 318 318 318 318 317 316 315 314 314 313 312 310 308 308 307 306 305 304 304 305 305 305 305 305 305 305 305 304 300
312 310 310 311 312 312 314 313 313 314 316 317 316 316 316 316 318 318 318 316 315 315 316 317 314 312 312 310 308 307 306 305 305 305 305 304 304 305 305 305 305 305 306 305
311 311 312 312 313 314 314 315 315 315 316 316 317 316 315 316 317 317 317 315 315 315 318 318 315 313 314 313 309 309 308 307 306 305 305 305 305 305 306 301 305 306 306 306
311 311 311 312 312 313 313 315 315 314 315 317 315 314 315 316 317 317 315 312 316 314 314 315 314 311 311 312 312 310 310 309 308 307 306 304 305 305 306 307 306 306 306 306
311 310 311 312 312 312 314 314 315 315 315 315 314 315 315 315 315 316 318 316 316 311 316 316 315 312 312 312 310 310 307 306 307 309 308 307 306 305 306 307 307 307 307 307
312 311 311 312 311 312 315 315 314 314 314 314 312 313 312 311 312 310 309 315 316 313 316 317 315 312 312 315 314 314 312 305 305 305 308 309 308 307 307 307 307 308 308 308
313 312 312 314 314 313 312 313 313 312 312 312 312 313 310 307 308 310 312 309 306 308 312 312 313 310 309 315 315 313 312 312 310 307 307 301 307 307 307 308 308 308 309 307
315 315 314 313 312 311 312 313 311 310 311 311 311 311 312 313 310 311 312 312 306 307 311 309 309 308 312 313 313 313 313 315 312 312 311 306 305 305 309 308 309 309 310 309
316 314 314 315 312 310 309 309 307 308 309 308 311 311 313 313 313 311 313 307 313 310 311 310 311 311 312 312 312 313 313 313 313 311 307 305 304 305 308 308 310 311 311 311
315 308 312 311 310 309 309 308 309 308 307 309 308 310 311 312 312 309 307 310 312 310 309 309 309 310 311 312 313 312 314 314 308 310 306 305 307 306 305 308 310 314 313 313

GFSNGP_sfc_thetae_111.txt.gz
Theta_e
306 307 310 308 307 307 307 308 305 308 309 320 328 331 333 335 337 339 340 341 342 342 344 347 347 345 343 344 344 346 346 350 351 360 363 361 360 359 357 357 359 359 359 359
305 306 307 306 308 308 308 308 308 309 309 323 331 335 333 333 334 334 335 337 342 344 345 344 347 344 343 343 348 347 346 347 351 356 352 358 359 355 360 358 358 358 357 358
301 305 305 302 306 308 309 311 310 307 317 321 330 330 330 329 331 331 334 333 334 338 341 347 346 345 345 346 349 347 347 346 343 347 341 343 346 352 355 354 357 357 357 352
302 305 296 306 314 313 312 314 317 317 322 328 331 332 331 333 333 332 332 330 331 326 333 340 344 345 343 345 344 347 344 343 342 340 337 337 338 338 340 345 352 353 347 344
299 301 300 304 310 309 310 312 320 320 324 329 330 329 326 331 334 333 331 328 326 324 322 326 333 338 339 342 339 335 331 333 338 340 340 339 335 334 337 342 339 341 341 333
302 298 291 301 310 314 314 306 315 323 324 325 324 320 322 330 329 329 330 325 319 319 319 319 321 329 326 324 325 323 327 329 332 334 334 338 341 342 344 339 334 330 324 324
300 299 303 310 309 313 300 306 317 323 325 324 321 326 331 328 328 326 321 317 318 317 314 315 317 318 315 315 314 317 319 326 331 334 336 337 338 339 334 328 327 325 320 318
302 295 295 314 312 306 314 318 319 323 326 326 322 328 326 323 324 319 316 315 314 313 315 317 317 315 315 315 318 319 320 321 324 330 330 333 336 334 330 325 323 321 322 325
305 305 313 315 315 318 320 320 322 322 326 328 326 324 321 321 321 318 318 316 316 314 314 317 320 318 314 319 323 323 321 321 323 325 327 331 331 331 327 329 329 329 327 324
307 311 312 313 316 318 320 321 324 325 326 327 324 323 320 321 320 321 321 320 318 317 315 314 320 318 319 319 323 324 322 323 324 324 324 326 325 326 325 324 324 323 322 320
307 313 313 314 316 317 318 321 323 326 325 324 324 322 319 319 318 316 314 314 317 317 317 315 318 317 318 321 322 321 321 320 321 319 321 313 306 308 312 303 300 318 314 313
305 314 315 315 317 316 316 318 321 322 323 324 323 321 321 317 317 316 314 315 315 315 316 316 316 316 318 321 320 318 316 316 315 316 315 314 309 302 296 296 295 294 294 300
312 317 313 317 317 317 316 318 320 321 324 322 322 320 314 312 313 314 317 318 316 314 315 316 315 314 317 317 317 317 315 314 312 312 312 311 308 305 301 297 295 294 293 294
316 316 313 314 314 317 317 318 318 321 322 324 320 317 315 311 311 311 311 312 314 315 314 314 314 314 316 316 317 315 314 305 312 312 311 311 310 309 306 305 304 301 294 297
314 316 315 318 317 316 317 317 317 318 319 322 321 319 315 312 312 310 311 312 312 310 311 311 311 312 315 314 314 313 310 309 311 312 311 310 310 310 310 309 308 307 305 297
311 311 311 311 312 313 315 315 315 316 318 319 322 320 319 319 318 316 318 318 316 312 313 312 312 312 313 311 311 309 309 307 306 311 308 308 308 308 308 308 307 307 307 307
308 308 309 308 309 310 311 313 316 316 318 318 321 323 323 319 321 319 320 321 319 317 315 314 313 315 313 312 311 308 307 306 308 305 306 307 307 307 307 307 306 305 305 300
313 313 312 311 311 310 311 313 314 316 318 319 321 322 321 321 322 322 321 322 319 316 316 315 315 315 313 311 311 309 307 306 304 305 307 307 307 307 306 306 307 306 306 301
314 312 311 312 313 312 315 314 315 316 318 320 321 320 321 321 321 322 322 320 318 317 317 318 316 314 313 311 311 309 308 307 306 305 306 306 306 306 306 306 306 307 307 306
313 312 312 313 314 315 315 316 317 317 318 318 319 318 318 319 321 321 322 320 320 318 321 318 316 314 314 312 312 308 307 307 307 306 306 307 306 306 307 303 306 307 307 307
313 313 312 314 314 315 316 316 316 315 317 316 315 316 318 318 320 320 319 319 321 321 319 317 315 315 315 315 312 308 307 308 309 309 308 306 307 307 307 308 307 307 307 308
314 312 312 313 313 313 314 315 315 316 314 315 315 315 316 316 316 317 319 317 318 313 318 317 318 317 315 316 314 311 310 309 307 309 309 309 308 308 307 308 308 308 309 309
314 313 313 313 312 312 313 314 315 313 312 313 313 314 313 313 312 311 311 318 317 310 317 316 316 314 312 315 314 315 314 313 311 311 309 308 307 309 309 308 309 308 310 310
315 315 314 315 314 311 311 313 313 315 314 315 312 313 310 308 309 310 312 310 308 308 313 313 311 311 310 316 316 317 317 317 313 315 314 304 309 306 306 308 308 309 309 306
316 316 314 314 312 311 315 315 314 312 312 311 312 313 313 311 309 310 313 313 308 309 312 311 309 308 311 313 313 313 316 316 316 316 314 314 312 311 310 305 308 306 309 309
316 314 314 316 314 312 312 313 310 309 309 308 309 311 311 313 312 312 313 311 312 310 312 312 312 312 312 312 312 311 312 314 316 315 314 314 316 315 311 310 307 307 308 310
316 309 314 314 315 314 312 310 309 309 309 309 308 311 311 312 311 309 304 311 309 309 311 311 310 310 311 310 311 312 314 313 309 315 315 316 315 313 311 310 307 307 309 309

GFSNGP_sfc_thetae_114.txt.gz
Theta_e
305 307 307 307 308 308 305 307 303 306 313 319 325 329 333 336 338 335 338 338 338 341 346 349 348 347 347 348 344 344 346 345 353 353 351 354 353 357 364 361 363 362 360 360
303 306 308 304 308 309 308 307 307 308 309 322 328 319 319 335 338 338 337 336 341 344 344 346 347 347 344 343 345 343 342 346 350 354 354 348 349 350 359 363 361 362 360 358
300 305 304 301 306 307 309 310 309 306 319 323 317 314 316 331 336 336 336 339 339 340 345 347 345 347 344 345 347 347 347 349 350 349 346 346 344 347 344 354 357 354 352 347
301 303 295 305 312 312 310 315 318 319 325 326 320 317 326 334 333 333 334 333 332 333 336 346 346 345 346 348 347 349 347 346 345 343 340 338 338 339 341 343 346 342 341 337
298 294 302 305 310 308 306 306 316 316 324 317 327 328 326 333 336 331 331 330 326 324 328 328 335 341 345 340 342 341 340 342 343 343 340 337 334 336 339 337 333 331 329 324
302 296 291 304 311 314 312 304 317 317 321 316 324 315 322 331 331 329 328 325 322 320 319 322 326 328 329 326 324 325 329 334 336 337 340 341 340 338 338 334 327 323 321 319
300 298 301 308 312 313 298 306 317 319 322 320 318 323 327 329 325 324 322 318 318 317 316 316 319 319 317 320 318 321 324 326 332 332 333 335 335 336 333 330 326 325 320 317
302 299 295 312 311 303 315 317 318 319 323 324 328 327 326 324 321 317 315 316 316 315 314 316 317 316 314 315 319 320 321 322 324 327 332 333 330 329 329 327 325 323 321 321
302 304 314 316 314 317 318 318 320 321 327 325 325 323 324 319 318 316 314 313 315 315 316 317 317 316 316 319 321 321 321 323 322 325 328 331 330 330 325 325 321 321 321 322
306 311 312 314 316 318 318 317 319 323 325 327 323 324 320 318 317 316 316 315 315 314 314 315 317 318 318 319 322 320 320 321 321 322 312 308 313 324 315 314 325 330 326 324
306 312 315 314 316 316 317 319 320 324 326 326 325 322 320 319 318 318 318 317 318 317 316 316 317 317 320 321 321 319 320 321 319 319 314 306 298 299 304 297 297 315 312 308
305 316 316 315 317 316 315 316 318 320 324 326 324 321 319 316 314 314 315 317 316 317 317 316 316 316 318 321 324 321 319 318 318 320 319 315 308 299 296 296 295 294 295 301
314 318 315 319 317 317 315 317 318 319 323 324 321 317 316 314 315 314 314 314 314 314 315 315 316 317 319 319 319 320 316 322 316 316 313 312 309 304 298 296 296 294 294 294
316 316 313 313 312 316 316 317 317 320 325 325 320 317 313 312 313 313 313 315 315 314 313 315 314 315 316 318 320 323 316 308 311 313 315 314 311 308 304 302 300 299 295 297
314 315 314 317 317 316 316 317 316 316 321 321 322 317 314 311 310 311 313 313 312 311 310 311 313 315 318 317 316 318 316 315 318 315 312 314 315 311 310 311 307 303 300 297
313 313 312 311 313 313 314 314 313 314 320 321 320 319 317 316 313 312 312 312 309 310 311 311 312 313 315 316 316 313 311 310 309 313 309 313 312 311 310 312 311 309 309 307
308 308 309 309 309 310 310 312 313 315 321 321 319 320 321 318 317 316 316 317 318 318 317 314 315 316 315 312 312 310 309 308 310 309 307 308 309 308 309 310 307 308 306 300
312 313 313 313 312 311 311 312 313 314 316 321 324 318 321 321 320 320 321 320 321 320 318 320 319 316 314 313 312 311 308 308 305 305 307 309 309 310 310 309 309 307 302 298
314 312 312 311 312 312 313 313 314 315 317 322 322 321 317 322 323 323 324 321 319 318 318 320 318 317 315 313 313 310 308 307 306 306 308 308 308 308 307 306 306 308 307 301
314 313 312 312 314 314 314 316 315 316 318 321 321 319 318 316 318 322 324 321 322 319 324 320 317 314 316 314 314 309 308 307 307 307 308 308 307 307 308 304 306 308 308 306
314 313 312 313 313 315 316 316 316 317 318 317 316 318 319 321 321 321 320 320 321 324 321 318 319 315 315 315 311 308 308 308 309 309 308 307 308 308 308 308 308 307 307 308
314 313 312 313 314 313 316 316 318 318 318 316 315 316 316 317 319 319 321 319 323 316 323 320 317 319 317 318 313 311 309 305 307 308 308 309 308 307 308 308 308 309 308 309
315 314 313 313 313 313 313 314 315 315 314 314 313 313 313 313 315 312 311 319 318 312 318 318 316 315 315 317 315 315 312 313 313 312 311 311 310 308 310 310 308 309 311 309
317 316 316 315 315 314 313 316 314 315 316 317 315 313 311 308 309 311 314 312 309 310 308 312 312 312 312 317 317 317 317 316 316 317 316 306 312 311 311 311 308 307 310 305
319 317 317 315 315 313 315 315 314 314 311 314 313 314 315 312 309 310 313 311 308 309 311 312 310 310 311 312 314 315 316 316 317 317 317 315 313 309 313 312 311 308 309 310
319 314 314 317 313 312 313 313 311 312 312 309 311 312 311 312 312 310 311 311 312 310 311 312 311 310 312 311 311 311 310 312 313 315 314 317 316 315 314 314 313 308 310 307
316 310 314 314 314 314 313 313 311 310 309 310 309 311 310 310 310 310 306 310 311 311 310 310 309 308 310 310 310 311 311 311 308 314 314 316 315 313 315 315 314 314 311 312

GFSNGP_sfc_thetae_117.txt.gz
Theta_e
299 302 303 303 303 304 301 306 297 301 307 314 318 322 322 330 329 330 331 331 335 335 335 336 336 338 343 344 341 344 343 344 342 345 346 346 349 348 349 351 350 349 349 347
299 304 305 302 306 306 309 308 307 308 313 320 323 321 321 321 332 329 332 335 338 335 335 334 335 335 343 341 342 343 343 340 344 343 343 342 343 344 347 347 346 346 344 336
293 302 302 299 303 305 307 310 308 308 313 315 314 317 318 321 332 332 330 334 336 339 339 334 337 341 340 340 342 339 340 343 343 339 337 336 340 341 343 346 346 341 333 325
293 296 288 303 309 309 308 311 315 316 320 315 314 314 316 325 330 330 330 328 328 329 334 342 344 342 342 343 342 341 342 339 339 337 336 335 335 339 342 341 337 332 328 320
294 293 297 303 306 305 303 307 314 317 318 320 324 325 325 330 330 326 325 323 323 324 328 332 341 341 340 337 339 339 337 337 336 335 333 334 336 336 332 328 324 324 319 313
295 293 289 299 308 311 310 302 316 319 315 314 317 310 317 325 324 322 322 322 320 320 324 325 327 330 328 325 326 327 332 334 337 336 335 333 332 334 331 326 322 320 316 310
294 293 299 309 309 312 298 302 315 320 318 315 311 320 320 320 318 318 316 317 318 316 316 318 320 323 320 321 319 322 326 331 331 333 332 333 333 332 327 321 318 315 312 309
295 292 292 312 312 302 307 313 316 322 320 319 322 321 319 316 315 315 316 316 316 314 315 318 319 319 317 317 320 322 324 325 327 331 333 330 327 327 326 321 317 314 313 311
299 297 310 312 310 310 312 312 313 320 322 319 320 319 318 315 314 314 314 315 316 316 315 316 318 318 316 318 321 321 322 323 323 314 314 323 326 325 323 322 320 319 319 313
302 306 310 312 314 314 315 314 317 323 322 323 319 318 316 314 313 312 313 314 316 316 314 315 317 317 318 320 320 319 319 319 313 307 303 304 308 304 304 303 310 321 319 313
301 307 310 313 312 312 315 316 318 323 324 323 319 316 315 314 315 315 315 316 315 314 313 313 315 316 319 320 320 319 319 318 315 307 301 296 295 300 300 295 296 306 302 301
301 311 310 311 313 315 313 313 316 322 321 322 320 318 316 315 314 314 314 316 315 313 313 312 312 312 314 318 319 317 317 316 317 313 309 305 301 296 297 297 297 295 296 295
311 314 316 316 316 317 312 314 316 322 322 319 319 317 313 311 313 313 313 312 312 312 313 313 313 313 312 315 314 316 317 316 317 315 312 304 301 299 296 296 297 295 294 294
313 313 310 313 309 314 314 318 315 322 320 319 316 315 314 312 312 312 312 311 311 311 311 311 311 311 312 310 310 308 305 309 306 309 308 306 303 300 297 297 296 294 295 295
311 312 309 312 314 314 314 313 313 319 319 316 314 313 312 311 311 312 313 313 312 311 311 311 310 309 311 309 309 308 306 308 308 305 306 307 305 302 299 301 297 295 293 294
311 311 310 309 313 312 310 311 309 316 317 317 314 312 312 313 313 312 311 311 308 307 307 307 309 310 310 309 309 306 303 308 307 303 302 303 304 305 302 303 300 295 295 297
306 305 305 304 306 306 307 308 308 312 317 317 316 315 314 312 311 310 309 310 310 309 308 308 307 309 308 308 308 305 303 301 308 302 300 301 302 300 301 304 302 302 301 301
309 310 310 309 309 309 308 309 309 310 316 318 317 317 314 312 310 310 310 311 312 314 314 311 312 310 308 306 305 306 303 301 299 300 301 300 301 302 302 301 301 299 296 294
312 311 311 314 310 309 309 310 310 310 314 319 317 316 316 315 315 315 314 314 313 312 313 313 318 313 308 308 309 305 302 302 300 300 301 304 301 301 301 300 300 299 296 294
313 313 312 311 313 311 310 314 315 315 316 317 317 317 314 314 316 316 316 314 315 315 315 314 314 311 309 309 315 304 302 301 300 299 299 300 300 301 301 300 301 301 299 297
313 312 311 312 311 313 315 314 314 312 314 315 314 312 312 315 315 314 312 309 313 317 316 318 312 310 309 311 311 303 302 301 301 301 300 300 300 300 300 300 301 301 301 300
313 311 311 312 311 311 315 315 314 312 312 312 313 313 312 312 314 316 314 312 314 314 314 313 313 314 313 317 307 304 304 303 303 303 304 304 301 300 302 302 301 302 302 301
313 313 312 311 311 311 313 313 312 312 311 311 310 309 309 310 311 308 307 313 312 311 313 314 316 316 315 312 309 306 304 304 304 303 303 303 305 305 301 301 301 302 302 302
314 314 312 313 313 311 310 311 312 312 311 310 309 309 307 303 304 309 310 310 310 310 308 307 310 313 312 311 310 309 308 308 307 307 308 304 304 306 303 305 304 305 305 304
316 314 314 311 311 310 313 311 311 311 311 309 309 308 308 308 305 307 307 306 306 306 307 310 312 311 309 310 310 310 309 308 308 308 308 307 307 306 306 307 306 303 305 306
316 313 313 312 311 311 311 311 308 308 308 307 307 309 309 309 308 307 308 307 308 306 305 307 306 305 305 306 306 307 307 308 307 306 306 307 306 306 306 305 305 305 303 304
316 310 313 312 312 312 310 310 309 308 309 309 307 308 309 309 307 307 307 306 306 306 306 305 304 304 304 304 304 304 305 307 305 306 308 307 307 306 306 306 305 305 304 303

GFSNGP_sfc_thetae_120.txt.gz
Theta_e
296 303 304 304 304 306 302 301 299 305 306 310 316 319 322 326 329 328 328 330 328 331 336 337 339 340 340 339 340 339 338 338 340 342 343 344 344 342 345 348 347 348 344 340
295 302 303 301 305 307 307 307 306 310 308 315 318 320 322 326 328 329 329 330 334 334 337 337 340 340 340 340 340 341 338 340 342 343 342 342 343 344 344 344 344 342 334 330
290 299 299 296 300 305 307 312 310 307 312 313 310 315 316 322 324 327 329 331 332 334 334 336 335 342 340 340 343 341 340 341 342 340 338 338 340 340 340 341 338 329 322 320
289 291 287 298 305 308 308 310 314 314 317 317 315 323 325 327 325 324 325 327 325 326 333 335 339 341 342 342 341 340 340 340 338 336 335 335 338 339 340 338 332 327 321 318
290 288 294 302 304 304 302 304 316 313 314 315 316 320 321 324 324 323 322 322 322 324 327 336 340 340 341 340 338 339 337 337 335 336 335 335 330 328 324 328 325 321 316 313
290 288 287 297 307 309 308 298 315 316 313 313 312 305 315 319 319 319 319 319 318 320 322 325 333 338 333 332 336 336 335 335 335 334 333 333 332 328 324 320 315 313 311 309
291 290 296 305 308 309 294 296 312 319 317 312 311 317 318 318 314 316 317 316 317 317 316 319 325 330 326 327 326 329 332 334 335 334 335 332 333 326 322 319 316 312 311 310
291 288 287 309 309 300 303 308 312 319 319 319 319 318 315 312 312 315 315 315 315 316 317 319 321 325 322 320 323 327 329 329 330 332 332 330 327 322 319 315 311 307 305 303
294 293 303 308 307 308 309 309 314 317 320 321 319 318 314 312 313 313 314 314 315 315 315 318 320 321 319 320 323 324 322 317 316 315 315 321 324 323 321 318 315 313 310 307
297 300 304 309 311 311 311 313 318 319 315 318 315 314 310 311 310 312 314 314 313 315 314 314 317 319 320 320 321 320 313 310 308 306 305 307 304 304 305 308 318 319 312 305
298 303 306 310 312 311 312 320 322 322 321 319 315 312 310 308 311 312 313 311 314 311 310 312 315 316 318 319 320 317 314 309 305 302 299 297 297 299 299 296 298 308 311 306
296 303 304 306 309 312 311 315 321 321 318 318 316 312 311 310 313 313 312 314 312 311 311 312 313 312 313 318 318 317 316 314 310 307 303 300 297 297 297 297 297 296 296 299
307 310 310 311 313 312 310 317 321 320 319 316 315 313 311 309 312 313 312 312 310 311 311 311 311 311 312 314 313 312 311 312 312 310 305 302 300 298 295 299 297 295 295 295
310 309 307 310 307 310 313 314 321 321 319 317 313 311 310 309 309 311 310 311 311 311 310 311 309 308 309 308 308 307 307 309 312 309 305 301 301 299 297 295 297 296 296 295
307 307 307 308 309 309 310 314 317 316 314 313 313 311 309 308 308 309 311 311 311 309 308 309 308 308 308 306 305 301 299 301 302 307 306 302 298 295 295 294 292 293 294 295
306 306 306 307 308 307 306 307 308 314 314 312 311 310 310 309 308 308 309 311 308 307 307 308 306 307 308 308 305 302 300 308 305 300 302 301 299 296 296 295 292 292 293 294
303 301 301 300 302 302 303 304 305 315 314 312 311 311 309 308 307 306 308 310 306 305 304 304 305 306 305 305 305 303 302 300 306 298 297 298 299 299 298 298 296 294 296 296
304 305 303 303 303 304 304 305 308 314 315 314 313 311 309 308 308 306 306 306 305 305 306 306 306 306 306 305 303 302 300 298 297 298 297 297 299 298 299 300 301 299 298 298
306 305 305 306 305 305 304 306 305 308 313 315 313 311 311 310 307 307 307 306 306 305 309 311 314 313 305 306 305 300 301 299 297 295 297 300 298 298 298 298 300 299 298 296
307 307 306 306 307 306 307 310 311 313 314 315 313 311 310 310 310 310 310 310 310 311 313 312 313 310 305 306 315 302 301 299 298 296 295 295 297 297 298 298 298 298 296 294
307 306 306 307 306 309 310 310 309 310 311 313 312 313 313 314 311 311 307 309 313 314 314 315 312 308 306 306 310 303 301 299 298 297 296 296 296 298 297 298 298 299 299 297
306 305 306 307 306 306 309 308 308 307 308 309 310 311 311 311 309 311 311 308 310 311 313 311 310 312 312 316 307 304 301 299 299 300 300 300 298 298 301 300 299 298 299 298
306 305 306 305 305 305 308 308 306 306 306 306 307 307 307 308 309 310 308 309 310 310 311 310 312 313 314 311 306 304 301 301 299 299 302 303 304 303 300 301 302 300 299 299
306 305 305 305 305 306 305 306 306 305 305 305 304 303 304 301 301 303 305 307 308 308 309 310 312 313 312 309 307 306 304 304 302 302 302 301 301 300 300 300 299 300 299 298
308 307 305 304 305 306 307 306 305 305 303 303 303 303 301 301 301 303 304 304 307 306 305 308 311 311 307 307 307 306 305 305 305 305 304 304 304 303 303 303 304 305 304 303
308 308 308 307 307 306 308 306 306 306 304 303 303 304 303 302 303 302 301 303 303 304 302 302 304 304 303 302 302 303 303 304 304 304 305 304 303 302 302 302 302 303 302 303
308 305 305 304 306 308 308 308 305 306 306 305 305 305 304 304 303 304 303 303 301 302 302 301 302 302 301 301 302 302 301 302 302 303 303 303 303 303 302 302 302 302 302 301

GFSNGP_sfc_thetae_123.txt.gz
Theta_e
294 302 304 304 303 305 300 298 296 304 304 308 313 318 323 326 329 327 325 328 329 330 332 333 335 336 342 340 341 343 343 343 342 342 342 342 343 344 344 345 345 345 345 343
295 302 303 301 304 306 306 308 308 307 305 312 314 321 321 322 327 326 326 328 329 331 334 334 335 337 340 339 338 340 340 339 338 340 340 338 338 340 340 341 342 340 339 335
288 296 297 294 299 304 306 309 308 302 306 316 318 320 319 321 324 325 327 330 330 331 335 336 337 340 339 339 340 338 338 339 340 340 339 338 339 339 338 340 337 332 328 327
288 289 285 297 304 308 308 310 312 313 314 318 321 321 321 323 322 324 324 324 326 329 332 332 337 340 340 341 340 337 336 339 339 337 337 337 337 336 338 340 330 326 324 326
289 286 293 300 303 302 301 302 312 310 313 314 318 318 318 321 321 321 321 322 322 324 327 336 337 339 339 339 339 338 337 337 336 336 335 335 331 327 325 326 323 318 316 316
289 287 285 294 305 308 306 296 310 314 310 311 311 302 310 318 318 319 319 318 318 320 322 324 333 338 337 336 336 337 338 337 335 336 335 331 328 323 319 315 312 312 311 314
290 288 294 302 305 307 293 294 308 314 314 309 307 310 316 316 315 316 316 317 318 318 318 321 327 335 330 331 330 334 336 336 335 335 334 332 328 324 319 316 315 315 313 311
289 286 286 307 307 298 301 305 309 315 315 315 317 317 313 313 315 315 315 315 316 317 318 320 325 326 323 322 327 330 332 333 333 334 335 332 326 321 317 313 308 304 304 304
293 292 300 305 304 306 307 311 311 312 317 317 318 315 313 309 312 313 315 315 316 315 317 319 321 324 321 322 325 324 323 320 317 316 319 326 323 320 315 310 306 305 303 303
295 297 302 307 309 308 310 314 316 315 316 316 314 314 313 309 309 313 314 314 315 315 313 315 319 320 321 322 319 316 313 310 309 309 309 308 308 311 319 315 313 310 306 303
296 301 304 308 309 309 315 318 318 318 318 315 312 309 307 306 308 312 313 314 314 311 312 312 314 316 318 319 316 312 309 307 304 303 302 299 301 302 302 299 303 313 308 302
296 302 302 304 308 311 317 318 318 318 316 315 312 309 307 306 307 308 312 313 311 311 310 310 313 313 314 316 316 312 309 308 306 304 302 301 300 298 298 298 297 296 299 300
303 305 307 309 310 310 312 318 320 318 317 314 311 310 307 307 308 311 308 312 308 309 309 310 310 309 311 313 313 313 312 311 309 306 303 302 302 302 300 298 297 295 295 295
309 309 306 309 307 308 315 320 319 319 317 315 311 310 308 307 306 308 308 308 309 310 308 310 309 306 307 308 309 308 309 310 308 306 303 300 298 298 298 296 296 295 295 295
308 307 308 307 307 308 312 318 316 315 314 312 311 310 308 306 305 306 307 310 310 308 309 306 305 304 305 304 302 300 301 303 309 307 302 299 297 294 295 295 294 294 294 294
304 306 307 306 306 306 312 316 313 312 312 311 310 309 309 308 306 306 306 309 307 302 304 305 305 305 306 304 301 298 299 306 304 304 301 298 295 293 294 291 290 290 290 291
301 299 299 301 305 305 304 307 311 312 313 311 310 310 308 307 306 305 305 307 308 308 306 304 303 304 304 304 303 300 298 299 303 299 301 300 298 295 295 294 291 290 290 292
305 305 303 302 301 301 301 303 304 312 312 313 311 309 308 306 306 305 305 306 304 302 303 304 304 304 304 303 302 301 298 297 296 296 297 297 297 296 297 296 295 292 293 295
305 304 303 304 304 303 303 304 305 311 312 312 310 309 309 308 305 305 305 304 303 302 305 306 311 311 304 305 304 300 299 298 296 295 295 298 296 296 295 297 297 298 297 296
304 304 305 305 305 304 304 305 306 308 311 312 310 308 307 307 306 306 305 305 306 307 307 308 310 310 308 306 313 299 300 299 298 295 294 294 295 295 295 296 296 297 296 296
304 304 304 305 304 307 308 308 309 309 310 311 310 308 308 308 308 307 304 304 309 310 310 313 310 309 307 307 308 303 299 299 297 296 295 294 294 295 295 295 296 297 296 295
304 303 304 304 304 306 308 307 308 309 309 310 310 309 308 308 310 308 308 308 311 310 310 311 311 312 308 314 305 303 301 299 297 296 296 295 294 294 295 296 296 297 297 297
303 302 303 303 303 304 306 305 305 307 308 308 308 308 308 308 307 305 305 309 308 309 309 309 311 313 313 310 308 307 305 302 298 297 298 298 298 298 297 298 299 298 300 300
303 302 303 304 303 305 304 304 304 304 306 306 307 307 305 302 302 304 306 306 308 308 309 309 310 312 311 306 306 305 304 304 301 299 298 297 298 300 300 299 298 298 298 298
303 304 302 301 303 306 306 306 304 302 302 303 302 302 302 300 301 302 304 305 306 306 307 309 310 310 307 306 305 304 303 302 303 304 301 301 301 301 301 301 302 302 303 302
304 305 305 305 306 306 307 305 305 304 301 301 301 301 300 299 300 302 302 304 304 304 302 302 303 303 303 304 304 304 303 303 302 302 301 301 300 300 299 299 300 301 301 301
306 303 303 302 302 304 307 307 307 305 305 304 304 303 302 301 302 301 300 301 301 301 301 301 301 302 300 300 300 301 300 300 299 301 301 300 299 299 299 299 299 299 299 299